[[{"header":{"parameterUnit":"m.s-1","parameterCategory":1,"la1":30.6,"la2":28.766,"lo1":-90.7593,"lo2":-88.6598,"dy":0.0162,"dx":0.0183,"nx":116,"ny":114,"refTime":"2023-08-22T06:00:00:Z","depth":0,"parameterNumber":2,"parameterNumberName":"U-component_of_WINDS"},"data":[0.0,0.0,0.0,0.0,0.0,0.0,0.0,0.0,0.0,0.0,0.0,0.0,0.0,0.0,0.0,0.0,0.0,0.0,0.0,0.0,0.0,0.0,0.0,0.0,0.0,0.0,0.0,0.0,0.0,0.0,0.0,0.0,0.0,0.0,0.0,0.0,0.0,0.0,0.0,0.0,0.0,0.0,0.0,0.0,0.0,0.0,0.0,0.0,0.0,0.0,0.0,0.0,0.0,0.0,0.0,0.0,0.0,0.0,0.0,0.0,0.0,0.0,0.0,0.0,0.0,0.0,0.0,0.0,0.0,0.0,0.0,0.0,0.0,0.0,0.0,0.0,0.0,0.0,0.0,0.0,0.0,0.0,0.0,0.0,0.0,0.0,0.0,0.0,0.0,0.0,0.0,0.0,0.0,0.0,0.0,0.0,0.0,0.0,0.0,0.0,0.0,0.0,0.0,0.0,0.0,0.0,0.0,0.0,0.0,0.0,0.0,0.0,0.0,0.0,0.0,0.0,0.0,0.0,0.0,0.0,0.0,0.0,0.0,0.0,0.0,0.0,0.0,0.0,0.0,0.0,0.0,0.0,0.0,0.0,0.0,0.0,0.0,0.0,0.0,0.0,0.0,0.0,0.0,0.0,0.0,0.0,0.0,0.0,0.0,0.0,0.0,0.0,0.0,0.0,0.0,0.0,0.0,0.0,0.0,0.0,0.0,0.0,0.0,0.0,0.0,0.0,0.0,0.0,0.0,0.0,0.0,0.0,0.0,0.0,0.0,0.0,0.0,0.0,0.0,0.0,0.0,0.0,0.0,0.0,0.0,0.0,0.0,0.0,0.0,0.0,0.0,0.0,0.0,0.0,0.0,0.0,0.0,0.0,0.0,0.0,0.0,0.0,0.0,0.0,0.0,0.0,0.0,0.0,0.0,0.0,0.0,0.0,0.0,0.0,0.0,0.0,0.0,0.0,0.0,0.0,0.0,0.0,0.0,0.0,0.0,0.0,0.0,0.0,0.0,0.0,0.0,0.0,0.0,0.0,0.0,0.0,0.0,0.0,0.0,0.0,0.0,0.0,0.0,0.0,0.0,0.0,0.0,0.0,0.0,0.0,0.0,0.0,0.0,0.0,0.0,0.0,0.0,0.0,0.0,0.0,0.0,0.0,0.0,0.0,0.0,0.0,0.0,0.0,0.0,0.0,0.0,0.0,0.0,0.0,0.0,0.0,0.0,0.0,0.0,0.0,0.0,0.0,0.0,0.0,0.0,0.0,0.0,0.0,0.0,0.0,0.0,0.0,0.0,0.0,0.0,0.0,0.0,0.0,0.0,0.0,0.0,0.0,0.0,0.0,0.0,0.0,0.0,0.0,0.0,0.0,0.0,0.0,0.0,0.0,0.0,0.0,0.0,0.0,0.0,0.0,0.0,0.0,0.0,0.0,0.0,0.0,0.0,0.0,0.0,0.0,0.0,0.0,0.0,0.0,0.0,0.0,0.0,0.0,0.0,0.0,0.0,0.0,0.0,0.0,0.0,0.0,0.0,0.0,0.0,0.0,0.0,0.0,0.0,0.0,0.0,0.0,0.0,0.0,0.0,0.0,0.0,0.0,0.0,0.0,0.0,0.0,0.0,0.0,0.0,0.0,0.0,0.0,0.0,0.0,0.0,0.0,0.0,0.0,0.0,0.0,0.0,0.0,0.0,0.0,0.0,0.0,0.0,0.0,0.0,0.0,0.0,0.0,0.0,0.0,0.0,0.0,0.0,0.0,0.0,0.0,0.0,0.0,0.0,0.0,0.0,0.0,0.0,0.0,0.0,0.0,0.0,0.0,0.0,0.0,0.0,0.0,0.0,0.0,0.0,0.0,0.0,0.0,0.0,0.0,0.0,0.0,0.0,0.0,0.0,0.0,0.0,0.0,0.0,0.0,0.0,0.0,0.0,0.0,0.0,0.0,0.0,0.0,0.0,0.0,0.0,0.0,0.0,0.0,0.0,0.0,0.0,0.0,0.0,0.0,0.0,0.0,0.0,0.0,0.0,0.0,0.0,0.0,0.0,0.0,0.0,0.0,0.0,0.0,0.0,0.0,0.0,0.0,0.0,0.0,0.0,0.0,0.0,0.0,0.0,0.0,0.0,0.0,0.0,0.0,0.0,0.0,0.0,0.0,0.0,0.0,0.0,0.0,0.0,0.0,0.0,0.0,0.0,0.0,0.0,0.0,0.0,0.0,0.0,0.0,0.0,0.0,0.0,0.0,0.0,0.0,0.0,0.0,0.0,0.0,0.0,0.0,0.0,0.0,0.0,0.0,0.0,0.0,0.0,0.0,0.0,0.0,0.0,0.0,0.0,0.0,0.0,0.0,0.0,0.0,0.0,0.0,0.0,0.0,0.0,0.0,0.0,0.0,0.0,0.0,0.0,0.0,0.0,0.0,0.0,0.0,0.0,0.0,0.0,0.0,0.0,0.0,0.0,0.0,0.0,0.0,0.0,0.0,0.0,0.0,0.0,0.0,0.0,0.0,0.0,0.0,0.0,0.0,0.0,0.0,0.0,0.0,0.0,0.0,0.0,0.0,0.0,0.0,0.0,0.0,0.0,0.0,0.0,0.0,0.0,0.0,0.0,0.0,0.0,0.0,0.0,0.0,0.0,0.0,0.0,0.0,0.0,0.0,0.0,0.0,0.0,0.0,0.0,0.0,0.0,0.0,0.0,0.0,0.0,0.0,0.0,0.0,0.0,0.0,0.0,0.0,0.0,0.0,0.0,0.0,0.0,0.0,0.0,0.0,0.0,0.0,0.0,0.0,0.0,0.0,0.0,0.0,0.0,0.0,0.0,0.0,0.0,0.0,0.0,0.0,0.0,0.0,0.0,0.0,0.0,0.0,0.0,0.0,0.0,0.0,0.0,0.0,0.0,0.0,0.0,0.0,0.0,0.0,0.0,0.0,0.0,0.0,0.0,0.0,0.0,0.0,0.0,0.0,0.0,0.0,0.0,0.0,0.0,0.0,0.0,0.0,0.0,0.0,0.0,0.0,0.0,0.0,0.0,0.0,0.0,0.0,0.0,0.0,0.0,0.0,0.0,0.0,0.0,0.0,0.0,0.0,0.0,0.0,0.0,0.0,0.0,0.0,0.0,0.0,0.0,0.0,0.0,0.0,0.0,0.0,0.0,0.0,0.0,0.0,0.0,0.0,0.0,0.0,0.0,0.0,0.0,0.0,0.0,0.0,0.0,0.0,0.0,0.0,0.0,0.0,0.0,0.0,0.0,0.0,0.0,0.0,0.0,0.0,0.0,0.0,0.0,0.0,0.0,0.0,0.0,0.0,0.0,0.0,0.0,0.0,0.0,0.0,0.0,0.0,0.0,0.0,0.0,0.0,0.0,0.0,0.0,0.0,0.0,0.0,0.0,0.0,0.0,0.0,0.0,0.0,0.0,0.0,0.0,0.0,0.0,0.0,0.0,0.0,0.0,0.0,0.0,0.0,0.0,0.0,0.0,0.0,0.0,0.0,0.0,0.0,0.0,0.0,0.0,0.0,0.0,0.0,0.0,0.0,0.0,0.0,0.0,0.0,0.0,0.0,0.0,0.0,0.0,0.0,0.0,0.0,0.0,0.0,0.0,0.0,0.0,0.0,0.0,0.0,0.0,0.0,0.0,0.0,0.0,0.0,0.0,0.0,0.0,0.0,0.0,0.0,0.0,0.0,0.0,0.0,0.0,0.0,0.0,0.0,0.0,0.0,0.0,0.0,0.0,0.0,0.0,0.0,0.0,0.0,0.0,0.0,0.0,0.0,0.0,0.0,0.0,0.0,0.0,0.0,0.0,0.0,0.0,0.0,0.0,0.0,0.0,0.0,0.0,0.0,0.0,0.0,0.0,0.0,0.0,0.0,0.0,0.0,0.0,0.0,0.0,0.0,0.0,0.0,0.0,0.0,0.0,0.0,0.0,0.0,0.0,0.0,0.0,0.0,0.0,0.0,0.0,0.0,0.0,0.0,0.0,0.0,0.0,0.0,0.0,0.0,0.0,0.0,0.0,0.0,0.0,0.0,0.0,0.0,0.0,0.0,0.0,0.0,0.0,0.0,0.0,0.0,0.0,0.0,0.0,0.0,0.0,0.0,0.0,0.0,0.0,0.0,0.0,0.0,0.0,0.0,0.0,0.0,0.0,0.0,0.0,0.0,0.0,0.0,0.0,0.0,0.0,0.0,0.0,0.0,0.0,0.0,0.0,0.0,0.0,0.0,0.0,0.0,0.0,0.0,0.0,0.0,0.0,0.0,0.0,0.0,0.0,0.0,0.0,0.0,0.0,0.0,0.0,0.0,0.0,0.0,0.0,0.0,0.0,0.0,0.0,0.0,0.0,0.0,0.0,0.0,0.0,0.0,0.0,0.0,0.0,0.0,0.0,0.0,0.0,0.0,0.0,0.0,0.0,0.0,0.0,0.0,0.0,0.0,0.0,0.0,0.0,0.0,0.0,0.0,0.0,0.0,0.0,0.0,0.0,0.0,0.0,0.0,0.0,0.0,0.0,0.0,0.0,0.0,0.0,0.0,0.0,0.0,0.0,0.0,0.0,0.0,0.0,0.0,0.0,0.0,0.0,0.0,0.0,0.0,0.0,0.0,0.0,0.0,0.0,0.0,0.0,0.0,0.0,0.0,0.0,0.0,0.0,0.0,0.0,0.0,0.0,0.0,0.0,0.0,0.0,0.0,0.0,0.0,0.0,0.0,0.0,0.0,0.0,0.0,0.0,0.0,0.0,0.0,0.0,0.0,0.0,0.0,0.0,0.0,0.0,0.0,0.0,0.0,0.0,0.0,0.0,0.0,0.0,0.0,0.0,0.0,0.0,0.0,0.0,0.0,0.0,0.0,0.0,0.0,0.0,0.0,0.0,0.0,0.0,0.0,0.0,0.0,0.0,0.0,0.0,0.0,0.0,0.0,0.0,0.0,0.0,0.0,0.0,0.0,0.0,0.0,0.0,0.0,0.0,0.0,0.0,0.0,0.0,0.0,0.0,0.0,0.0,0.0,0.0,0.0,0.0,0.0,0.0,0.0,0.0,0.0,0.0,0.0,0.0,0.0,0.0,0.0,0.0,0.0,0.0,0.0,0.0,0.0,0.0,0.0,0.0,0.0,0.0,0.0,0.0,0.0,0.0,0.0,0.0,0.0,0.0,0.0,0.0,0.0,0.0,0.0,0.0,0.0,0.0,0.0,0.0,0.0,0.0,0.0,0.0,0.0,0.0,0.0,0.0,0.0,0.0,0.0,0.0,0.0,0.0,0.0,0.0,0.0,0.0,0.0,0.0,0.0,0.0,0.0,0.0,0.0,0.0,0.0,0.0,0.0,0.0,0.0,0.0,0.0,0.0,0.0,0.0,0.0,0.0,0.0,0.0,0.0,0.0,0.0,0.0,0.0,0.0,0.0,0.0,0.0,0.0,0.0,0.0,0.0,0.0,0.0,0.0,0.0,0.0,0.0,0.0,0.0,0.0,0.0,0.0,0.0,0.0,0.0,0.0,0.0,0.0,0.0,0.0,0.0,0.0,0.0,0.0,0.0,0.0,0.0,0.0,0.0,0.0,0.0,0.0,0.0,0.0,0.0,0.0,0.0,0.0,0.0,0.0,0.0,0.0,0.0,0.0,0.0,0.0,0.0,0.0,0.0,0.0,0.0,0.0,0.0,0.0,0.0,0.0,0.0,0.0,0.0,0.0,0.0,0.0,0.0,0.0,0.0,0.0,0.0,0.0,0.0,0.0,0.0,0.0,0.0,0.0,0.0,0.0,0.0,0.0,0.0,0.0,0.0,0.0,0.0,0.0,0.0,0.0,0.0,0.0,0.0,0.0,0.0,0.0,0.0,0.0,0.0,0.0,0.0,0.0,0.0,0.0,0.0,0.0,0.0,0.0,0.0,0.0,0.0,0.0,0.0,0.0,0.0,0.0,0.0,0.0,0.0,0.0,0.0,0.0,0.0,0.0,0.0,0.0,0.0,0.0,0.0,0.0,0.0,0.0,0.0,0.0,0.0,0.0,0.0,0.0,0.0,0.0,0.0,0.0,0.0,0.0,0.0,0.0,0.0,0.0,0.0,0.0,0.0,0.0,0.0,-3.4681,0.0,0.0,0.0,0.0,0.0,0.0,0.0,0.0,0.0,0.0,0.0,0.0,0.0,0.0,0.0,0.0,0.0,0.0,0.0,0.0,0.0,0.0,0.0,0.0,0.0,0.0,0.0,0.0,0.0,0.0,0.0,0.0,0.0,0.0,0.0,0.0,0.0,0.0,0.1455,-0.2071,-0.6316,-1.111,-0.8848,-0.473,0.0741,0.0,0.0,0.0,0.0,0.0,0.0,0.0,0.0,0.0,0.0,0.0,0.0,0.0,0.0,0.0,0.0,0.0,0.0,0.0,0.0,0.0,0.0,0.0,0.0,0.0,0.0,0.0,0.0,0.0,0.0,0.0,0.0,0.0,0.0,0.0,0.0,0.0,0.0,0.0,0.0,0.0,0.0,0.0,0.0,0.0,0.0,0.0,0.0,0.0,0.0,0.0,0.0,0.0,0.0,0.0,0.0,0.0,0.0,0.0,0.0,0.0,0.0,0.0,0.0,0.0,0.0,0.0,0.0,0.0,0.0,0.0,-3.8599,0.0,0.0,0.0,0.0,0.0,0.0,0.0,0.0,0.0,0.0,0.0,0.0,0.0,0.0,0.0,0.0,0.0,0.0,0.0,0.0,0.0,0.0,0.0,0.7751,0.6554,0.6143,0.4608,0.4146,0.0,0.0,0.0,0.0,0.0,0.0,0.0,0.391,0.0814,-0.3308,-0.9049,-1.4984,-2.104,-2.1949,-1.7003,-0.7266,-0.3893,0.0,0.0,0.0,0.0,0.0,0.0,0.0,0.0,0.0,0.0,0.0,0.0,0.0,0.0,0.0,0.0,0.0,0.0,0.0,0.0,0.0,0.0,0.0,0.0,0.0,0.0,0.0,0.0,0.0,0.0,0.0,0.0,0.0,0.0,0.0,0.0,0.0,0.0,0.0,0.0,0.0,0.0,0.0,0.0,0.0,0.0,0.0,0.0,0.0,0.0,0.0,0.0,0.0,0.0,0.0,0.0,0.0,0.0,0.0,0.0,0.0,0.0,0.0,-4.6202,-4.6996,-4.772,-4.8067,-4.8381,-4.8528,-4.6568,-4.5256,-4.4271,0.0,0.0,0.0,0.0,0.0,0.0,0.0,0.0,0.0,0.0,0.0,0.0,0.0,0.0,0.0,0.0,0.0,0.0,0.0,0.0,0.0,0.0,0.5937,0.4066,0.3254,0.1885,0.1489,0.2477,0.0,0.0,0.0,0.0,0.0,0.2584,0.0446,-0.358,-0.9702,-2.0246,-2.7111,-3.0289,-2.879,-2.6739,-2.4011,-1.7477,-1.3827,-1.2203,0.0,0.0,0.0,0.0,0.0,0.0,0.0,0.0,0.0,0.0,0.0,0.0,0.0,0.0,0.0,0.0,0.0,0.0,0.0,0.0,0.0,0.0,0.0,0.0,0.0,0.0,0.0,0.0,0.0,0.0,0.0,0.0,0.0,0.0,0.0,0.0,0.0,0.0,0.0,0.0,0.0,-3.0814,-3.3886,0.0,0.0,0.0,0.0,0.0,0.0,0.0,0.0,0.0,0.0,0.0,0.0,0.0,-4.3676,-4.6948,-4.7304,-4.8077,-4.9286,-4.9614,-4.9913,-5.0165,-5.055,-5.0743,-5.0789,-5.0589,0.0,-4.641,-4.4863,0.0,0.0,0.0,0.0,0.0,0.0,0.0,0.0,0.0,0.0,0.0,0.0,0.0,0.0,0.0,0.0,0.0,0.0,0.0,0.0,0.0,0.2744,0.0363,-0.1722,-0.2923,-0.3219,-0.2206,-0.1319,0.0,0.0,0.0,0.0611,-0.0745,-0.4447,-1.1163,-2.0979,-2.8527,-3.3595,-3.6234,-3.4922,-3.3582,-3.2125,-2.8502,-2.2935,-1.598,-1.2219,0.0,0.0,0.0,0.0,0.0,0.0,0.0,0.0,0.0,0.0,0.0,0.0,0.0,0.0,0.0,0.0,0.0,0.0,0.0,0.0,0.0,0.0,0.0,0.0,0.0,0.0,0.0,0.0,0.0,0.0,0.0,0.0,0.0,0.0,0.0,0.0,0.0,0.0,0.0,-3.004,-3.5518,-3.6348,-3.5606,-3.4258,0.0,0.0,0.0,0.0,0.0,0.0,0.0,0.0,0.0,-4.583,-4.6318,-4.7838,-5.0677,-5.0266,-5.0403,-5.1058,-5.126,-5.1164,-5.0843,-5.159,-5.1693,-5.1283,-5.0859,-5.0153,-4.9215,-4.7975,-4.6214,-4.409,0.0,0.0,0.0,0.0,-3.9632,-4.0543,0.0,0.0,0.0,0.0,0.0,0.0,0.0,0.0,0.0,0.0,0.0,0.0,0.1309,-0.1656,-0.4534,-0.7588,-0.9037,-0.9235,-0.8019,-0.6803,-0.5143,-0.3036,-0.3016,-0.3843,-0.5377,-1.1797,-2.0169,-3.0349,-3.4653,-3.7679,-3.9424,-3.8669,-3.7592,-3.6239,-3.5131,-2.9777,-2.1414,-1.868,-1.5953,-1.3124,0.0,0.0,0.0,0.0,0.0,0.0,0.0,0.0,0.0,0.0,0.0,0.0,0.0,0.0,0.0,0.0,0.0,0.0,0.0,0.0,0.0,0.0,0.0,0.0,0.0,0.0,0.0,0.0,0.0,0.0,0.0,0.0,0.0,0.0,0.0,0.0,0.0,-3.5685,-3.9191,-3.8842,-3.9692,-3.9076,0.0,0.0,0.0,0.0,0.0,0.0,-4.3389,-4.5151,-4.7389,-5.0316,-5.0213,-5.122,-5.3517,-5.2254,-5.1753,-5.199,-5.1664,-5.1127,-5.0452,-5.1222,-5.1258,-5.0692,-5.0048,-5.0079,-5.0474,-4.9479,-4.8318,-4.7004,-4.5347,-4.4002,-4.2914,-4.2906,-4.3202,-4.3663,0.0,0.0,0.0,0.0,0.0,0.0,0.0,0.0,0.0,0.0,0.0,0.1545,-0.3068,-0.7341,-1.1176,-1.4258,-1.6398,-1.6792,-1.4935,-1.3693,-1.1618,-0.8534,-0.8264,-0.9471,-1.2133,-2.2803,-3.0381,-3.459,-3.8335,-3.9863,-3.9318,-3.8608,-3.7856,-3.6966,-3.5184,-3.4175,-3.3335,-2.6086,-2.3548,-2.3716,-1.5914,0.0,0.0,0.0,0.0,0.0,0.0,0.0,0.0,0.0,0.0,0.0,0.0,0.0,0.0,0.0,0.0,0.0,0.0,0.0,0.0,0.0,0.0,0.0,0.0,0.0,0.0,0.0,0.0,0.0,0.0,0.0,0.0,0.0,0.0,0.0,0.0,0.0,0.0,-4.3881,-4.563,0.0,0.0,0.0,0.0,-4.1492,-4.3378,-4.5583,-4.7941,-4.8637,-5.043,-5.3556,-5.2965,-5.3556,-5.5528,-5.3105,-5.2026,-5.2259,-5.0673,-4.9556,-4.8907,-4.897,-4.897,-4.8935,-4.8876,-4.885,-4.8806,-4.8552,-4.8422,-4.8275,-4.6784,-4.5768,-4.5102,-4.4653,-4.4482,-4.4369,0.0,0.0,0.0,0.0,0.0,0.0,0.0,0.0,1.0513,0.7409,0.3393,-0.1269,-0.6634,-1.0826,-1.4658,-1.8248,-1.9943,-1.9876,-1.7708,-1.6299,-1.4471,-1.2034,-1.1587,-1.4192,-2.017,-2.7268,-3.2269,-3.5022,-3.7086,-3.7743,-3.7098,-3.5903,-3.514,-3.4712,-3.3538,-3.3404,-3.3871,-3.0606,-2.8428,-2.6759,-2.2439,-1.9826,0.0,0.0,0.0,0.0,0.0,0.0,0.0,0.0,0.0,0.0,0.0,0.0,0.0,0.0,0.0,0.0,0.0,0.0,0.0,0.0,0.0,0.0,0.0,0.0,0.0,0.0,0.0,0.0,0.0,0.0,0.0,0.0,0.0,0.0,0.0,0.0,0.0,-4.4892,-4.7373,0.0,-4.4967,-4.5656,-4.6296,-4.6323,-4.8797,-5.0731,-5.1805,-5.2684,-5.3493,-5.4261,-5.3478,-5.3119,-5.326,-5.1279,-5.0389,-5.054,-4.9484,-4.8886,-4.8743,-4.8786,-4.8798,-4.8779,-4.8162,-4.8137,-4.8427,-4.7511,-4.7338,-4.7591,-4.6939,-4.6089,-4.5254,-4.5394,-4.4892,-4.4119,0.0,0.0,0.0,0.0,0.0,0.0,0.0,0.0,0.8526,0.5116,0.0998,-0.3765,-0.934,-1.3639,-1.753,-2.1089,-2.2813,-2.2723,-2.0435,-1.9022,-1.728,-1.504,-1.6033,-1.9694,-2.6217,-3.0389,-3.3459,-3.548,-3.5745,-3.5418,-3.4429,-3.344,-3.2754,-3.2335,-3.1951,-3.2169,-3.2841,-3.2768,-3.165,-2.9792,-2.7895,-2.6239,-2.4721,0.0,0.0,0.0,0.0,0.0,0.0,0.0,0.0,0.0,0.0,0.0,0.0,0.0,0.0,0.0,0.0,0.0,0.0,0.0,0.0,0.0,0.0,0.0,0.0,0.0,0.0,0.0,0.0,0.0,0.0,0.0,0.0,0.0,0.0,0.0,-4.6531,-4.5292,-4.8483,-4.9738,-4.6985,-4.8532,-4.9694,-4.966,-5.2002,-5.3385,-5.3335,-5.4123,-5.4254,-5.3624,-5.251,-5.1645,-5.1068,-4.9123,-4.8221,-4.8333,-4.7598,-4.7162,-4.7028,-4.7357,-4.7354,-4.7057,-4.667,-4.6755,-4.7015,-4.5678,-4.5256,-4.5526,-4.6083,-4.5623,-4.4651,-4.4967,-4.4291,-4.3077,0.0,0.0,0.0,0.0,0.0,0.0,0.0,0.8318,0.5655,0.2702,-0.1493,-0.6096,-1.0972,-1.5694,-1.9728,-2.2726,-2.4955,-2.5268,-2.3111,-2.1931,-2.0184,-1.7611,-2.1619,-2.5781,-2.9868,-3.2475,-3.4517,-3.604,-3.4642,-3.311,-3.1469,-3.1376,-3.0842,-2.9972,-3.053,-3.0876,-3.1179,-3.2434,-3.3095,-3.3205,-3.2031,-3.211,-3.2763,0.0,0.0,0.0,0.0,0.0,0.0,0.0,0.0,0.0,0.0,0.0,0.0,0.0,0.0,0.0,0.0,0.0,0.0,0.0,0.0,0.0,0.0,0.0,0.0,0.0,0.0,0.0,0.0,0.0,0.0,0.0,0.0,0.0,-4.0951,-4.4944,-4.7277,-4.5653,-4.9354,-5.1041,-4.8618,-5.0842,-5.2159,-5.136,-5.2699,-5.3176,-5.2341,-5.2767,-5.26,-5.1678,-5.0144,-4.9298,-4.924,-4.6835,-4.568,-4.5761,-4.5082,-4.437,-4.3645,-4.4524,-4.4445,-4.3661,-4.4377,-4.4597,-4.4385,-4.3066,-4.2307,-4.2196,-4.4281,-4.4369,-4.3332,-4.3369,-4.2611,-4.1179,0.0,0.0,0.0,0.0,0.0,0.0,0.0,0.7133,0.4528,0.2344,-0.1854,-0.6082,-0.9599,-1.2513,-1.528,-1.7982,-1.877,-1.8561,-1.7357,-1.7316,-1.7557,-1.8005,-2.2768,-2.6445,-2.8723,-3.1743,-3.3002,-3.2424,-3.1504,-3.0081,-2.8192,-2.7793,-2.7279,-2.6788,-2.741,-2.8072,-2.8779,-2.9612,-3.0225,-3.0703,-3.1867,-3.2402,-3.2414,0.0,0.0,0.0,0.0,0.0,0.0,0.0,0.0,0.0,0.0,0.0,0.0,0.0,0.0,0.0,0.0,0.0,0.0,0.0,0.0,0.0,0.0,0.0,0.0,0.0,0.0,0.0,0.0,0.0,0.0,0.0,0.0,-4.3067,-4.4124,-4.7223,-4.9365,-4.9299,-5.0908,-5.1584,-5.0565,-5.1194,-5.1516,-5.1179,-5.1575,-5.1345,-5.0149,-5.0782,-5.0294,-4.8241,-4.7761,-4.6934,-4.5701,-4.4515,-4.3647,-4.3151,-4.3639,-4.3148,-4.183,-4.2728,-4.2646,-4.1816,-4.1879,-4.1849,-4.171,-4.0957,-4.0138,-3.9564,-4.1679,-4.1484,-4.0084,-4.0671,-3.9577,-3.7596,0.0,0.0,0.0,0.0,0.0,0.0,0.0,0.6354,0.3895,0.2167,-0.1094,-0.4228,-0.6712,-0.8899,-1.084,-1.2493,-1.3082,-1.3145,-1.2654,-1.4064,-1.5935,-1.8289,-2.2731,-2.6162,-2.833,-3.0186,-3.0697,-2.9826,-2.8494,-2.7165,-2.5843,-2.5476,-2.5083,-2.4735,-2.5419,-2.6075,-2.6729,-2.7623,-2.816,-2.8626,-3.0696,-3.1504,-3.1587,-3.2084,-3.2282,-3.245,-3.4152,-3.4234,-3.3646,-3.4067,0.0,0.0,0.0,0.0,0.0,0.0,0.0,0.0,0.0,0.0,0.0,0.0,0.0,0.0,0.0,0.0,0.0,0.0,0.0,0.0,0.0,0.0,0.0,0.0,-4.2189,-4.4599,-4.6037,-4.8011,-4.9273,-4.9239,-4.9664,-4.9945,-5.0028,-5.0001,-4.9776,-4.9315,-4.958,-4.9139,-4.7654,-4.8081,-4.7375,-4.5189,-4.4823,-4.4034,-4.2706,-4.1674,-4.1108,-4.1014,-4.0948,-4.0418,-3.9527,-4.0034,-3.977,0.0,-3.9477,-3.9661,-3.9522,-3.8918,-3.8128,0.0,0.0,0.0,0.0,0.0,-3.6648,-3.4759,0.0,0.0,0.0,0.0,0.0,0.0,0.0,0.5903,0.3783,0.2248,0.0478,-0.1252,-0.2849,-0.4804,-0.6146,-0.6574,-0.7577,-0.8454,-0.8955,-1.18,-1.4972,-1.8226,-2.1976,-2.5261,-2.8016,-2.8223,-2.8149,-2.7765,-2.5695,-2.4441,-2.3927,-2.3738,-2.3431,-2.3134,-2.3856,-2.439,-2.4783,-2.5932,-2.6549,-2.6945,-2.8709,-2.9868,-3.0549,-3.1055,-3.2063,-3.321,-3.3382,-3.4057,-3.4871,-3.5124,0.0,0.0,0.0,0.0,0.0,0.0,0.0,0.0,0.0,0.0,0.0,0.0,0.0,0.0,0.0,0.0,0.0,0.0,0.0,0.0,0.0,0.0,0.0,0.0,-4.4015,-4.5588,-4.6561,-4.7315,-4.7535,-4.6911,-4.6856,-4.7076,-4.77,-4.7582,-4.7121,-4.6296,-4.6702,-4.6282,-4.4685,0.0,0.0,0.0,0.0,-4.0982,-4.0079,-3.8806,-3.8402,-3.8907,-3.7727,-3.7048,-3.6852,-3.6947,-3.6434,-3.558,-3.6996,-3.7541,-3.7376,-3.6746,-3.6036,-3.5465,-3.6626,-3.6556,-3.5729,-3.4954,-3.3776,-3.2432,0.0,0.0,0.0,0.0,0.0,0.0,0.0,0.5952,0.442,0.3734,0.2611,0.1421,0.0442,0.0273,-0.0108,-0.1021,-0.1448,-0.3154,-0.6671,-1.0208,-1.363,-1.6868,-2.142,-2.4418,-2.5494,-2.699,-2.6927,-2.5222,-2.363,-2.221,-2.1001,-2.0498,-2.0183,-2.0094,-2.0816,-2.158,-2.243,-2.3201,-2.4307,-2.5592,-2.6356,-2.7956,-2.9876,-3.0678,-3.1349,-3.2042,-3.3389,-3.4168,-3.4594,-3.5154,-3.5596,-3.5906,-3.5991,-3.622,0.0,0.0,0.0,0.0,0.0,0.0,0.0,0.0,0.0,0.0,0.0,0.0,0.0,0.0,0.0,0.0,0.0,0.0,0.0,-4.2758,-4.4646,-4.5544,-4.4362,-4.4323,-4.4599,-4.5112,-4.5168,-4.4984,-4.447,-4.3818,-4.3262,-4.2875,-4.2378,-4.1529,-4.0272,-4.0883,0.0,-3.8814,-3.9306,-3.8895,-3.7448,-3.7304,-3.6626,-3.5383,0.0,0.0,-3.4176,-3.4768,-3.4544,-3.3706,-3.3858,-3.3921,-3.3853,-3.3456,-3.3012,-3.2579,-3.2613,-3.2773,-3.2863,-3.1805,-3.1053,-3.0422,0.0,0.0,0.0,0.0,0.0,0.0,0.0,0.6988,0.6004,0.5578,0.5142,0.4607,0.4079,0.4308,0.4417,0.4044,0.2392,0.0,-0.3363,-0.7211,-1.093,-1.4444,-1.8906,-2.1768,-2.278,-2.4469,-2.4425,-2.2538,-2.1554,-2.0338,-1.9016,-1.8987,-1.8607,-1.8007,-1.8988,-2.0055,-2.1147,-2.1804,-2.3115,-2.4814,-2.5377,-2.6465,-2.7972,-2.944,-3.0709,-3.1827,-3.2672,-3.3439,-3.4145,-3.4921,-3.5272,-3.563,-3.6702,-3.6982,-3.6986,0.0,0.0,0.0,0.0,0.0,0.0,0.0,0.0,0.0,0.0,0.0,0.0,0.0,0.0,-3.8079,0.0,0.0,-4.2771,-4.2793,-4.3763,-4.3902,-4.1977,-4.1147,-4.128,-4.2729,-4.2543,-4.2139,-4.1735,-4.1088,-4.0481,-3.9944,-3.9277,-3.8459,-3.7449,-3.7412,-3.692,-3.5774,-3.6205,-3.6116,-3.5403,-3.5179,-3.4817,-3.4351,-3.4075,-3.3507,-3.2709,-3.2589,-3.2292,-3.1856,-3.2124,-3.218,-3.2019,-3.1655,-3.1222,-3.0748,-3.0356,-3.0775,-3.1482,-3.0558,-2.9832,-2.9132,0.0,0.0,0.0,0.0,0.0,0.0,0.0,0.8175,0.7604,0.7305,0.7459,0.7564,0.7318,0.7576,0.7687,0.7653,0.4908,0.2075,-0.0438,-0.4042,-0.7646,-1.1125,-1.4328,-1.6808,-1.8502,-1.972,-1.9993,-1.9263,-1.9081,-1.8477,-1.7495,-1.7803,-1.7432,-1.6508,-1.7567,-1.8841,-2.0196,-2.0725,-2.2143,-2.4024,-2.4405,-2.4995,-2.5801,-2.747,-2.9484,-3.1425,-3.1624,-3.2421,-3.3577,-3.4345,-3.4508,-3.4703,-3.6818,-3.6952,-3.66,-3.8142,-3.786,0.0,0.0,0.0,0.0,0.0,0.0,0.0,0.0,0.0,-3.8124,-3.9023,-3.9578,-4.001,-4.0481,-4.1877,-4.2766,-4.22,-4.2279,-4.1651,-3.9473,-3.8316,-3.8178,-3.9513,-3.9301,-3.8967,-3.8852,-3.8464,-3.7822,-3.6904,-3.6502,-3.5938,-3.5117,-3.4459,-3.3882,-3.3393,-3.3481,-3.3541,-3.3547,-3.306,-3.3073,-3.3557,-3.2264,-3.1676,-3.1699,-3.0909,-3.0524,-3.0518,-3.1041,-3.1087,-3.0825,-3.0484,-3.0051,-2.9507,-2.9022,-2.9432,-3.024,-2.9804,-2.9012,-2.8107,0.0,0.0,0.0,0.0,0.0,0.0,0.0,0.0,0.8548,0.861,0.8945,0.919,0.9361,0.9761,0.9393,0.7823,0.6168,0.3863,0.0709,-0.192,-0.4275,-0.6365,-0.6474,-0.7711,-1.043,-1.0495,-1.1831,-1.4573,-1.5566,-1.6189,-1.6362,-1.5818,-1.5578,-1.5544,-1.5888,-1.7136,-1.9003,-1.8936,-2.0452,-2.2831,-2.225,-2.2907,-2.4221,-2.443,-2.6651,-2.9788,-3.0565,-3.1543,-3.2551,-3.3337,-3.3347,-3.3335,-3.4585,-3.5397,-3.5915,-3.6049,-3.6483,-3.6543,-3.4878,-3.346,-3.2829,-3.4319,-3.507,-3.6413,0.0,0.0,-4.1555,-4.2345,-4.2624,-4.2642,-4.2384,-4.2577,-4.2263,-4.0638,-4.0599,-3.977,-3.6916,-3.6524,-3.6023,-3.4773,-3.5436,-3.5756,-3.5162,-3.4999,-3.4422,-3.318,-3.3327,-3.3168,-3.2539,-3.2427,-3.2352,-3.2278,-3.252,-3.2281,-3.1521,-3.1744,-3.1544,-3.0926,-3.0801,-3.0749,-3.0754,-3.052,-3.0413,-3.0409,-3.018,-2.9866,-2.9506,-2.9444,-2.9163,-2.8703,-2.8344,-2.7996,-2.7762,-2.8156,-2.7752,-2.6927,0.0,0.0,0.0,0.0,0.0,0.0,0.0,0.0,0.0,1.076,1.1218,1.1478,1.1564,1.1276,1.0559,0.9252,0.7524,0.5561,0.3377,0.1511,-0.0212,-0.18,-0.2444,-0.3125,-0.3946,-0.4334,-0.5929,-0.8802,-0.9486,-1.0835,-1.2762,-1.3615,-1.3574,-1.2967,-1.4308,-1.5764,-1.718,-1.8198,-1.9738,-2.1535,-2.1541,-2.1694,-2.1966,-2.2686,-2.3702,-2.5001,-2.7283,-2.8801,0.0,-3.0168,-3.0217,-3.0337,-3.1565,-3.2525,-3.3247,-3.3654,-3.4395,-3.4814,-3.3575,-3.3125,-3.3345,-3.479,-3.6174,-3.7777,-4.0266,-4.094,-4.1266,-4.2094,-4.2189,-4.2091,-4.1847,-4.1236,-4.0217,0.0,-3.7434,-3.6114,-3.375,-3.302,-3.2388,-3.1458,-3.115,-3.1393,-3.2314,-3.1941,-3.1466,-3.098,-3.0628,-3.0441,-3.046,-3.0207,-3.0042,-2.9945,-3.0426,-3.0471,-3.0039,-3.0367,-3.0138,-2.9331,-2.9353,-2.914,-2.8728,-2.86,-2.8859,-2.9402,-2.9131,-2.912,-2.9237,-2.9107,-2.8694,-2.8055,-2.7901,-2.7542,-2.7019,-2.7255,-2.6905,-2.6212,0.0,0.0,0.0,0.0,0.0,0.0,0.0,0.0,0.0,0.0,1.286,1.3158,1.3214,1.2579,1.1816,1.0918,0.9203,0.7568,0.619,0.4927,0.3824,0.294,0.265,0.2558,0.2685,0.2283,0.0782,-0.1859,-0.2632,-0.4212,-0.6578,-0.7645,-0.7645,-0.6769,-0.8282,-0.9456,-1.0467,-1.3636,-1.5723,-1.7113,-1.9088,-1.9698,-1.9432,-2.0065,-1.9008,-1.7897,-2.3378,-2.442,-2.3227,-2.3425,-2.3105,-2.291,-2.453,-2.6782,-2.9012,-3.0094,-3.1128,-3.182,-3.1356,-3.1964,-3.3028,-3.4447,-3.6205,-3.7878,-3.9135,-3.9636,-3.9972,-4.0667,-4.0314,-4.0002,-4.0151,-3.8807,-3.7137,-3.5548,-3.4126,-3.2579,-3.068,-2.9746,-2.9072,-2.8561,-2.7539,-2.7235,-2.8151,-2.8708,-2.8853,-2.8406,-2.8377,-2.8421,-2.8553,-2.837,-2.8183,-2.8111,-2.8414,-2.8577,-2.8587,-2.8688,-2.8519,-2.806,-2.7934,-2.7643,-2.7258,-2.7148,-2.7495,-2.8183,-2.7958,-2.8032,-2.8261,-2.8054,-2.7538,-2.6889,-2.6951,-2.6502,-2.5816,-2.5796,-2.5702,-2.5383,0.0,0.0,0.0,0.0,0.0,0.0,0.0,0.0,0.0,0.0,0.0,0.0,0.0,1.379,1.3331,1.2503,1.1385,1.007,0.8667,0.7907,0.757,0.7881,1.0403,1.124,1.0011,1.0521,0.941,0.6531,0.4704,0.3491,0.2909,0.3894,0.4351,0.4316,0.4598,0.4421,0.3539,-0.3078,-0.6471,-0.7928,-1.3588,-1.6223,-1.6607,-1.5685,-1.1751,-0.8175,-1.9083,-1.8218,-1.1885,-1.184,-1.0501,-0.9305,-1.1635,-1.7012,-2.2867,-2.483,-2.6276,-2.7382,-2.8114,-2.9593,-3.131,-3.3099,-3.4707,-3.6058,-3.6816,-3.7661,-3.833,-3.8485,-3.734,-3.6525,-3.7465,-3.5224,-3.3001,-3.2183,-3.1001,-2.9665,-2.7936,-2.7241,-2.6596,-2.5817,-2.5045,-2.3793,0.0,-2.5098,-2.674,-2.4894,-2.6599,-2.7417,-2.6732,-2.7099,-2.7335,-2.7317,-2.6841,-2.6728,-2.6979,-2.653,-2.652,-2.6951,-2.6485,-2.6505,-2.6895,-2.6841,-2.686,-2.6954,-2.6667,-2.6352,-2.5973,-2.5707,-2.5267,-2.4812,-2.5086,-2.4448,-2.3409,-2.3271,-2.3759,-2.4241,0.0,0.0,0.0,0.0,0.0,0.0,0.0,0.0,0.0,0.0,0.0,0.0,0.0,0.0,0.0,0.0,1.2235,1.1367,1.0735,1.0178,1.0219,1.0995,1.2528,1.3909,1.5051,1.6063,1.528,1.2612,1.1962,1.0269,0.7599,0.7252,0.7691,0.8766,0.8189,0.8256,0.8591,0.5651,0.4028,0.3219,0.095,-0.0086,-0.0319,-0.0502,0.0475,0.1251,0.0,-0.5165,-0.4342,-0.5473,-0.6793,-0.8338,-1.0526,-1.4067,-1.7955,-2.0634,-2.246,-2.3919,-2.5379,-2.6946,-2.8794,-3.1271,-3.259,-3.3377,-3.4003,-3.4196,-3.4323,-3.4692,-3.2967,-3.1629,-3.2337,-3.0085,-2.7767,-2.6658,-2.5431,-2.4461,-2.397,-2.2761,-2.2085,-2.2464,-2.1478,0.0,0.0,0.0,0.0,-2.1544,-2.2483,-2.3349,-2.399,-2.473,-2.4859,-2.4273,-2.4463,-2.4344,-2.3831,-2.4431,-2.4284,-2.3392,-2.2685,-2.2773,-2.3567,-2.356,-2.4234,-2.5379,-2.5274,-2.5141,-2.4943,-2.4545,-2.3927,-2.3155,-2.2509,-2.1843,-2.1102,-1.9793,-1.9322,-1.9418,0.0,0.0,0.0,0.0,0.0,0.0,0.0,0.0,0.0,0.0,0.0,0.0,0.0,0.0,0.0,0.0,0.0,1.2785,1.2814,1.2429,1.2638,1.3611,1.4562,1.5992,1.8077,1.9095,1.9112,1.8069,1.7889,1.6676,1.4477,1.4453,1.5074,1.6178,1.6449,1.7068,1.7734,1.4643,1.3109,1.2564,1.0144,0.9005,0.8651,0.8145,0.891,0.0,0.7289,0.6072,0.5216,0.1993,-0.0458,-0.2568,-0.4966,-0.9336,-1.4126,-1.6977,-1.8975,-2.0781,-2.3055,-2.5099,-2.7191,-2.9681,-3.0516,-3.082,-3.118,-3.0952,-3.0657,-3.0582,-2.8599,-2.6931,-2.6983,-2.4938,-2.2752,-2.1231,-2.0719,-2.0368,-1.981,-1.8882,-1.8582,-1.9397,-1.8575,-1.7509,0.0,0.0,0.0,-1.8549,-1.9497,-2.0223,-2.0756,-2.1609,-2.1643,-2.077,-2.0863,-2.0641,-2.0055,-2.0538,-2.0273,-1.9241,-1.9235,-1.9496,-2.0017,-2.042,-2.1168,-2.2119,-2.2027,-2.1882,-2.1633,-2.1129,-2.0553,-1.9865,-1.9168,-1.8464,-1.7708,-1.6268,-1.5255,-1.4956,0.0,0.0,0.0,0.0,0.0,0.0,0.0,0.0,0.0,0.0,0.0,0.0,0.0,0.0,0.0,0.0,0.0,0.0,1.4831,1.4626,1.4892,1.5961,1.6628,1.7781,1.9406,2.0058,2.1203,2.2893,2.2461,2.254,2.316,2.4943,2.5866,2.6119,2.8522,3.0002,3.0258,2.3757,2.0904,2.0194,1.4602,1.18,1.0975,1.093,1.3885,1.764,1.4351,1.4669,1.5787,1.0112,0.789,0.6997,0.4077,-0.33,-1.1317,-1.3855,-1.5829,-1.7977,-2.1194,-2.3899,-2.6267,-2.8075,-2.8427,-2.8309,-2.8293,-2.785,-2.713,-2.6068,-2.41,-2.225,0.0,0.0,-1.7912,-1.5949,-1.6732,-1.7089,-1.5556,-1.5622,-1.5956,0.0,0.0,0.0,0.0,0.0,0.0,-1.5703,0.0,-1.795,-1.7123,-1.78,-1.7783,-1.6797,-1.6066,-1.5671,-1.5574,-1.4911,-1.463,-1.4648,-1.6009,-1.6507,-1.6294,-1.7421,-1.7784,-1.744,-1.7197,-1.6773,-1.6282,-1.5756,-1.5315,-1.4988,-1.5048,-1.4383,-1.3281,-1.259,-1.1643,-1.0976,0.0,0.0,0.0,0.0,0.0,0.0,0.0,0.0,0.0,0.0,0.0,0.0,0.0,0.0,0.0,0.0,0.0,0.0,1.5703,1.5546,1.6361,1.8382,1.8456,1.9754,2.2591,2.2836,2.3799,2.554,2.5607,2.5864,2.6249,2.6689,2.7606,2.8869,2.9429,3.0405,3.1534,2.9993,2.9086,2.8559,2.7251,2.5774,2.4288,2.3493,2.2623,2.1377,1.7949,1.5437,1.3236,1.0245,0.5649,0.0705,-0.225,-0.567,-0.9196,-1.2062,-1.4082,-1.6038,-1.9053,-2.0873,-2.2352,-2.4267,-2.4582,-2.4371,-2.3802,-2.2472,-2.0953,-1.966,-1.6557,-1.387,0.0,0.0,0.0,-0.9349,-1.0101,0.0,-1.0934,-1.0887,0.0,-1.1926,0.0,-1.1421,-1.0128,-1.048,0.0,0.0,-1.2182,-1.3312,-1.2964,-1.3173,-1.2633,-1.1072,-1.0399,-0.9933,-0.9588,-0.9415,-0.9509,-0.9863,-1.0512,-1.1067,-1.1591,-1.2765,-1.3602,-1.4028,-1.3982,-1.3357,-1.2387,-1.195,-1.1287,-1.0463,-0.9801,-0.921,-0.865,-0.8082,-0.7488,-0.7057,0.0,0.0,0.0,0.0,0.0,0.0,0.0,0.0,0.0,0.0,0.0,0.0,0.0,0.0,0.0,0.0,0.0,0.0,0.0,1.7309,1.8201,2.0334,2.0508,2.1622,2.3895,2.3948,2.4642,2.6072,2.5853,2.6,2.6516,2.735,2.8164,2.9018,2.9899,3.0613,3.1134,3.1323,3.0937,0.0,0.0,2.959,2.8192,2.6649,2.4573,2.2048,1.81,1.3626,0.9171,0.721,0.2775,-0.24,-0.4866,-0.6855,-0.8792,-1.1326,-1.3119,-1.4869,-1.7522,-1.8969,-2.0086,-2.1243,-2.1263,-2.068,-1.9233,-1.7401,-1.5436,-1.3394,-1.0509,0.0,-0.6517,0.0,0.0,0.0,0.0,0.0,-0.6667,-0.6737,-0.703,0.0,-0.7937,0.0,-0.705,-0.7725,-0.7651,0.0,-0.8608,-0.9649,-0.8748,-0.8487,-0.7591,-0.5905,-0.5437,-0.5043,-0.4647,-0.4643,-0.4747,-0.4952,-0.5595,-0.6077,-0.6476,-0.7532,-0.8126,-0.8278,0.0,-0.7855,-0.7073,-0.6953,-0.6392,-0.5613,-0.519,-0.4658,-0.4089,-0.3856,-0.3565,-0.3318,0.0,0.0,0.0,0.0,0.0,0.0,0.0,0.0,0.0,0.0,0.0,0.0,0.0,0.0,0.0,0.0,0.0,0.0,0.0,0.0,2.0106,2.1852,2.2392,2.3234,2.4382,2.4367,2.4789,2.5725,2.4995,2.4973,2.5589,2.7317,2.7976,2.7805,2.9689,3.0137,2.9555,2.9624,2.9033,2.802,2.802,2.7363,2.6195,0.0,2.2585,2.0627,1.6225,1.084,0.5497,0.3515,0.0261,-0.3231,-0.5222,-0.721,-0.9149,-1.0953,-1.2439,-1.3901,-1.5946,-1.7263,-1.8092,-1.836,-1.7809,-1.6661,-1.4508,-1.239,-1.012,-0.7315,0.0,-0.323,-0.1078,-0.1705,-0.1773,0.0667,0.0,-0.3637,-0.2436,-0.2723,-0.313,-0.3588,-0.3894,-0.4104,-0.4225,-0.4729,-0.4599,-0.3722,-0.5262,-0.576,-0.4599,-0.3856,-0.2686,-0.101,-0.0687,-0.0333,0.0,-0.0054,0.0,0.0161,-0.09,-0.1318,-0.1218,-0.2191,-0.2291,-0.1681,0.0,0.0,-0.1217,-0.1442,-0.123,-0.0694,-0.0915,-0.0486,0.027,0.0105,0.0101,0.0099,0.0,0.0,0.0,0.0,0.0,0.0,0.0,0.0,0.0,0.0,1.8169,1.8403,0.0,0.0,0.0,0.0,0.0,0.0,0.0,0.0,0.0,2.3105,2.3155,2.4014,2.6058,2.6058,2.6287,2.6798,2.6693,2.6668,2.6786,2.7161,2.7285,2.7206,2.7391,2.7403,2.7255,2.7327,2.6698,2.5626,2.5816,2.4682,2.271,2.2035,0.0,0.0,1.3939,1.0225,0.6965,0.4422,0.0943,-0.2782,-0.4773,-0.6771,-0.8622,-0.9662,-1.096,-1.2254,-1.3262,-1.3518,-1.362,-1.4258,-1.2798,-1.0856,-0.9555,-0.7152,0.0,0.0,0.0204,0.1762,0.4242,0.3639,0.3144,0.4396,0.0,0.0,0.0,0.0,0.1353,0.0,0.0,0.0,0.0,0.0,0.0,0.0,0.0,0.1052,-0.0395,0.0561,0.2258,0.4441,0.5311,0.5788,0.5947,0.5411,0.5309,0.5624,0.3993,0.3348,0.3568,0.2416,0.2188,0.2658,0.225,0.0,0.347,0.3016,0.314,0.3695,0.3647,0.3761,0.386,0.3574,0.3254,0.2952,0.0,0.0,0.0,0.0,0.0,0.0,0.0,1.8019,1.8268,1.8797,1.9323,1.9585,1.9282,1.9382,1.9286,0.0,0.0,0.0,0.0,0.0,0.0,0.0,0.0,0.0,2.5892,2.561,0.0,0.0,0.0,2.5597,2.5597,2.6083,2.6187,2.5986,2.604,2.5823,2.5425,2.5079,2.4617,2.3968,2.3646,2.2555,2.1003,0.0,0.0,0.0,0.0,1.1242,0.8985,0.6844,0.3975,0.0657,-0.2812,-0.5377,-0.6968,-0.6981,-0.8043,-0.9136,-0.8645,-0.8988,-0.9334,-0.8427,-0.7377,-0.584,-0.3257,0.0,0.0,0.0,0.4906,0.5552,0.6725,0.5752,0.0,0.5229,0.0,0.0,0.0,0.0,0.0,0.0,0.0,0.0,0.0,0.0,0.0,0.0,0.0,0.5055,0.2641,0.4488,0.6307,0.7816,0.8096,0.828,0.8365,0.809,0.8212,0.8678,0.783,0.7612,0.7909,0.7307,0.7106,0.7084,0.6607,0.0,0.713,0.6187,0.6401,0.7197,0.6534,0.6518,0.6837,0.6175,0.5661,0.5237,0.0,0.0,0.0,0.0,0.0,0.0,0.0,1.8347,1.8674,1.9365,2.0074,2.0422,2.0193,2.0586,2.0725,0.0,0.0,0.0,0.0,0.0,0.0,0.0,0.0,0.0,0.0,0.0,0.0,0.0,0.0,0.0,0.0,0.0,0.0,0.0,0.0,2.4587,2.3877,2.3263,2.276,0.0,0.0,2.0809,0.0,0.0,0.0,0.0,0.0,1.2583,1.0982,0.9288,0.7326,0.4969,0.0885,-0.2268,-0.4301,-0.3556,-0.4449,-0.5319,-0.3931,-0.4395,-0.483,-0.2792,-0.1871,-0.0573,0.2767,0.4495,0.0,0.8296,0.8507,0.8394,0.8554,0.7367,0.6265,0.0,0.6147,0.6049,0.0,0.0,0.0,0.0,0.0,0.0,0.0,0.0,0.0,0.0,0.0,0.0,0.5904,0.8036,0.9518,1.0013,1.003,1.0043,1.0014,1.0135,1.0401,1.0879,1.0725,1.0911,1.1376,1.1376,1.124,1.1048,1.0566,0.0,0.0,0.8923,0.8996,0.9768,0.859,0.8533,0.9041,0.8162,0.7565,0.7147,0.0,0.0,0.0,0.0,0.0,0.0,0.0,1.8008,1.8269,1.8977,1.9814,2.0665,2.1493,2.1978,2.2263,0.0,0.0,0.0,0.0,0.0,0.0,0.0,0.0,0.0,0.0,0.0,0.0,0.0,0.0,0.0,0.0,0.0,0.0,0.0,0.0,0.0,0.0,2.2226,0.0,0.0,0.0,0.0,0.0,0.0,0.0,0.0,0.0,0.0,1.2412,1.0656,0.0,0.8852,0.7385,0.3736,0.0068,0.0465,0.0,0.0,-0.0591,-0.0065,0.0455,0.1132,0.3477,0.5905,0.7177,0.0,0.9706,1.0882,1.0347,1.003,1.1066,1.012,0.9448,1.0338,0.9523,0.9285,0.0,0.0,0.0,0.0,0.0,0.0,0.0,0.0,0.0,0.0,0.0,0.0,1.0446,1.1304,1.161,1.1057,1.2364,1.2856,1.2382,1.2734,1.2987,1.3023,1.2523,1.2578,1.3176,1.3176,1.3432,1.3891,1.338,0.0,0.0,1.1574,1.1015,1.1042,1.0157,0.9802,0.9839,0.9475,0.9015,0.8578,0.0,0.0,0.0,0.0,0.0,0.0,1.8202,1.8241,1.8481,1.8936,1.9566,2.0459,2.1587,2.2332,2.2673,2.2388,0.0,0.0,0.0,0.0,0.0,0.0,0.0,0.0,0.0,0.0,0.0,0.0,0.0,0.0,0.0,0.0,0.0,0.0,0.0,0.0,0.0,0.0,0.0,0.0,0.0,0.0,0.0,0.0,0.0,0.0,0.0,0.0,1.3547,0.0,0.0,0.0,1.0244,0.8855,0.0,0.0,0.4613,0.3818,0.4839,0.5186,0.5518,0.6671,0.8042,0.9444,1.0748,0.0,1.1927,1.2365,1.1875,1.1365,1.1272,1.0353,0.9703,1.0179,1.0354,0.0,1.1862,0.0,0.0,0.0,0.0,0.0,0.0,0.0,0.0,0.0,0.0,0.0,1.4007,1.3822,1.3626,1.3472,1.4438,1.4704,1.4163,1.4604,1.5017,1.5295,1.4742,1.4742,1.5201,1.4881,1.4717,1.4686,1.4194,0.0,0.0,1.2358,1.2032,1.2118,1.1254,1.0898,1.0874,1.0493,0.9897,0.926,0.0,0.0,0.0,0.0,0.0,1.8549,1.8596,1.8709,1.8996,1.9705,2.022,2.1003,2.218,2.2914,2.3198,2.285,2.2571,0.0,0.0,0.0,0.0,0.0,0.0,0.0,0.0,0.0,2.443,2.4863,2.472,0.0,0.0,0.0,0.0,0.0,0.0,0.0,0.0,0.0,0.0,0.0,0.0,0.0,0.0,0.0,0.0,0.0,0.0,0.0,0.0,0.0,0.0,1.2946,1.2676,1.2627,1.2211,0.9829,0.8598,0.8232,0.9355,0.9585,0.9939,1.1722,1.2166,1.2495,0.0,0.0,1.3894,1.3688,1.321,1.2621,1.182,1.1033,1.0477,1.05,1.136,1.2257,1.2843,1.4095,0.0,0.0,0.0,0.0,0.0,0.0,0.0,0.0,0.0,0.0,0.0,1.5667,1.5185,1.479,1.5323,1.5449,1.511,1.5631,1.6049,1.6442,1.6049,1.6111,1.6524,1.618,1.5869,1.5581,0.0,0.0,0.0,1.317,1.2876,1.2976,1.1927,1.1524,1.146,1.1068,1.0524,1.0011,0.0,0.0,0.0,0.0,0.0,0.0,1.9243,1.9299,1.9814,2.1365,2.2115,2.2767,2.359,2.4065,2.4215,2.402,2.3361,0.0,0.0,0.0,0.0,0.0,0.0,0.0,0.0,0.0,2.4521,2.5099,2.4134,2.4544,2.6036,0.0,0.0,0.0,0.0,0.0,0.0,0.0,0.0,0.0,0.0,0.0,0.0,0.0,0.0,0.0,0.0,0.0,0.0,0.0,0.0,0.0,0.0,1.4854,1.4133,1.1796,1.1313,1.1691,1.2296,1.2649,1.3434,1.5977,1.5948,1.5595,1.7051,1.6667,1.5705,1.489,1.4488,1.4014,1.3264,1.2827,1.2526,1.2305,1.3152,1.3841,1.4151,0.0,0.0,0.0,0.0,0.0,0.0,0.0,0.0,0.0,0.0,0.0,0.0,1.6919,1.6081,1.4337,1.4784,1.5072,1.5196,1.5592,1.5884,1.6025,1.6014,1.6327,1.6886,1.6886,1.6907,0.0,0.0,0.0,0.0,1.4441,1.3801,1.3627,1.2117,1.1553,1.1542,1.1067,1.0954,1.0905,0.0,0.0,0.0,0.0,0.0,0.0,0.0,2.0068,2.0784,2.1506,2.2071,2.2447,2.2574,2.3475,2.3705,2.2948,2.3808,0.0,0.0,0.0,0.0,0.0,0.0,0.0,0.0,0.0,2.435,2.4575,2.4384,2.4316,2.4333,2.3573,2.3124,0.0,0.0,0.0,0.0,0.0,0.0,0.0,0.0,0.0,0.0,0.0,0.0,0.0,0.0,0.0,0.0,0.0,0.0,0.0,0.0,0.0,0.0,1.4367,1.4034,1.3772,1.4513,1.5121,1.5939,1.7185,1.748,1.7673,1.8585,1.8163,1.7254,1.5928,1.536,1.4649,1.3194,1.2757,1.2885,1.3675,1.4062,1.4859,0.0,0.0,0.0,0.0,0.0,0.0,0.0,0.0,0.0,0.0,0.0,0.0,0.0,1.7008,1.6546,1.5614,1.6444,1.6788,1.642,1.6943,1.7193,1.7242,1.6884,1.6764,1.6952,1.6578,0.0,0.0,0.0,0.0,0.0,1.47,1.4111,1.3712,1.2806,1.2318,1.2138,1.1957,1.159,1.1105,0.0,0.0,0.0,0.0,0.0,0.0,0.0,2.0973,2.157,2.2077,2.2911,2.3343,2.3098,2.4167,2.4539,2.3585,2.4966,0.0,0.0,0.0,0.0,0.0,0.0,0.0,2.461,2.4838,2.4602,2.3862,2.3943,2.3874,2.3572,2.2765,2.2436,2.2444,2.1333,0.0,0.0,0.0,0.0,0.0,0.0,0.0,1.7298,0.0,0.0,0.0,0.0,0.0,0.0,0.0,0.0,0.0,0.0,0.0,0.0,0.0,1.5821,1.5546,1.6821,1.7435,1.7989,1.9353,1.9325,0.0,1.9931,1.9327,1.8181,1.6598,1.5898,1.5067,1.3517,1.3127,1.3351,1.4271,1.503,1.6198,0.0,0.0,0.0,0.0,0.0,0.0,0.0,0.0,0.0,0.0,0.0,0.0,0.0,1.6859,1.6665,1.6331,1.6897,1.7082,1.6781,1.7115,1.7288,1.7334,1.6987,1.6826,1.6814,1.6479,0.0,0.0,0.0,0.0,0.0,1.4953,1.4569,1.4359,1.3312,1.2924,1.2878,1.2283,1.1708,1.1137,0.0,0.0,0.0,0.0,0.0,0.0,0.0,2.1815,2.2261,2.3005,2.4292,2.5039,2.4687,2.5777,2.6227,2.5405,0.0,0.0,0.0,0.0,0.0,0.0,0.0,0.0,2.3936,2.52,2.4957,2.3035,2.2868,2.2928,2.3282,2.1723,2.1846,2.3197,2.0847,1.9976,0.0,0.0,0.0,0.0,0.0,0.0,0.0,0.0,0.0,0.0,0.0,0.0,0.0,0.0,0.0,0.0,0.0,0.0,0.0,0.0,0.0,0.0,0.0,1.9315,1.9635,2.1945,2.1243,2.02,2.1152,2.0109,0.0,1.6987,1.6169,1.53,1.4034,1.3784,1.4004,1.4547,1.6173,0.0,0.0,0.0,0.0,0.0,0.0,0.0,0.0,0.0,0.0,0.0,0.0,0.0,0.0,1.6522,1.6522,1.6522,1.6362,1.6318,1.6436,1.6436,1.6479,1.6565,1.6522,1.6522,1.6565,1.6522,0.0,0.0,0.0,0.0,0.0,1.5174,1.5024,1.5309,1.3582,1.3286,1.3655,1.2162,1.1478,1.1172,0.0,0.0,0.0,0.0,0.0,0.0,0.0,0.0,0.0,0.0,2.4602,2.5179,2.4518,2.5785,2.6493,0.0,0.0,0.0,0.0,0.0,0.0,0.0,0.0,0.0,2.4047,2.3196,2.219,2.1165,2.0762,2.0176,1.9438,1.9738,2.0444,2.1531,2.143,2.142,0.0,0.0,0.0,0.0,0.0,0.0,0.0,0.0,0.0,0.0,1.533,1.5117,0.0,0.0,0.0,0.0,0.0,0.0,0.0,0.0,1.7397,1.8498,1.9805,0.0,1.9931,2.1643,2.1438,2.0951,0.0,2.0727,1.9436,1.7893,1.6551,1.5535,1.5048,1.4682,1.5034,1.6879,1.7781,0.0,0.0,0.0,0.0,0.0,0.0,0.0,0.0,0.0,0.0,0.0,0.0,0.0,0.0,1.6791,1.6791,1.6791,1.6748,1.6833,1.6989,1.7031,1.7031,1.7031,1.668,1.6693,1.7031,1.665,0.0,0.0,0.0,0.0,1.5806,1.4967,1.4547,1.435,1.3476,1.3238,1.3326,1.2948,1.2562,1.2247,0.0,0.0,0.0,0.0,0.0,0.0,0.0,0.0,0.0,0.0,0.0,0.0,0.0,0.0,0.0,0.0,0.0,0.0,0.0,0.0,0.0,0.0,0.0,2.3264,2.2489,2.2415,2.1471,1.9669,1.9941,1.9715,1.8966,1.971,2.069,2.1808,2.2261,2.213,0.0,0.0,0.0,0.0,1.8854,0.0,0.0,0.0,0.0,0.0,1.4968,1.4807,0.0,1.4528,1.4225,1.3863,0.0,0.0,0.0,0.0,1.7977,1.9099,2.0262,2.0463,2.0508,2.1461,2.1517,2.1419,2.1351,2.096,2.0074,1.8237,0.0,1.6387,1.5375,1.5294,1.592,1.7646,1.8413,0.0,0.0,0.0,0.0,0.0,0.0,0.0,0.0,0.0,0.0,0.0,0.0,0.0,0.0,1.6504,1.6504,1.6504,1.6697,1.6896,1.7073,1.7086,1.7086,1.7086,1.6778,1.6905,1.731,1.6594,1.6589,0.0,0.0,0.0,1.5647,1.4808,1.4529,1.4511,1.3687,1.3487,1.3617,1.3065,1.2642,1.2287,0.0,0.0,0.0,0.0,0.0,0.0,0.0,0.0,0.0,0.0,0.0,0.0,0.0,0.0,0.0,0.0,0.0,0.0,0.0,0.0,0.0,0.0,2.346,2.2746,2.0304,2.164,2.1046,1.8375,1.9521,1.9937,1.9525,2.0422,2.1604,2.3012,2.3134,2.2581,0.0,0.0,0.0,0.0,1.8757,0.0,0.0,0.0,0.0,0.0,0.0,0.0,0.0,1.4571,1.4294,1.4206,1.4784,0.0,0.0,0.0,0.0,0.0,2.041,2.0862,2.0989,2.1306,2.1586,2.1618,2.0873,2.0895,0.0,0.0,0.0,0.0,0.0,1.5942,0.0,0.0,0.0,0.0,0.0,0.0,0.0,0.0,0.0,0.0,0.0,0.0,0.0,0.0,0.0,0.0,0.0,1.6162,1.6189,1.6279,1.6665,1.6943,1.7031,1.7002,1.7002,1.7002,1.7002,1.7146,1.741,1.6531,1.6428,0.0,0.0,0.0,1.5415,1.4608,1.4529,1.4838,1.3864,1.374,1.3976,1.3002,1.2464,1.216,0.0,0.0,0.0,0.0,0.0,0.0,0.0,0.0,0.0,0.0,0.0,0.0,0.0,0.0,0.0,0.0,0.0,0.0,0.0,0.0,0.0,2.2097,2.1449,2.0498,1.9096,1.8894,1.832,1.729,1.7979,1.8197,1.7907,2.0062,2.2149,2.4104,2.3619,2.3462,2.3567,0.0,0.0,0.0,0.0,0.0,0.0,0.0,0.0,0.0,0.0,0.0,0.0,1.4849,1.507,1.5365,1.5224,0.0,0.0,0.0,0.0,0.0,1.962,2.0137,2.0797,2.1321,2.1643,2.1629,2.1018,2.0971,2.0666,0.0,0.0,0.0,0.0,1.7371,0.0,0.0,0.0,0.0,0.0,0.0,0.0,0.0,0.0,0.0,0.0,0.0,0.0,0.0,0.0,0.0,0.0,1.6917,1.706,1.7518,1.7572,1.7626,1.7679,1.7475,1.7393,1.7393,1.7393,1.733,1.7235,1.6728,1.6458,0.0,0.0,1.4729,1.4488,1.417,1.3918,1.3736,1.3557,1.3531,1.3595,1.3416,1.3318,1.3272,0.0,0.0,0.0,0.0,0.0,0.0,0.0,0.0,0.0,0.0,0.0,0.0,0.0,0.0,0.0,0.0,0.0,0.0,0.0,0.0,2.2556,2.1111,2.0061,1.9191,1.8381,1.8152,1.7595,1.6714,1.7787,1.8485,1.8806,2.172,2.3859,2.5294,2.4516,2.4033,2.3545,2.2359,2.1722,2.1444,0.0,0.0,0.0,0.0,0.0,0.0,0.0,0.0,0.0,0.0,1.5892,1.6244,1.65,0.0,0.0,0.0,0.0,0.0,1.8665,1.9137,1.9745,2.0215,2.0946,2.1404,2.0717,2.1363,0.0,0.0,0.0,0.0,0.0,0.0,0.0,0.0,0.0,0.0,0.0,0.0,0.0,0.0,0.0,0.0,0.0,0.0,0.0,0.0,0.0,0.0,0.0,0.0,1.6194,1.6978,1.6678,1.6725,1.7176,1.7115,1.7027,1.6916,1.6586,1.6501,1.6652,1.5935,1.582,1.6087,0.0,1.4324,1.4332,1.4033,1.3795,1.3674,1.3674,1.3628,1.3547,1.3514,1.348,1.348,0.0,0.0,0.0,0.0,0.0,0.0,0.0,0.0,0.0,0.0,0.0,0.0,0.0,0.0,0.0,0.0,0.0,0.0,0.0,2.2587,2.148,2.0155,1.9226,1.8337,1.7581,1.7586,1.7072,1.6036,1.764,1.9174,2.0619,2.3214,2.506,2.595,2.489,2.3965,2.3233,2.2456,2.1776,2.1167,0.0,0.0,0.0,0.0,0.0,0.0,0.0,0.0,0.0,0.0,0.0,0.0,0.0,0.0,0.0,1.7543,1.7461,1.7335,1.788,1.848,1.9014,1.9219,0.0,2.1269,2.0881,2.2004,0.0,0.0,0.0,0.0,0.0,0.0,0.0,0.0,0.0,0.0,0.0,0.0,0.0,0.0,0.0,0.0,0.0,0.0,0.0,0.0,0.0,0.0,0.0,0.0,1.5418,1.6302,1.5875,1.5972,1.6732,1.6521,1.6421,1.6464,1.6096,1.6027,1.6215,1.5497,1.5444,1.5826,1.4672,1.4319,1.4511,1.4222,1.4026,1.396,1.396,1.3828,1.3648,1.3594,1.3594,1.3594,0.0,0.0,0.0,0.0,0.0,0.0,0.0,0.0,0.0,0.0,0.0,0.0,0.0,0.0,0.0,0.0,0.0,0.0,0.0,2.1699,2.1098,1.9724,1.9011,1.8031,1.6453,1.6385,1.5928,1.4984,1.6905,1.961,2.2936,2.3533,2.4481,2.5727,2.3825,2.3182,2.3367,2.2217,2.1695,2.1695,2.1596,0.0,0.0,0.0,0.0,0.0,0.0,0.0,0.0,0.0,0.0,0.0,0.0,0.0,1.7608,1.7451,1.7544,1.7738,1.7604,1.8417,1.9253,1.9297,2.0339,2.1507,2.2073,2.2949,0.0,2.4001,0.0,0.0,0.0,0.0,0.0,0.0,0.0,0.0,0.0,0.0,0.0,0.0,0.0,0.0,0.0,0.0,0.0,0.0,0.0,0.0,0.0,0.0,0.0,1.636,1.6346,1.6522,1.6878,1.5957,1.5902,1.6698,1.7006,1.6888,1.6381,1.6369,1.6079,1.5507,1.5088,1.4937,1.4937,1.4921,1.4721,1.4438,1.4438,1.4208,1.3874,1.3821,1.3821,1.3874,0.0,0.0,0.0,0.0,0.0,0.0,0.0,0.0,0.0,0.0,0.0,0.0,0.0,0.0,0.0,0.0,0.0,0.0,0.0,2.0995,2.0254,1.9991,1.9161,1.8285,1.7501,1.6929,1.6132,1.5202,1.7968,2.0969,2.4236,2.4536,2.5441,2.6531,2.3873,2.2872,2.2931,2.1793,2.1275,2.1275,2.1553,2.1237,0.0,0.0,0.0,0.0,0.0,0.0,0.0,0.0,1.8799,1.8876,1.8704,1.825,1.7706,1.7628,1.7181,1.6731,1.7171,1.8061,1.9014,1.9282,2.0824,0.0,0.0,2.2967,2.4085,2.4377,2.4283,0.0,0.0,0.0,0.0,0.0,0.0,0.0,0.0,0.0,0.0,0.0,0.0,0.0,0.0,0.0,0.0,0.0,0.0,0.0,0.0,0.0,0.0,1.5943,1.5594,1.5562,1.59,1.5593,1.5672,1.6076,1.5951,1.5773,1.5587,1.5618,1.5548,1.5359,1.5165,1.5074,1.5074,1.5013,1.4937,1.4814,1.4814,1.4596,1.4273,1.4227,1.4111,1.3947,0.0,0.0,0.0,0.0,0.0,0.0,0.0,0.0,0.0,0.0,0.0,0.0,0.0,0.0,0.0,0.0,0.0,0.0,2.1474,2.0404,1.9735,1.9724,1.9167,1.8601,1.7997,1.7287,1.6569,1.5751,1.8737,2.1368,2.3746,2.434,2.4926,2.5234,2.3133,2.1987,2.1736,2.0926,2.073,2.0918,2.132,2.1212,0.0,0.0,0.0,0.0,0.0,0.0,0.0,0.0,1.9606,1.9292,1.9292,1.864,1.7794,1.7929,1.7394,1.6863,1.7432,1.83,1.9145,1.9448,0.0,0.0,2.2169,2.3383,2.4636,2.5134,2.4648,0.0,0.0,0.0,0.0,0.0,0.0,0.0,0.0,0.0,0.0,0.0,0.0,0.0,0.0,0.0,0.0,0.0,0.0,0.0,0.0,0.0,0.0,0.0,1.5082,1.5058,1.5404,1.5492,1.5638,1.5811,1.5492,1.5389,1.5477,1.5507,1.5551,1.5609,1.5507,1.5477,1.5477,1.5419,1.5359,1.53,1.515,1.4954,1.4738,1.4707,1.4487,1.4246,0.0,0.0,0.0,0.0,0.0,0.0,0.0,0.0,0.0,0.0,0.0,0.0,0.0,0.0,0.0,0.0,0.0,0.0,1.9282,1.9925,1.9902,1.8791,1.9091,1.8761,1.7512,1.7203,1.6854,1.6593,1.8874,2.0414,2.1264,2.2579,2.2563,2.1364,2.1082,2.0559,1.9911,1.9809,2.0079,2.0561,2.0837,2.1266,2.1596,0.0,0.0,0.0,0.0,0.0,0.0,0.0,2.0514,1.9837,1.9827,1.896,1.8066,1.8327,1.8402,1.8456,1.8495,1.9058,1.9687,0.0,0.0,0.0,2.3263,2.4499,2.5553,2.6632,0.0,2.2624,0.0,0.0,0.0,0.0,0.0,0.0,0.0,0.0,0.0,0.0,0.0,0.0,0.0,0.0,0.0,0.0,0.0,0.0,0.0,0.0,0.0,0.0,1.4996,1.527,1.5594,1.5594,1.5782,1.6095,1.6095,1.6163,1.6301,1.6355,1.6355,1.6301,1.6301,1.6301,1.6301,1.6301,1.6191,1.5968,1.5492,1.5301,1.5301,1.5181,1.497,1.4783,0.0,0.0,0.0,0.0,0.0,0.0,0.0,0.0,0.0,0.0,0.0,0.0,0.0,0.0,0.0,0.0,0.0,0.0,2.0749,1.9926,1.964,1.9883,1.9277,1.882,1.8779,1.8353,1.787,1.7278,1.8765,2.0265,2.1731,2.2215,2.2454,2.2397,2.1471,2.0977,2.0894,2.0613,2.0242,2.0125,2.1135,2.131,2.0862,0.0,0.0,0.0,0.0,0.0,0.0,0.0,0.0,0.0,1.9862,1.9959,2.0114,1.9534,1.9778,2.0109,1.9773,2.0182,0.0,2.0592,0.0,0.0,0.0,2.41,0.0,0.0,0.0,0.0,0.0,0.0,0.0,0.0,0.0,0.0,0.0,0.0,0.0,0.0,0.0,0.0,0.0,0.0,0.0,0.0,0.0,0.0,0.0,0.0,0.0,0.0,1.4856,1.4996,1.5255,1.5404,1.5653,1.6039,1.6163,1.6219,1.6163,1.6344,1.6398,1.6355,1.6355,1.6355,1.6355,1.6355,1.6344,1.6274,1.612,1.5953,1.5782,1.5754,1.5536,1.5285,0.0,0.0,0.0,0.0,0.0,0.0,0.0,0.0,0.0,0.0,2.2334,2.2665,0.0,0.0,0.0,0.0,0.0,0.0,0.0,1.9839,1.9424,1.9629,1.9004,1.8661,1.8592,1.843,1.8156,1.7816,1.8824,1.991,2.1174,2.1264,2.1167,2.0923,2.0293,2.001,2.001,1.9777,1.9779,1.988,2.082,2.1175,2.1144,0.0,0.0,0.0,0.0,0.0,0.0,0.0,0.0,0.0,2.0521,2.0616,2.0772,2.041,2.0628,2.0966,2.0726,2.1019,0.0,2.1271,2.2097,2.2993,2.326,0.0,0.0,0.0,0.0,0.0,0.0,0.0,0.0,0.0,0.0,0.0,0.0,0.0,0.0,0.0,0.0,0.0,0.0,0.0,0.0,0.0,0.0,0.0,0.0,0.0,0.0,0.0,1.5102,1.5239,1.533,1.5551,1.5826,1.6108,1.6301,1.6367,1.634,1.649,1.6543,1.6501,1.6596,1.6607,1.6607,1.6633,1.6649,1.6649,1.6649,1.6528,1.6394,1.6313,1.6077,1.5824,0.0,0.0,0.0,0.0,0.0,0.0,0.0,0.0,0.0,0.0,2.1388,2.2211,0.0,0.0,0.0,0.0,0.0,0.0,0.0,1.9609,1.9183,1.8526,1.8646,1.838,1.7571,1.7943,1.8128,1.8156,1.8809,1.9371,1.9944,1.9865,1.9173,1.8076,1.8274,1.8304,1.8175,1.8315,1.8988,1.9915,2.04,2.1134,2.1984,2.2145,0.0,0.0,0.0,0.0,0.0,0.0,0.0,0.0,2.1534,2.1126,2.0741,2.1073,2.1207,2.1257,2.1527,0.0,0.0,2.1799,2.1819,0.0,2.3254,0.0,0.0,0.0,0.0,0.0,0.0,0.0,0.0,0.0,0.0,0.0,0.0,0.0,0.0,0.0,0.0,0.0,0.0,0.0,0.0,0.0,0.0,0.0,0.0,0.0,0.0,0.0,1.5566,1.5681,1.5725,1.5996,1.6207,0.0,1.6474,1.6617,1.6722,1.6789,1.6789,1.6747,1.685,1.6926,1.6926,1.6952,1.6993,1.6993,1.6993,1.6993,1.6993,1.6799,1.6565,1.634,0.0,0.0,0.0,0.0,0.0,0.0,0.0,0.0,0.0,0.0,0.0,0.0,0.0,0.0,0.0,0.0,0.0,0.0,0.0,1.8936,1.8546,1.901,1.923,1.892,1.8154,1.8817,1.8845,1.8276,1.7814,1.819,1.9353,1.8623,1.8331,1.8511,1.8875,1.9403,2.0032,2.0052,2.0277,2.0565,2.1277,2.1346,2.1085,2.2382,2.3001,0.0,0.0,0.0,0.0,0.0,0.0,0.0,2.2828,2.2854,2.2705,2.2067,2.2064,2.2221,2.2247,2.2267,0.0,0.0,2.219,2.2092,2.3059,0.0,0.0,0.0,0.0,0.0,0.0,0.0,0.0,0.0,0.0,0.0,0.0,0.0,0.0,0.0,0.0,0.0,0.0,0.0,0.0,0.0,0.0,0.0,0.0,0.0,0.0,1.5463,1.5507,1.5624,1.5841,1.6108,1.6355,0.0,1.6789,1.6917,1.6942,1.6942,1.6942,1.6942,1.6968,1.6993,1.6993,1.6993,1.6993,1.6993,1.6993,1.6993,1.6993,1.6952,1.6917,1.6825,0.0,0.0,0.0,0.0,0.0,0.0,0.0,0.0,0.0,0.0,0.0,0.0,0.0,0.0,0.0,0.0,0.0,0.0,0.0,0.0,1.8271,1.8351,1.8826,1.8748,1.7921,1.8271,1.8348,1.7886,1.7111,1.7414,1.8623,1.7919,1.7903,1.8478,1.8974,1.9492,2.0112,2.0364,2.0676,2.1051,2.1523,2.1498,2.1166,2.2347,2.2769,2.2783,2.309,0.0,0.0,0.0,0.0,0.0,0.0,0.0,2.3182,2.231,2.2203,2.2314,2.217,0.0,0.0,2.2527,0.0,2.1977,2.2913,0.0,0.0,0.0,0.0,0.0,0.0,0.0,0.0,0.0,0.0,0.0,0.0,0.0,0.0,0.0,0.0,0.0,0.0,0.0,0.0,0.0,0.0,0.0,0.0,1.5507,1.5507,1.5507,1.558,1.577,1.5998,1.6274,1.6528,1.6789,1.7027,1.7175,1.7288,1.7183,1.7175,1.7248,1.7248,1.7248,1.7248,1.7248,1.7248,1.7248,1.7248,1.7248,1.7224,1.7175,1.715,1.7125,0.0,0.0,0.0,0.0,0.0,0.0,0.0,0.0,0.0,0.0,0.0,0.0,0.0,0.0,0.0,0.0,0.0,0.0,0.0,0.0,0.0,1.7405,1.8126,1.8213,1.7424,1.7588,1.7544,1.7312,1.6619,1.6793,1.7703,1.7533,1.7716,1.8269,1.8787,1.9253,1.9736,2.0366,2.0967,2.1613,2.1858,2.1878,2.1818,2.2455,2.2582,2.2435,2.2745,2.3037,2.3252,2.308,0.0,0.0,0.0,0.0,2.3041,2.2495,2.2239,2.2122,2.2053,0.0,2.2368,2.2671,2.2262,0.0,2.2968,0.0,0.0,0.0,0.0,0.0,0.0,0.0,0.0,0.0,0.0,0.0,0.0,0.0,0.0,0.0,0.0,0.0,0.0,0.0,0.0,0.0,0.0,0.0,1.558,1.5566,1.561,1.561,1.5784,1.5983,1.6151,1.6474,1.6747,1.7043,1.7248,1.7455,1.7589,1.7434,1.7427,1.7522,1.7522,1.7522,1.7522,1.7522,1.7522,1.7522,1.7522,1.7522,1.7498,1.7403,1.7354,1.7354,0.0,0.0,0.0,0.0,0.0,0.0,0.0,0.0,0.0,0.0,1.6016,1.6533,0.0,0.0,0.0,0.0,0.0,0.0,1.8499,0.0,0.0,1.6982,1.7548,1.7782,1.7539,1.7988,1.7584,1.6447,1.6272,1.6211,1.6325,1.7047,1.7657,1.8076,1.8721,1.9375,2.0096,2.1164,2.2037,2.2739,2.3093,2.3059,2.2905,2.3612,2.3267,2.2484,2.3216,2.3194,2.2854,2.3209,2.3525,0.0,0.0,0.0,2.3326,2.3262,2.2809,2.2412,0.0,0.0,2.3163,0.0,2.2961,2.2297,0.0,0.0,0.0,0.0,0.0,0.0,0.0,0.0,0.0,0.0,0.0,0.0,0.0,0.0,0.0,0.0,0.0,0.0,0.0,0.0,0.0,0.0,0.0,0.0,1.5856,1.5898,1.594,1.594,1.6163,1.6344,1.6371,1.6866,1.7142,1.7167,1.7432,1.7572,1.7612,1.7566,1.7566,1.7606,1.7606,1.7606,1.7606,1.7606,1.7606,1.7606,1.7606,1.7606,1.7589,1.7566,1.7566,1.7666,0.0,0.0,0.0,0.0,0.0,0.0,0.0,0.0,0.0,0.0,0.0,1.5261,0.0,0.0,0.0,1.6982,1.706,1.7139,1.7148,1.6563,1.6243,1.61,1.6444,1.6485,1.6262,1.6476,1.6169,1.5356,1.5518,1.5703,1.6044,1.6881,1.751,1.8076,1.911,1.977,2.0226,2.1753,2.2813,2.3443,2.3965,2.3779,2.3247,2.4195,2.3732,2.2565,2.3229,2.3224,2.3034,2.3015,2.3275,2.3568,2.3591,0.0,0.0,0.0,2.28,2.2596,2.281,2.2863,2.308,0.0,2.3466,2.3052,0.0,0.0,0.0,0.0,0.0,0.0,0.0,0.0,0.0,0.0,0.0,0.0,0.0,0.0,0.0,0.0,0.0,0.0,0.0,0.0,0.0,0.0,0.0,1.597,1.597,1.5968,1.608,1.6234,1.6367,1.6581,1.6841,1.7126,1.7361,1.7542,1.7658,1.7766,1.7833,1.7833,1.7743,1.7612,1.7612,1.7612,1.7612,1.7612,1.7612,1.7612,1.7612,1.7612,1.7612,1.7612,1.7863,1.8248,0.0,0.0,0.0,0.0,0.0,0.0,0.0,0.0,0.0,0.0,0.0,0.0,0.0,0.0,0.0,0.0,1.5948,1.6035,1.5695,1.5296,1.5182,1.5353,1.5373,1.5255,1.5127,1.5048,1.4777,1.4343,1.4808,1.5338,1.5895,1.6585,1.7295,1.8076,1.9253,1.9966,2.0355,2.2002,2.3268,2.4066,2.4538,2.4433,2.4066,2.4956,2.4347,2.3003,2.3489,2.3345,0.0,0.0,0.0,2.3177,2.2971,2.3177,0.0,0.0,0.0,0.0,0.0,0.0,2.3287,2.4059,2.4037,2.3952,0.0,0.0,0.0,0.0,0.0,0.0,0.0,0.0,0.0,0.0,0.0,0.0,0.0,0.0,0.0,0.0,0.0,0.0,0.0,0.0,0.0,0.0,0.0,1.6039,1.6039,1.6039,1.6163,1.6436,1.6554,1.6825,1.724,1.7368,1.7595,1.7856,1.7856,1.7917,1.8005,1.8005,1.7878,1.7704,1.7704,1.7704,1.7704,1.7704,1.7704,1.7704,1.7704,1.7704,1.7737,1.7923,1.8326,1.8872,0.0,0.0,0.0,0.0,0.0,0.0,0.0,0.0,0.0,0.0,0.0,0.0,1.3352,1.3859,1.4346,1.4641,1.4479,1.4348,1.4462,1.4222,1.434,1.4911,1.4396,0.0,1.4794,1.4494,1.4111,1.3748,1.4371,1.4911,1.5534,1.6097,1.6941,1.8008,1.8721,1.9628,2.0655,2.183,2.3218,2.4641,2.4758,2.5255,2.5946,2.6184,2.5205,2.3929,2.4436,0.0,0.0,0.0,0.0,0.0,0.0,0.0,0.0,0.0,0.0,0.0,0.0,2.4116,0.0,2.4576,2.4936,0.0,0.0,0.0,0.0,0.0,0.0,0.0,0.0,0.0,0.0,0.0,0.0,0.0,0.0,0.0,0.0,0.0,0.0,0.0,0.0,0.0,0.0,0.0,0.0,1.6095,1.6095,1.6166,1.6316,1.657,1.6841,1.7117,1.7384,1.7726,1.7922,1.7983,1.7983,1.7983,1.8005,1.8005,1.7983,1.7983,1.7983,1.7983,1.7983,1.7983,1.7983,1.7983,1.7983,1.7983,1.8068,1.8768,1.9041,1.928,0.0,0.0,0.0,0.0,0.0,0.0,0.0,0.0,0.0,0.0,0.0,0.0,0.0,1.3418,1.3775,1.3855,1.305,1.2745,1.3307,1.287,1.2777,1.3345,1.3323,1.3407,1.3754,1.3644,1.3512,1.3364,1.3841,1.4481,1.533,1.586,1.6964,1.8509,1.8977,1.9666,2.0522,2.2047,2.3629,2.5102,2.5182,2.5468,2.591,2.5936,2.5547,0.0,0.0,0.0,0.0,0.0,0.0,0.0,0.0,0.0,0.0,0.0,0.0,0.0,0.0,0.0,0.0,2.4945,2.4913,0.0,0.0,0.0,0.0,0.0,0.0,0.0,0.0,0.0,0.0,0.0,0.0,0.0,0.0,0.0,0.0,0.0,0.0,0.0,0.0,0.0,0.0,0.0,0.0,0.0,1.6166,1.6234,1.6382,1.6659,1.6968,1.7337,1.7789,1.79,1.8005,1.807,1.807,1.8087,1.813,1.813,1.813,1.813,1.813,1.8087,1.8005,1.8005,1.8005,1.8005,1.8005,1.8295,1.8739,1.9013,1.973,2.066,0.0,0.0,0.0,0.0,0.0,0.0,0.0,0.0,0.0,1.1345,0.0,0.0,0.0,0.0,1.2545,1.2138,1.134,1.1051,1.1527,1.1134,1.1263,1.2004,1.2111,1.2445,1.3119,1.3119,1.307,1.2963,1.3668,1.4311,1.4825,1.5735,1.6938,1.8318,1.8653,1.9511,2.0798,2.2059,2.3529,2.5048,2.5458,2.5823,2.6225,2.6435,0.0,0.0,0.0,0.0,0.0,0.0,0.0,0.0,0.0,0.0,0.0,0.0,0.0,0.0,2.4483,0.0,0.0,0.0,0.0,0.0,0.0,0.0,0.0,0.0,0.0,0.0,0.0,0.0,0.0,0.0,0.0,0.0,0.0,0.0,0.0,0.0,0.0,0.0,0.0,0.0,0.0,0.0,0.0,0.0,1.6277,1.6301,1.6448,1.6738,1.7126,1.7519,1.79,1.7983,1.807,1.8172,1.8134,1.8172,1.8232,1.8232,1.8232,1.8232,1.8236,1.8155,1.8065,1.8065,1.8065,1.8082,1.8339,1.8733,1.923,1.9767,2.059,2.1499,0.0,0.0,0.0,0.0,0.0,0.0,0.0,0.0,1.1376,1.083,0.0,0.0,0.0,0.0,0.0,0.9472,0.9378,0.9233,0.9078,0.9155,0.9809,1.0995,1.0858,1.1465,1.282,1.2893,1.2753,1.2445,1.3839,1.441,1.4164,1.567,1.6762,1.7451,1.776,1.9302,2.1592,2.1966,2.3047,2.4612,0.0,2.6327,2.6984,0.0,0.0,0.0,2.6447,2.518,0.0,2.3619,0.0,0.0,0.0,0.0,0.0,0.0,0.0,0.0,0.0,0.0,0.0,0.0,0.0,0.0,0.0,0.0,0.0,0.0,0.0,0.0,0.0,0.0,0.0,0.0,0.0,0.0,0.0,0.0,0.0,0.0,0.0,0.0,0.0,0.0,0.0,0.0,0.0,1.7171,1.6429,1.6398,1.6517,1.6789,1.7313,1.7635,1.771,1.7966,1.8155,1.8295,1.8232,1.8232,1.8315,1.8315,1.8315,1.8298,1.8287,1.8263,1.8211,1.8211,1.8211,1.828,1.8999,1.9309,1.9516,2.1056,2.1625,2.1729,0.0,0.0,0.0,0.0,0.0,0.0,1.131,1.0302,0.9516,0.0,0.0,0.0,0.9387,0.9489,0.9482,0.935,0.8466,0.8207,0.8719,0.842,0.8527,0.9259,1.0239,1.1081,1.1829,1.2519,1.2931,1.2991,1.3464,1.3923,1.4291,1.5269,1.6417,1.7626,1.819,1.9614,2.144,2.1536,0.0,2.5254,2.5273,2.5847,0.0,0.0,0.0,0.0,0.0,2.5014,2.4045,0.0,2.2306,2.1166,0.0,0.0,0.0,0.0,0.0,0.0,2.4742,0.0,0.0,0.0,0.0,0.0,0.0,0.0,0.0,0.0,0.0,0.0,0.0,0.0,0.0,0.0,0.0,0.0,0.0,0.0,0.0,0.0,0.0,0.0,0.0,0.0,0.0,0.0,1.685,1.6628,1.6398,1.6463,1.6607,1.6942,1.7288,1.7566,1.7772,1.8027,1.8232,1.8295,1.8232,1.8236,1.8287,1.8298,1.8301,1.8287,1.829,1.8307,1.8266,1.8277,1.826,1.8353,1.9026,1.9665,2.0275,2.1246,2.1953,2.2436,0.0,0.0,0.0,0.0,0.0,1.049,1.018,0.9043,0.8173,0.0,0.0,0.0,0.6968,0.7386,0.7596,0.7532,0.706,0.7228,0.8236,0.8027,0.833,0.9386,0.9965,1.0796,1.1941,1.2129,1.2439,1.3046,1.3094,1.3477,1.4082,1.488,1.5951,1.7388,1.7832,1.929,2.1265,0.0,0.0,0.0,2.5329,0.0,0.0,2.6622,2.6948,0.0,0.0,0.0,2.5169,2.4545,2.3381,0.0,0.0,0.0,0.0,0.0,0.0,0.0,0.0,0.0,0.0,0.0,0.0,0.0,2.702,2.7212,0.0,0.0,0.0,0.0,0.0,0.0,0.0,0.0,0.0,0.0,0.0,0.0,0.0,0.0,0.0,0.0,0.0,0.0,0.0,1.765,1.7487,1.7184,1.6601,1.6659,1.6799,1.7027,1.7361,1.7641,1.7883,1.8117,1.8281,1.8339,1.8281,1.8284,1.8348,1.8342,1.8342,1.8348,1.8368,1.8388,1.8388,1.8363,1.8325,1.8394,1.9438,2.0131,2.0674,2.1759,2.241,2.279,0.0,0.0,1.152,1.0112,0.9834,0.9656,0.8973,0.7749,0.6776,0.0,0.5909,0.5273,0.4862,0.537,0.561,0.5332,0.5844,0.6729,0.7991,0.8074,0.8769,1.0339,0.9844,1.0445,1.2381,1.1665,1.1761,1.2746,1.269,1.3074,1.3899,1.4516,1.5562,1.6927,1.7085,0.0,2.099,0.0,0.0,2.3577,2.5473,2.6065,0.0,0.0,2.7605,2.7365,2.7365,2.6966,2.6345,2.5816,2.4978,0.0,0.0,0.0,0.0,0.0,2.3862,0.0,0.0,0.0,0.0,0.0,0.0,0.0,2.6263,2.6503,2.653,0.0,0.0,0.0,0.0,0.0,0.0,0.0,0.0,0.0,0.0,0.0,0.0,0.0,0.0,0.0,0.0,2.0962,2.0701,1.8168,1.8582,1.8411,1.7171,1.7235,1.7288,1.7289,1.7649,1.7907,1.7992,1.8187,1.8328,1.8385,1.8328,1.8348,1.8406,1.8406,1.8406,1.8406,1.8465,1.8485,1.8502,1.8426,1.8385,1.8467,1.9908,2.0517,2.0779,2.224,2.2849,2.2893,0.0,0.8798,0.8588,0.8543,0.6973,0.5894,0.6373,0.4741,0.3571,0.3925,0.401,0.4423,0.5655,0.5692,0.6061,0.7202,0.7423,0.7965,0.9157,0.9021,0.9006,0.9399,0.9771,1.0046,0.9949,1.1341,1.1916,1.1681,1.2324,1.3148,1.4211,1.458,1.5501,1.6917,1.693,1.8175,2.0243,0.0,0.0,2.2419,2.4265,0.0,2.6103,2.6054,2.6251,2.6661,2.6778,2.5908,2.457,2.4117,2.3756,2.3592,0.0,0.0,0.0,0.0,0.0,0.0,0.0,0.0,0.0,0.0,0.0,0.0,2.787,2.7869,2.7527,0.0,0.0,0.0,0.0,0.0,0.0,0.0,0.0,0.0,0.0,0.0,0.0,0.0,0.0,0.0,0.0,2.1776,2.1004,1.9874,1.9402,1.9114,1.9065,1.9092,1.8873,1.8401,1.8663,1.8569,1.8014,1.8187,1.8328,1.8385,1.8328,1.8368,1.8465,1.8426,1.8426,1.8485,1.8485,1.8485,1.8485,1.8502,1.8465,1.8533,1.9394,2.0109,2.0778,2.169,2.2397,2.3006,0.7094,0.6846,0.6672,0.6645,0.5288,0.4419,0.4884,0.3363,0.241,0.2933,0.2695,0.2875,0.3969,0.4405,0.5178,0.6621,0.7415,0.8354,0.9537,0.9702,0.9801,0.9969,0.9836,1.0032,1.0406,1.0779,1.1315,1.1916,1.2437,1.315,1.4144,1.4588,1.5548,1.6938,1.6967,1.8103,2.0098,0.0,2.0546,2.1886,2.3055,0.0,2.4459,2.4797,2.5159,2.564,2.6115,2.5576,2.4743,2.5004,2.4749,0.0,0.0,2.4937,2.4697,0.0,2.4734,2.5184,0.0,0.0,0.0,2.667,0.0,0.0,0.0,2.7176,2.6947,2.6651,0.0,0.0,0.0,0.0,0.0,0.0,0.0,0.0,0.0,0.0,0.0,0.0,0.0,0.0,0.0,2.3232,2.2378,2.1057,2.0045,1.9574,1.9681,1.9865,1.9816,1.9498,1.9705,1.9475,1.8853,1.8941,1.881,1.8445,1.8426,1.8428,1.8485,1.8483,1.8465,1.8485,1.8485,1.8485,1.8485,1.8485,1.8731,1.9134,1.9458,2.007,2.0828,2.1628,2.2373,2.3125,0.5136,0.534,0.53,0.511,0.425,0.365,0.3892,0.2491,0.1777,0.2656,0.1918,0.1703,0.2545,0.3319,0.4248,0.5577,0.6733,0.7955,0.9239,0.9634,1.0036,1.0465,0.9679,0.9872,1.1129,1.033,1.0656,1.2222,1.2535,1.3199,1.4114,1.4558,1.5582,1.7044,1.6968,1.807,2.0008,0.0,0.0,2.1273,0.0,2.2221,2.2867,2.3648,2.4261,2.4824,2.5436,2.5615,2.5725,2.6506,2.6261,2.5788,2.6422,2.6553,0.0,0.0,0.0,0.0,0.0,0.0,0.0,0.0,0.0,2.5357,0.0,0.0,0.0,2.6287,0.0,0.0,0.0,0.0,0.0,0.0,0.0,0.0,0.0,0.0,0.0,0.0,0.0,0.0,0.0,2.4899,2.4027,2.2073,2.1404,2.0904,2.0396,2.0781,2.0869,2.0638,2.0732,2.0441,1.9714,1.9696,1.9292,1.8485,1.8485,1.8485,1.8485,1.8485,1.8485,1.8485,1.8485,1.8485,1.8502,1.866,1.9099,1.9696,1.9696,2.024,2.1123,2.1773,2.247,2.3242,0.4318,0.4424,0.4411,0.4951,0.3675,0.2621,0.2341,0.1306,0.0865,0.1948,0.1942,0.2441,0.3932,0.4189,0.4725,0.5987,0.0,0.0,0.7933,0.0,0.8155,0.9012,0.8913,0.9062,0.9533,1.0495,1.1053,1.1279,1.2198,1.3288,1.4561,1.4601,1.5615,1.7319,1.6901,1.7813,0.0,0.0,1.9361,0.0,1.9921,2.1156,0.0,2.2657,2.3335,2.4487,2.4936,2.5828,2.6808,0.0,2.7213,2.7343,0.0,2.7822,2.7511,0.0,0.0,0.0,0.0,0.0,0.0,0.0,2.5073,0.0,0.0,0.0,2.5578,2.6692,0.0,0.0,0.0,0.0,0.0,0.0,0.0,0.0,0.0,0.0,0.0,0.0,0.0,0.0,0.0,0.0,2.5177,2.3184,2.4774,2.4845,2.2591,2.3136,2.298,2.1844,2.1815,2.1131,1.9714,1.9696,1.9292,1.8485,1.8485,1.8485,1.8485,1.8485,1.8485,1.8485,1.8485,1.8485,1.8555,1.9257,1.9608,1.9696,1.9696,2.0574,2.1855,2.1984,2.247,2.333,0.3618,0.3806,0.3969,0.4892,0.3944,0.316,0.3619,0.2774,0.2239,0.2694,0.2038,0.1618,0.0,0.0,0.0,0.0,0.0,0.4741,0.0,0.0,0.6234,0.6401,0.0,0.0,0.8875,1.0648,1.1665,1.1939,1.3297,1.4192,1.4649,1.48,1.548,1.6437,1.6285,0.0,1.8509,0.0,1.8757,0.0,0.0,0.0,0.0,2.1586,2.2517,2.3683,2.4222,2.4844,2.5548,0.0,2.6676,0.0,0.0,0.0,0.0,0.0,0.0,0.0,0.0,0.0,0.0,0.0,0.0,0.0,2.5145,0.0,2.5079,0.0,0.0,0.0,0.0,0.0,0.0,0.0,0.0,0.0,0.0,0.0,0.0,0.0,0.0,0.0,0.0,0.0,0.0,0.0,0.0,2.58,2.3552,2.4286,2.434,2.3372,2.3337,2.2599,2.1048,2.103,2.0416,1.9187,1.9187,1.8941,1.8485,1.8485,1.8485,1.8505,1.8526,1.8565,1.86,1.9011,1.9704,2.0501,2.0501,2.1127,2.2019,2.2019,2.247,2.3305,0.2846,0.3313,0.383,0.4668,0.4292,0.3997,0.4531,0.324,0.2364,0.2748,0.0,0.0,-0.0421,0.0086,0.0,0.0,0.1222,0.1937,0.0,0.0,0.3859,0.0,0.0,0.0,0.0,0.0,1.2222,1.3087,1.4092,1.4703,1.4785,1.4945,1.5346,1.5833,1.5833,1.6455,1.755,0.0,1.825,1.8519,1.8874,1.918,1.9582,2.0819,2.1869,2.2808,2.3663,2.4092,2.4426,2.5597,2.6184,0.0,2.6461,0.0,0.0,0.0,0.0,0.0,2.5727,0.0,0.0,0.0,0.0,0.0,0.0,0.0,0.0,0.0,0.0,0.0,0.0,0.0,0.0,0.0,0.0,0.0,0.0,0.0,0.0,0.0,0.0,0.0,0.0,0.0,0.0,2.5461,2.6943,2.6877,2.4441,2.5215,2.5296,2.4339,2.4304,2.3566,2.2037,2.2019,2.1223,1.9696,1.9696,1.9275,1.8485,1.8485,1.8505,1.8544,1.8584,1.8622,1.8695,1.9215,2.0091,2.1144,2.159,2.2034,2.2412,2.2412,2.2741,2.3428,0.1686,0.2994,0.3938,0.0,0.0,0.0,0.0,0.0,0.0,0.0,0.0,0.0,0.0,0.0,0.0,0.0,0.0,-0.148,-0.1601,0.0,0.0547,0.0,0.0,0.705,0.0,0.0,1.2486,1.4435,1.4182,1.4411,1.5173,1.4808,1.5062,1.5833,1.5833,1.6298,1.7179,1.7745,1.7901,1.7804,1.8253,1.8927,1.969,0.0,2.145,2.2143,2.3513,0.0,0.0,2.5535,2.5985,0.0,0.0,0.0,0.0,0.0,0.0,0.0,0.0,0.0,0.0,2.49,0.0,0.0,0.0,0.0,2.3886,0.0,0.0,0.0,0.0,0.0,0.0,0.0,0.0,0.0,0.0,0.0,0.0,0.0,0.0,0.0,0.0,0.0,0.0,2.81,2.9558,2.9051,2.555,2.6139,2.5875,2.4356,2.4304,2.3566,2.2037,2.2019,2.1223,1.9696,1.9696,1.9275,1.8485,1.8485,1.8544,1.8603,1.8585,1.8659,1.8913,2.0412,2.1054,2.1251,2.2799,2.3422,2.3458,2.3458,2.3476,2.3708,-0.0246,0.1244,0.2849,0.0,0.0,0.0,0.0,0.2463,0.0,0.0,0.0,0.0,0.0,-0.5935,-0.5874,0.0,0.0,-0.4995,-0.4274,-0.2845,0.0,0.0,0.0,0.6828,0.0,0.0,1.293,1.4461,1.4806,1.5057,1.5286,1.4846,1.4784,1.4991,1.4991,1.548,0.0,0.0,0.0,0.0,0.0,1.8696,1.9678,0.0,0.0,2.1957,2.2967,2.3721,0.0,2.5002,2.5831,2.6567,2.5926,2.6385,2.6963,2.5691,2.5905,0.0,0.0,0.0,2.4063,2.4395,0.0,0.0,0.0,0.0,0.0,0.0,0.0,0.0,0.0,0.0,0.0,0.0,0.0,0.0,0.0,0.0,0.0,0.0,0.0,0.0,0.0,0.0,0.0,2.7554,2.9023,2.8905,0.0,2.7677,2.7743,2.6135,2.5567,2.4804,2.3798,2.3259,2.2211,2.0631,2.0631,1.9957,1.8695,1.8695,1.8714,1.8733,1.8789,1.8825,1.8914,1.9525,2.0389,2.1416,2.1956,2.2803,2.3685,2.3544,2.3494,2.3708,-0.1718,0.0,0.0,0.0,0.0,0.0,0.0,0.0,0.0,0.0,-0.5488,0.0,-0.9656,0.0,-0.8669,0.0,-0.8484,-0.7046,-0.5759,-0.394,0.0,0.0264,0.4158,0.0,0.0,0.0,0.0,1.5757,1.5643,1.5835,1.6201,1.5474,1.5068,1.4787,1.4795,1.5006,1.5426,1.5983,1.6872,0.0,0.0,1.8578,0.0,0.0,2.0894,2.1603,0.0,2.3159,2.3939,2.4372,2.5256,2.6089,2.5425,2.5816,2.6325,2.5221,2.5481,2.5883,2.4697,2.4431,0.0,2.4588,2.3936,0.0,2.5084,0.0,0.0,0.0,0.0,0.0,0.0,0.0,0.0,0.0,0.0,0.0,0.0,2.8394,0.0,0.0,0.0,0.0,0.0,0.0,3.0292,2.8628,2.9678,2.9516,0.0,0.0,2.8507,2.7049,2.6211,2.5444,2.4724,2.3891,2.2696,2.1108,2.1108,2.0287,1.8788,1.8788,1.8824,1.8843,1.8878,1.893,1.9037,1.9685,2.0554,2.155,2.2111,2.3107,2.4208,2.4073,2.4405,2.5033,0.0,0.0,0.0,0.0,0.2231,0.0,0.0,0.0,-0.4756,0.0,-0.9174,-1.1778,-1.1209,-1.0447,-1.0253,-1.101,-0.9461,0.0,-0.6186,-0.4161,0.0,0.0,0.483,0.8208,1.0435,0.0,0.0,0.0,1.684,1.6783,1.7841,1.6784,1.5882,1.5206,1.5146,0.0,1.4838,1.5765,1.6533,1.7279,1.8061,1.8581,1.8839,1.915,1.9952,2.1126,2.1704,2.242,2.3216,2.3839,2.4385,2.4839,2.502,2.5105,2.5022,2.4046,2.4713,2.5564,2.4595,2.5039,2.5681,2.541,0.0,0.0,0.0,0.0,2.5277,0.0,0.0,0.0,0.0,0.0,0.0,0.0,0.0,0.0,0.0,0.0,0.0,0.0,0.0,0.0,0.0,3.294,3.2587,3.1179,3.1449,3.0854,0.0,0.0,2.8417,2.713,2.63,2.5522,2.4778,2.3986,2.2767,2.1182,2.1146,2.0342,1.886,1.8824,1.8843,1.8913,1.8913,1.8983,1.9214,2.0789,2.1459,2.1658,2.3161,2.4284,2.5063,2.5063,2.6041,2.7363,-0.6316,-0.6363,-0.6088,0.0,-0.3166,-0.1405,0.0,0.0,0.0,0.0,-1.1848,-1.3944,-1.4158,-1.3134,-1.232,-1.1909,-1.0508,0.0,0.0,0.0,0.0,0.2687,0.5333,0.866,1.2741,1.4062,0.0,1.921,0.0,1.8221,1.8368,1.7581,1.6679,1.5678,1.5617,1.5826,1.6113,1.6358,1.7226,1.8412,1.9051,1.9331,0.0,0.0,2.0424,2.1568,2.1785,2.2634,2.3696,2.4271,2.4863,2.5233,2.4719,2.4903,2.5003,2.367,2.361,2.385,2.3358,2.3639,2.409,2.4186,2.4449,2.4772,0.0,0.0,0.0,0.0,0.0,0.0,0.0,0.0,0.0,0.0,0.0,0.0,0.0,0.0,0.0,2.9816,0.0,0.0,0.0,3.0633,3.0124,3.1027,3.1334,0.0,0.0,0.0,0.0,2.8632,2.7546,2.6616,2.5822,2.501,2.3837,2.2285,2.1689,2.0877,1.9885,1.9308,1.9036,1.9053,1.9053,1.907,1.9177,2.0192,2.097,2.1604,2.26,2.4176,2.5896,2.5896,2.6149,2.6602,-0.9336,0.0,0.0,-1.0816,0.0,0.0,-0.7355,0.0,0.0,-1.2711,-1.3936,0.0,-1.5121,-1.3478,-1.2037,-1.1204,-0.9426,0.0,-0.4089,0.0,0.0,0.4238,0.7188,1.0522,1.4212,1.5457,0.0,2.0555,0.0,0.0,1.9531,1.868,1.7589,1.6401,1.6273,1.6282,1.6574,1.7092,1.791,1.888,1.9456,0.0,0.0,1.9708,2.0591,2.1677,2.1771,2.2711,2.3921,2.4055,2.4522,2.492,2.4419,2.4513,2.4613,2.3572,2.3424,2.3469,2.3059,2.3323,2.3699,2.3706,2.4132,2.4664,2.5067,2.5528,2.5942,0.0,0.0,0.0,0.0,0.0,0.0,0.0,0.0,0.0,0.0,0.0,0.0,0.0,2.9043,0.0,0.0,0.0,2.9671,3.1264,0.0,0.0,0.0,0.0,0.0,2.8699,2.8317,2.7507,2.617,2.5746,2.4552,2.261,2.2198,2.1423,2.0282,1.9829,1.9431,1.9087,1.9087,1.9087,1.9177,2.0355,2.1097,2.1676,2.3524,2.5045,2.6294,2.7001,2.7254,2.7327,0.0,0.0,0.0,0.0,0.0,0.0,0.0,-1.4015,0.0,-1.5706,0.0,-1.5031,-1.4721,-1.2479,-1.0572,-0.9572,0.0,-0.4748,-0.2061,0.0395,0.3066,0.5834,0.9787,1.2929,1.5326,1.6909,0.0,0.0,0.0,0.0,2.0875,1.9801,1.8581,1.7214,1.6826,0.0,0.0,1.7842,1.8539,1.8936,1.9532,1.9666,1.9516,1.9822,2.0599,2.1595,2.171,2.2684,2.388,2.363,2.3988,2.4463,2.4131,2.4156,2.4152,2.3502,2.3513,2.3569,2.3076,2.3376,2.375,2.3473,2.3833,2.4378,2.4786,2.5631,2.6265,2.6097,2.7325,2.7861,0.0,0.0,0.0,0.0,0.0,0.0,0.0,0.0,0.0,0.0,0.0,0.0,0.0,0.0,0.0,0.0,0.0,0.0,0.0,0.0,0.0,2.8376,2.8829,0.0,2.6368,0.0,2.5068,2.2815,2.2738,2.1912,2.0445,2.0355,1.9866,1.9087,1.9087,1.9159,1.9359,2.088,2.1622,2.2093,2.5045,2.6204,2.6403,2.8015,2.8637,2.8612,0.0,0.0,0.0,0.0,0.0,-1.7513,-2.0169,-1.8556,-1.6829,-1.6248,-1.6305,-1.5602,-1.3393,-1.1746,-0.9884,-0.7791,-0.5514,0.0,0.0,0.0,0.0,0.8851,1.2084,1.4712,1.6692,1.9085,2.11,0.0,0.0,0.0,2.1457,2.05,1.9116,1.7368,1.6684,0.0,1.7726,1.8432,0.0,1.9486,1.9986,1.9927,1.9551,2.0263,2.1002,2.171,2.1838,2.2557,2.3489,2.3869,2.4434,2.483,2.3907,2.4151,2.4479,2.2903,2.253,2.2574,2.2262,2.2283,2.2371,2.245,2.2979,2.3513,2.3656,2.4301,2.4852,2.4825,2.5578,2.6132,2.5796,0.0,0.0,0.0,0.0,0.0,0.0,0.0,0.0,0.0,0.0,0.0,0.0,0.0,0.0,0.0,0.0,0.0,0.0,0.0,0.0,0.0,2.9323,0.0,0.0,0.0,2.5638,2.4552,2.3304,2.2202,2.1278,2.0608,1.9866,1.9087,1.9087,1.9467,2.0155,2.1115,2.2256,2.3578,2.5528,2.6277,2.6477,2.816,2.8761,2.8737,0.0,0.0,0.0,0.0,0.0,0.0,0.0,-1.7439,0.0,-1.7473,-1.5856,-1.3821,-1.1615,-0.9518,-0.7239,-0.4931,-0.2231,0.0537,0.3269,0.5507,0.7777,1.0244,1.3194,0.0,1.8314,2.0387,2.2264,2.4013,0.0,0.0,0.0,2.1086,1.9464,1.7449,0.0,1.7427,0.0,0.0,0.0,1.9475,1.9745,1.9718,1.9539,2.0096,2.0933,2.1796,2.1583,2.2283,2.3275,2.3546,2.3797,2.3846,2.3226,2.3384,2.3605,2.2804,2.2615,2.2605,2.2426,2.2337,2.2298,2.2265,2.2524,2.2878,2.3308,2.3663,2.4036,2.4438,2.4794,2.5317,2.6179,2.7266,0.0,0.0,0.0,0.0,0.0,0.0,0.0,0.0,0.0,0.0,0.0,0.0,0.0,0.0,0.0,0.0,0.0,0.0,0.0,0.0,0.0,0.0,0.0,0.0,0.0,2.4328,2.3611,2.2654,2.1495,2.1097,2.0264,1.9123,1.954,1.9938,2.0391,2.1622,2.3055,2.4581,2.5778,2.6509,2.7082,2.8306,2.9016,2.93,0.0,-1.9397,0.0,0.0,-1.637,0.0,-1.663,-1.4903,-1.4479,-1.753,-1.4613,-1.1528,-0.9708,-0.7255,-0.4652,-0.198,0.0912,0.3321,0.5194,0.8196,1.0362,1.1508,1.4935,1.7676,1.9476,2.1481,2.3167,0.0,0.0,0.0,0.0,0.0,0.0,0.0,0.0,0.0,0.0,0.0,1.8813,1.9371,1.9504,1.9551,1.9645,1.9977,2.0801,2.1741,2.1386,2.1964,2.29,2.309,2.3112,2.2999,2.272,2.2762,2.2972,2.2954,2.2927,2.2893,2.279,2.2668,2.2561,2.2349,2.2338,2.253,2.3107,2.33,2.3494,2.4086,2.4372,2.5035,2.6842,2.814,0.0,0.0,0.0,0.0,0.0,0.0,0.0,0.0,0.0,0.0,0.0,0.0,0.0,0.0,0.0,0.0,0.0,0.0,0.0,0.0,0.0,2.9437,2.7282,0.0,2.5875,0.0,2.3851,2.2958,2.1514,2.1676,2.088,1.9395,2.021,2.0644,2.0916,2.2366,2.3801,2.5187,2.5964,2.6786,2.7633,2.8452,2.9253,2.9897,0.0,0.0,0.0,0.0,0.0,0.0,0.0,-1.3367,-1.2137,-1.4617,-1.2417,-0.985,-0.769,-0.6103,-0.3547,0.0434,0.2522,0.5021,0.8289,1.2468,1.4543,1.3887,1.9262,2.148,1.9748,2.2799,2.4189,0.0,0.0,0.0,0.0,0.0,0.0,0.0,0.0,0.0,0.0,1.7638,1.8314,1.9511,1.9647,1.9851,2.0086,2.0283,2.0804,2.1375,2.1511,2.167,2.194,2.2669,2.3224,2.3528,2.29,2.3204,2.3709,2.3288,2.3095,2.2952,2.2893,2.279,2.2632,2.2366,2.2487,2.2676,2.2745,2.2937,2.314,2.3207,2.3912,2.5214,2.7581,2.7565,2.7581,0.0,0.0,0.0,0.0,0.0,0.0,0.0,0.0,0.0,0.0,0.0,0.0,0.0,0.0,0.0,0.0,0.0,0.0,3.1364,0.0,3.0037,2.9785,2.6866,0.0,2.5407,2.4123,2.283,2.1532,2.2274,2.1713,2.0228,2.1043,2.1805,2.2533,2.3424,2.4335,2.529,2.6136,2.6962,2.7789,2.8659,2.9465,3.0167,0.0,0.0,0.0,0.0,0.0,0.0,0.0,-0.8927,-0.811,-0.9226,-0.8309,-0.6961,-0.5358,-0.3545,-0.1267,0.1687,0.5793,0.9092,1.1225,1.5492,1.7946,1.7856,2.0547,2.1989,2.1851,2.3726,2.4645,0.0,0.0,0.0,0.0,0.0,0.0,0.0,0.0,1.648,1.8478,1.7812,1.8257,1.9372,1.9389,1.9444,1.9601,2.0124,2.0644,2.1124,2.1006,2.1593,2.2378,2.2547,2.2728,2.2949,2.3014,2.333,2.3555,2.3377,2.3383,2.3365,2.3193,2.3151,2.3126,2.285,2.2859,2.2935,2.2935,2.3025,2.3087,2.3093,2.3844,2.4793,2.5753,2.6436,2.6845,0.0,0.0,0.0,0.0,0.0,0.0,0.0,0.0,0.0,0.0,0.0,0.0,0.0,0.0,0.0,0.0,0.0,0.0,3.2266,0.0,2.931,2.9457,2.6992,2.5411,2.4742,2.4194,2.3241,2.198,2.2303,2.2188,2.1767,2.2077,2.2677,2.3462,2.381,2.4762,2.6008,2.6319,2.7255,2.8448,2.88,2.9734,3.0876,-0.9566,0.0,-1.2291,0.0,-0.8236,-0.6226,-0.4043,-0.3261,-0.2837,-0.2741,-0.1459,-0.1251,-0.3052,-0.1432,0.1057,0.4271,0.8521,1.1973,1.4325,1.817,2.0358,2.0352,2.1793,0.0,2.3304,2.4365,2.501,2.5175,2.5,0.0,0.0,0.0,0.0,0.0,1.5733,1.6425,1.8597,1.7789,1.8078,1.9066,1.8999,1.9018,1.9171,1.9893,2.0454,2.0847,2.0798,2.1481,2.2413,2.2445,2.2485,2.2686,2.3188,2.3389,2.3453,2.3504,2.3616,2.3682,2.3458,2.3463,2.3445,2.317,2.3146,2.3236,2.3236,2.3271,2.3346,2.3392,2.4104,2.4746,2.4746,2.5841,2.6458,2.5588,0.0,0.0,0.0,0.0,0.0,0.0,2.6604,2.6302,2.5768,0.0,0.0,0.0,0.0,0.0,0.0,0.0,0.0,0.0,0.0,0.0,0.0,2.7247,2.5747,2.4694,2.4268,2.3533,2.2508,2.2367,2.2596,2.3075,2.308,2.3537,2.4322,2.4363,2.5372,2.6878,2.6838,2.7679,2.8929,2.8929,2.9954,3.1352,-0.2566,-0.6331,-0.8991,-0.6328,-0.4852,-0.2279,0.2893,0.3565,0.3777,0.4565,0.8542,0.8013,-0.0699,-0.0065,0.3263,0.8904,1.0223,1.2765,1.7627,2.0586,2.1666,0.0,0.0,2.4819,2.3439,2.4699,2.534,2.5188,0.0,0.0,2.3492,0.0,1.7469,1.7333,1.5503,1.5799,1.7687,1.7178,1.7625,1.8578,1.855,1.8657,1.897,1.9663,2.0144,2.0565,2.1033,2.1334,2.1615,2.2286,2.2721,2.3045,2.3392,2.3513,2.3549,2.3732,2.3795,2.3774,2.3631,2.3606,2.3522,2.3165,2.33,2.35,2.35,2.3692,2.3917,2.4074,2.4774,2.5383,2.5383,2.6062,2.6421,2.5875,0.0,0.0,0.0,0.0,0.0,0.0,2.8189,2.8475,2.578,0.0,0.0,0.0,0.0,0.0,0.0,0.0,0.0,3.1593,3.0975,0.0,2.9626,2.7609,2.6369,2.5857,2.4483,2.3509,2.2982,2.2495,2.2911,2.3978,2.3978,2.4474,2.5285,2.5285,2.6258,2.7769,2.7769,2.8282,2.8994,2.8994,3.0026,3.1384,0.4774,0.3802,0.3763,0.4608,0.5968,0.7521,0.9216,0.9406,0.9457,0.9542,1.126,1.1355,0.8483,0.7035,0.7982,0.0,1.3322,1.5696,0.0,2.3121,2.4604,2.446,2.5127,2.5261,2.4773,2.4969,2.5066,2.5048,0.0,0.0,0.0,1.8501,1.7413,1.7213,1.6005,1.6267,1.756,1.7252,1.7329,1.7829,1.8907,1.9077,1.8745,1.9948,2.0421,2.0559,2.0931,2.1564,2.2243,2.2695,2.3014,2.3346,2.3714,2.3876,2.3915,2.3917,2.3937,2.3917,2.3896,2.3876,2.3855,2.3735,2.3774,2.3837,2.3837,2.3937,2.4074,2.4151,2.4392,2.4575,2.4575,2.4795,2.4842,2.449,2.4869,0.0,0.0,0.0,0.0,0.0,2.516,2.5282,0.0,2.5414,0.0,0.0,0.0,0.0,0.0,0.0,0.0,0.0,3.0158,0.0,2.9353,2.8005,2.6775,2.5688,2.5244,2.4521,2.3624,2.3832,2.3867,2.3735,2.3976,2.4551,2.5303,2.5362,2.6337,2.7787,2.7787,2.8282,2.8994,2.8994,2.9677,3.065,1.2191,1.0947,1.0443,1.0608,1.154,1.2896,1.48,1.4828,1.4677,1.4864,1.6323,1.6774,1.5198,1.3786,0.0,1.5731,1.6365,1.8478,2.2733,2.4486,2.5558,2.604,2.5504,2.5128,2.5023,0.0,0.0,2.494,2.4188,2.2488,1.9954,1.8271,1.7464,1.7358,1.6152,1.6187,1.7144,1.6991,1.717,1.7543,1.8524,1.8838,1.8779,1.9776,2.0377,2.0783,2.1118,2.1866,2.2712,2.296,2.3265,2.3588,2.3876,2.4095,2.4228,2.4134,2.4095,2.4094,2.4095,2.4095,2.4075,2.4075,2.4075,2.4075,2.4074,2.4113,2.4152,2.419,2.4209,2.419,2.419,2.419,2.4113,2.3837,2.4104,2.427,2.401,0.0,0.0,0.0,0.0,0.0,0.0,2.4467,0.0,0.0,0.0,0.0,0.0,0.0,0.0,3.0703,2.981,0.0,2.8787,2.841,2.7368,2.5624,2.5385,2.4799,2.3979,2.432,2.4355,2.4144,2.4351,2.5113,2.624,2.6282,2.7071,2.8246,2.8246,2.8576,2.8994,2.8994,2.9714,3.0723,1.9292,1.5722,0.0,0.0,1.3267,0.0,1.9709,1.9734,1.9474,2.0214,2.2936,2.3386,1.9645,1.9863,2.0017,1.9294,0.0,0.0,0.0,2.4785,2.4876,2.5554,2.5012,2.4597,2.432,2.4456,2.4592,2.4726,2.3815,2.2483,2.0696,1.8575,1.7607,1.7564,1.6109,1.5873,1.6537,1.667,1.7092,1.7662,1.7693,1.8213,1.9044,1.9409,2.0215,2.1191,2.1532,2.2248,2.3028,2.3119,2.3422,2.3837,2.3878,2.4173,2.4464,2.4339,2.4247,2.4228,2.4284,2.4266,2.421,2.421,2.421,2.421,2.4209,2.4209,2.421,2.4209,2.4191,2.421,2.4209,2.419,2.4113,2.3858,2.3714,2.3562,2.3342,0.0,0.0,0.0,0.0,0.0,0.0,2.488,2.4831,0.0,0.0,0.0,0.0,0.0,3.0434,2.9412,2.9745,2.9344,2.8033,2.8652,2.7912,2.5788,2.5152,2.4637,2.4243,2.4173,2.4499,2.5059,2.5027,2.6071,2.7787,2.7787,2.8282,2.8994,2.9049,2.9067,2.9085,2.914,3.0118,3.1403,0.0,0.0,2.3046,2.1947,2.2299,2.2965,2.3649,2.3496,2.3329,2.3429,2.4282,2.4308,2.2794,2.3023,2.307,2.2531,2.026,2.0402,2.3981,2.4411,2.4513,2.4494,2.4735,2.4453,2.3601,2.3737,2.3572,2.305,2.2249,2.1022,1.9471,1.8173,1.7397,1.7066,1.6437,1.6382,1.6686,1.7401,1.7583,1.7505,1.8795,1.9183,1.9147,2.0482,2.1278,2.1711,2.2262,2.2857,2.3389,2.3412,2.3646,2.3961,2.4039,2.4248,2.4479,2.4393,2.4321,2.4284,2.4303,2.4284,2.4284,2.4284,2.4284,2.4266,2.4284,2.4284,2.4266,2.4284,2.4247,2.4192,2.421,2.419,2.419,2.4115,2.3998,2.3834,2.3646,2.3486,0.0,0.0,2.3258,2.3292,2.3557,2.3156,2.3089,0.0,0.0,0.0,0.0,2.7762,2.8639,2.851,2.8432,2.8092,2.7342,2.763,2.7415,2.6702,2.6514,2.6131,2.554,2.5136,2.5183,2.5595,2.5172,2.6071,2.7787,2.7787,2.8282,2.9049,2.9696,2.9934,2.9989,3.0613,3.1072,3.1476,2.3662,2.4947,2.563,2.4723,2.4837,2.494,2.4512,2.4368,2.4299,2.4192,2.4389,2.4355,2.3899,2.4001,2.3961,2.3594,2.1838,2.1807,2.424,2.4424,2.4514,2.4681,2.4589,2.4035,2.2962,2.2988,2.2727,2.2118,2.1375,2.0278,1.8908,1.797,1.7314,1.6937,1.6377,1.6285,1.6662,1.7157,1.7544,1.7883,1.9073,1.9793,2.0228,2.1159,2.1867,2.2392,2.2745,2.3206,2.3642,2.3642,2.3798,2.404,2.4192,2.4392,2.4545,2.4532,2.4464,2.4356,2.4428,2.441,2.4393,2.4393,2.4393,2.4375,2.4358,2.4339,2.4339,2.4321,2.4303,2.4266,2.421,2.4191,2.4209,2.4209,2.4366,2.4421,2.423,2.4091,0.0,2.3671,2.305,2.2777,2.3117,2.2525,2.2394,2.3032,0.0,0.0,2.5249,2.6718,2.7643,2.7823,2.7859,2.7485,2.6671,2.655,2.6691,2.7122,2.6762,2.6399,2.6031,2.5749,2.5799,2.618,2.5989,2.676,2.8177,2.8292,2.8613,2.9067,2.9898,3.021,3.0301,3.1091,3.1623,3.2008,2.3484,2.4044,2.4335,2.4283,2.4174,2.4043,2.3959,2.3937,2.3917,2.3837,2.3996,2.4054,2.3855,2.3876,2.3717,2.3325,2.3077,2.343,2.4573,2.4437,2.4464,2.4911,2.4292,2.3427,2.2245,2.2052,2.1794,2.1558,2.0841,1.9857,1.8655,1.7778,1.7256,1.6978,1.6124,1.6092,1.6723,1.6774,1.7492,1.856,1.9013,2.0127,2.1512,2.162,2.2231,2.3071,2.3194,2.35,2.3855,2.3855,2.3939,2.4079,2.4358,2.4513,2.4642,2.4711,2.461,2.4491,2.458,2.4564,2.4512,2.4512,2.4532,2.45,2.4447,2.443,2.4411,2.4358,2.4375,2.4375,2.4266,2.4137,2.41,2.4375,2.4714,2.4929,2.4833,0.0,2.4508,2.4171,2.3319,2.2712,2.2605,2.2443,2.2208,2.1905,2.3208,2.402,0.0,2.5648,2.6748,2.7057,2.7451,2.7115,2.6102,2.5683,2.6131,2.7282,2.6609,2.6281,2.6281,2.6161,2.6341,2.6764,2.6934,2.7615,2.8626,2.8881,2.9067,2.925,3.0081,3.0467,3.0668,3.1458,3.2192,3.2797,2.2925,2.3432,2.3738,2.3738,2.3899,2.4057,2.4135,2.4114,2.4056,2.3981,2.4095,2.4052,2.3696,2.3768,2.3419,2.2407,2.224,2.2463,2.3093,2.356,2.3493,2.2731,2.3095,2.2598,2.1021,2.0447,2.0425,2.0949,2.0315,1.9482,1.8513,1.75,1.6994,1.6968,1.5914,1.6303,1.774,1.7471,1.819,1.9515,1.9693,2.0467,2.1584,2.2173,2.2768,2.332,2.3717,2.3937,2.4036,2.4036,2.4096,2.4229,2.4479,2.4613,2.4704,2.4818,2.4847,2.479,2.4645,2.458,2.458,2.458,2.4564,2.4582,2.4566,2.4566,2.4566,2.4566,2.4515,2.4482,2.4465,2.3748,2.3658,2.5059,2.4744,2.4478,2.4815,0.0,2.4467,2.3415,2.2859,2.2569,2.2596,2.2271,2.1873,2.1343,2.2134,2.2853,2.3394,2.4236,2.5018,2.5626,2.6141,2.6262,2.5995,2.6019,2.6421,2.7299,2.7161,2.7109,2.7092,2.6419,2.6618,2.752,2.7139,2.7615,2.8626,2.8881,2.9402,3.0099,3.0889,3.1623,3.232,3.3128,3.3513,3.3605,2.2825,2.3283,2.3588,2.3588,2.3816,2.4016,2.4077,2.4036,2.3958,2.3901,2.3955,2.3746,2.3081,2.3031,2.2668,2.169,2.1529,2.1736,2.2393,2.2859,2.3059,2.2914,2.2813,2.1932,2.0205,1.9778,1.964,1.9789,1.9559,1.9151,1.8466,1.7711,1.7461,1.7539,1.6523,1.6896,1.8198,1.8008,1.8733,2.0019,2.0494,2.1238,2.2167,2.2877,2.3401,2.3821,2.4077,2.4153,2.4153,2.4209,2.421,2.4248,2.4512,2.4657,2.4716,2.4861,2.4902,2.4888,2.4794,2.4764,2.4749,2.4726,2.4695,2.4679,2.4615,2.4599,2.4599,2.4599,2.4549,2.4498,2.45,2.4078,2.3989,2.469,2.5223,0.0,0.0,2.5523,2.5261,2.4435,2.3275,2.2579,2.2632,2.2332,2.2006,2.1827,2.2118,2.2458,2.2725,2.3655,2.4224,2.4323,2.5178,2.5744,2.6013,2.628,2.6725,2.7299,2.7299,2.7299,2.7282,2.6919,2.703,2.7478,2.7401,2.7745,2.836,2.8651,2.9338,3.0283,3.1091,3.188,3.2706,3.3495,3.3807,3.3807,2.2876,2.3265,2.3566,2.3649,2.3876,2.4036,2.4016,2.3976,2.3917,2.3876,2.3668,2.328,2.2584,2.2309,2.1819,2.099,2.0995,2.1288,2.1808,2.2244,2.2698,2.3129,2.241,2.1316,1.9812,1.9632,1.9367,1.8998,1.909,1.8852,1.8338,1.8001,1.7939,1.8104,1.7279,1.756,1.8628,1.8567,1.9236,2.0382,2.1132,2.1961,2.282,2.3419,2.3878,2.4228,2.4284,2.4266,2.4229,2.4284,2.4395,2.4506,2.4584,2.4786,2.4986,2.4945,2.4942,2.4955,2.4915,2.4902,2.4888,2.4846,2.4832,2.4746,2.4467,2.4545,2.4604,2.442,2.4482,2.4564,2.4515,2.4298,2.4264,2.4727,0.0,0.0,0.0,2.6255,2.5913,2.5366,2.371,2.2632,2.2738,2.2422,2.2212,2.2183,2.2118,2.2127,2.229,2.3133,2.3634,2.3793,2.4748,2.5556,2.6156,2.6505,2.6908,2.7299,2.7109,2.7109,2.7282,2.7109,2.7109,2.7313,2.7569,2.7946,2.8397,2.8727,2.9624,3.0815,3.1439,3.2173,3.2963,3.3568,3.3807,3.3807,2.2995,2.3265,2.3482,2.3735,2.4016,2.417,2.4094,2.4094,2.4074,2.3996,2.3282,2.2732,2.2616,2.1924,2.1108,2.0168,2.0816,2.1223,2.1104,2.1795,2.2185,2.2116,2.1263,2.0556,2.0005,1.9955,1.973,1.9273,1.9211,1.8767,1.7954,1.7906,1.8072,1.8346,1.7784,1.8208,1.9331,1.9322,1.9838,2.0749,2.1464,2.2329,2.3212,2.361,2.3959,2.421,2.4266,2.4284,2.4284,2.4284,2.4783,2.53,2.4773,2.5198,2.5786,2.5183,2.5087,2.5141,2.4955,2.4902,2.4902,2.4888,2.4888,2.4699,2.3933,2.4344,2.4652,2.3851,2.426,2.4726,2.4615,2.388,2.4019,2.6245,0.0,0.0,2.7372,2.6768,2.5881,2.5031,2.3568,2.2685,2.2868,2.246,2.2099,2.1864,2.1544,2.1649,2.2278,2.2157,2.2884,2.4634,2.5146,2.5779,2.6657,2.6691,2.6908,2.7282,2.654,2.6575,2.7264,2.654,2.6609,2.7313,2.7569,2.8293,2.9237,2.9575,3.0789,3.2449,3.2504,3.2999,3.3715,3.377,3.3807,3.3807,2.3194,2.3518,2.3795,2.3917,2.4075,2.4191,2.4172,2.4133,2.4094,2.4074,2.3303,2.2572,2.2025,2.1225,2.0373,1.9524,1.9723,2.001,2.0358,2.1144,2.1709,2.2046,2.1276,2.0745,2.0545,2.0342,1.9896,1.9174,1.8929,1.8676,1.8376,1.819,1.8455,1.9127,1.8917,1.9273,1.9963,2.0193,2.0799,2.1681,2.2218,2.2845,2.3566,2.3959,2.4504,2.5079,2.5207,2.5522,2.5931,2.595,2.6154,2.6265,2.5626,2.5654,2.5807,2.5189,2.5091,2.5179,2.5111,2.5094,2.5088,2.5038,2.4626,2.4138,2.3771,2.3941,2.3909,2.305,2.3455,2.3832,2.3281,2.2802,2.297,2.4336,0.0,2.4395,2.5283,2.4548,2.3963,2.4091,2.2814,2.2177,2.2841,2.2515,2.2123,2.1827,2.1691,2.1442,2.1016,2.1907,2.3276,2.518,2.5862,2.6367,2.6691,2.6957,2.6897,2.6557,2.6747,2.6747,2.6557,2.6764,2.7006,2.7299,2.7421,2.7859,2.8576,2.8703,2.9961,3.1861,3.1861,3.2651,3.3807,3.3807,3.3807,3.3807,2.35,2.3774,2.4016,2.4075,2.4172,2.4229,2.4229,2.4172,2.4042,2.3785,2.2995,2.2155,2.1333,2.0513,1.9843,1.9519,1.9702,2.012,2.0764,2.1453,2.1926,2.2169,2.1552,2.115,2.1023,2.0926,2.0292,1.9102,1.9472,1.9309,1.8662,1.9041,1.9546,2.0057,2.0139,2.0428,2.0878,2.1191,2.172,2.2432,2.2855,2.3323,2.3816,2.4154,2.4838,2.5616,2.5743,2.6301,2.6898,2.6693,2.6749,2.6749,2.5777,2.5522,2.5514,2.5152,2.5126,2.5233,2.5209,2.5187,2.5184,2.5132,2.4681,2.4155,2.3847,2.3758,2.3499,2.2621,2.2817,2.2992,2.241,2.2215,2.241,2.3103,2.3236,2.3413,2.3987,2.3227,2.2759,2.3271,2.2359,2.192,2.2526,2.2495,2.2293,2.1974,2.1886,2.142,2.05,2.1645,2.3147,2.489,2.5768,2.6398,2.6875,2.7137,2.7023,2.6488,2.6782,2.6764,2.6488,2.6782,2.7057,2.7299,2.7299,2.7739,2.8477,2.8477,2.9791,3.177,3.177,3.2614,3.3807,3.3807,3.3807,3.3807,2.3917,2.3996,2.4075,2.4266,2.4284,2.4284,2.4284,2.4229,2.3916,2.3124,2.2244,2.1403,2.0598,1.9792,1.9579,2.0261,2.1151,2.1954,2.256,2.2981,2.2954,2.2449,2.2096,2.1735,2.1339,2.1698,2.0987,1.9118,2.1045,2.0797,1.8574,2.0561,2.1341,2.1113,2.1315,2.167,2.2126,2.2329,2.2557,2.2853,2.331,2.3671,2.3937,2.421,2.4838,2.5616,2.5744,2.632,2.6879,2.6096,2.6339,2.6711,2.5038,2.4685,2.493,2.5061,2.5182,2.5274,2.5222,2.5192,2.5201,2.5203,2.5191,2.4962,2.411,2.39,2.361,2.2677,2.2494,2.2467,2.2311,2.2284,2.2525,2.3179,2.3281,2.3479,2.41,2.3364,2.2737,2.2715,2.2346,2.2036,2.192,2.2391,2.2579,2.231,2.2061,2.1623,2.1026,2.1335,2.222,2.3753,2.4609,2.5747,2.7282,2.7299,2.7299,2.7282,2.6488,2.6523,2.7247,2.6471,2.654,2.7299,2.7299,2.8067,2.9308,2.9308,3.0595,3.2596,3.2614,3.3091,3.3807,3.3807,3.3807,3.3807,2.4005,2.4247,2.4375,2.4429,2.4393,2.4358,2.4358,2.4303,2.3971,2.3178,2.2348,2.1742,2.1502,2.0715,2.0517,2.129,2.1603,2.2098,2.2832,2.2845,2.3055,2.356,2.2926,2.2405,2.2158,2.2384,2.2036,2.0996,2.1149,2.0947,2.0416,2.095,2.1503,2.2023,2.2479,2.2702,2.2803,2.2961,2.3194,2.3441,2.3631,2.4226,2.4983,2.4543,2.5245,2.6451,2.6019,2.6392,2.7027,2.6784,2.6877,2.6895,2.5759,2.5139,2.4842,2.4869,2.4981,2.5106,2.5126,2.4675,2.4377,2.5042,2.4317,2.3532,2.3834,2.2993,2.2076,2.1788,2.2185,2.2186,2.0906,2.1607,2.2222,2.1761,2.1695,2.1898,2.2506,2.1252,2.0693,2.1808,2.1529,2.1419,2.1867,2.2391,2.2579,2.231,2.183,2.1715,2.2112,2.276,2.3581,2.4626,2.5919,2.6833,2.7299,2.7299,2.7023,2.6471,2.6782,2.6764,2.6471,2.6799,2.7075,2.7299,2.7299,2.7618,2.8246,2.898,3.016,3.1528,3.2316,3.3091,3.3807,3.3807,3.3807,3.3807,2.4799,2.5277,2.557,2.557,2.5536,2.5389,2.5001,2.4929,2.4374,2.2859,2.2214,2.1789,2.1456,2.096,2.1108,2.2251,2.2676,2.3098,2.3644,2.3521,2.3688,2.4221,2.3801,2.3372,2.3017,2.3244,2.2954,2.2167,2.2321,2.2159,2.1679,2.2062,2.2476,2.2902,2.3264,2.3459,2.3482,2.3613,2.3696,2.3795,2.3939,2.4389,2.4911,2.456,2.528,2.6413,2.6053,2.6408,2.7045,2.6743,2.6407,2.6015,2.5529,2.5098,2.4799,2.4818,2.4921,2.4968,2.4667,2.4213,2.3892,2.4113,2.3437,2.2844,2.3301,2.2651,2.1905,2.1924,2.2284,2.2174,2.0758,2.1597,2.206,2.0766,2.0795,2.104,2.1311,2.0099,1.9656,2.0862,2.1089,2.1221,2.1411,2.2004,2.2255,2.1963,2.1361,2.1456,2.2581,2.3116,2.3884,2.4971,2.6195,2.6971,2.7299,2.7299,2.7057,2.6575,2.7057,2.704,2.6592,2.7075,2.7299,2.7316,2.7609,2.7962,2.8399,2.9383,3.053,3.1709,3.2334,3.3091,3.3844,3.4174,3.4082,3.388,2.5946,2.6526,2.7015,2.7182,2.7071,2.6735,2.6032,2.5794,2.4828,2.2458,2.202,2.1655,2.0914,2.0834,2.151,2.3212,2.4081,2.4591,2.4727,2.4674,2.4618,2.4591,2.469,2.4492,2.396,2.4153,2.3829,2.2908,2.4108,2.3962,2.264,2.3573,2.3908,2.3761,2.3834,2.3994,2.4223,2.4209,2.4115,2.3958,2.4191,2.4266,2.4246,2.441,2.5034,2.5794,2.5789,2.6257,2.6762,2.6049,2.5265,2.4631,2.4682,2.4749,2.4809,2.4884,2.4966,2.4905,2.4124,2.3888,2.3694,2.2917,2.2718,2.271,2.27,2.2642,2.2613,2.268,2.2717,2.2456,2.1573,2.2114,2.2137,2.041,2.0615,2.0937,2.0754,1.9906,1.9535,2.0137,2.0969,2.1283,2.0762,2.1511,2.191,2.1627,2.1045,2.1352,2.2823,2.2988,2.366,2.5057,2.5833,2.6557,2.7282,2.7299,2.7299,2.7299,2.7299,2.7299,2.7299,2.7299,2.7299,2.7333,2.8075,2.8736,2.9323,3.0243,3.1379,3.2562,3.2661,3.3146,3.3899,3.4724,3.4541,3.4164,2.5737,2.559,2.5646,2.6958,2.6113,2.5627,2.6735,2.578,2.4511,2.333,2.257,2.2083,2.1976,2.1925,2.2576,2.4302,2.4724,2.4929,2.4998,2.505,2.5126,2.5274,2.5213,2.5151,2.5123,2.4935,2.4723,2.45,2.4519,2.4448,2.4266,2.4099,2.4371,2.4976,2.4487,2.4598,2.5093,2.458,2.4303,2.421,2.4209,2.4653,2.5208,2.4579,2.4947,2.5719,2.5153,2.5075,2.5188,2.5014,2.4873,2.4753,2.4707,2.4753,2.4775,2.4749,2.4772,2.4764,2.4671,2.422,2.3712,2.3643,2.3179,2.2766,2.2719,2.2202,2.1942,2.2575,2.3186,2.3356,2.2479,2.2989,2.3163,2.2036,2.1854,2.1999,2.2458,2.1145,2.0405,2.1115,2.1368,2.1283,2.0762,2.2203,2.3123,2.3112,2.3596,2.4076,2.4488,2.5057,2.5523,2.585,2.6626,2.7109,2.7299,2.7299,2.7299,2.7299,2.7299,2.7299,2.7299,2.7299,2.7299,2.7333,2.8075,2.861,2.9112,3.0754,3.1779,3.2356,3.3213,3.3642,3.3899,3.4825,3.5054,3.5146,2.5431,2.5789,2.6431,2.7695,2.6862,2.6314,2.717,2.6192,2.493,2.371,2.3117,2.2853,2.2914,2.29,2.3417,2.4774,2.4981,2.5103,2.5226,2.5284,2.555,2.6094,2.5639,2.5632,2.6167,2.5538,2.5191,2.5194,2.4896,2.4791,2.4832,2.4409,2.4672,2.5523,2.5206,2.5244,2.5542,2.5277,2.478,2.4172,2.4411,2.4652,2.4856,2.4594,2.4825,2.5225,2.4829,2.4695,2.4695,2.4738,2.4764,2.4794,2.4768,2.4764,2.4779,2.4723,2.4711,2.4636,2.4312,2.3944,2.3569,2.3251,2.2965,2.2748,2.2748,2.2709,2.2805,2.3237,2.3964,2.4258,2.3392,2.3904,2.3998,2.2584,2.2562,2.2794,2.2976,2.1494,2.0824,2.193,2.1387,2.0912,2.0888,2.2302,2.3081,2.2781,2.3089,2.3639,2.4402,2.5178,2.5747,2.6092,2.6885,2.7299,2.7299,2.7299,2.7299,2.7299,2.7299,2.7471,2.7799,2.7454,2.7678,2.8368,2.8765,2.9343,3.0099,3.1613,3.2421,3.2788,3.3515,3.3807,3.3899,3.4843,3.5708,3.651,2.5517,2.6474,2.7671,2.8745,2.8061,2.7409,2.7616,2.6683,2.5432,2.4052,2.3671,2.3577,2.3636,2.3795,2.4189,2.4986,2.5115,2.5234,2.5418,2.5423,2.5781,2.6571,2.5914,2.5876,2.6646,2.5831,2.541,2.5379,2.5128,2.4955,2.4874,2.4588,2.4889,2.5689,2.5629,2.5647,2.5706,2.5761,2.5127,2.4135,2.4561,2.4512,2.4192,2.4545,2.4692,2.4707,2.4723,2.4719,2.4734,2.4798,2.4808,2.4808,2.4794,2.4808,2.4808,2.4738,2.4723,2.4572,2.3911,2.3771,2.365,2.2999,2.2958,2.3111,2.316,2.3621,2.4005,2.3995,2.4656,2.4988,2.4268,2.458,2.446,2.2967,2.3187,2.3489,2.3346,2.199,2.1553,2.2966,2.1914,2.1221,2.1628,2.2664,2.297,2.2163,2.2167,2.2781,2.4115,2.4833,2.554,2.6281,2.6954,2.7351,2.7489,2.7351,2.742,2.7678,2.7678,2.792,2.8385,2.7764,2.8213,2.9506,2.9644,3.0265,3.128,3.2364,3.2983,3.335,3.368,3.3807,3.3944,3.5036,3.6408,3.7738,2.6991,2.6925,2.7318,2.9531,2.8152,2.7146,2.8427,2.6727,2.5229,2.4937,2.4239,2.3776,2.3847,2.4575,2.5126,2.5253,2.5313,2.5404,2.548,2.554,2.5655,2.5839,2.5675,2.5613,2.5693,2.5564,2.5434,2.5299,2.5087,2.4929,2.4808,2.4704,2.5026,2.5688,2.5101,2.5209,2.5753,2.5126,2.4735,2.4526,2.454,2.4491,2.4442,2.4512,2.4594,2.4707,2.4783,2.4823,2.4861,2.4823,2.4851,2.4874,2.4823,2.4851,2.4874,2.4808,2.4798,2.476,2.4647,2.4672,2.4709,2.4582,2.4638,2.4695,2.4702,2.4383,2.4072,2.4005,2.4686,2.5222,2.5064,2.4407,2.4031,2.4403,2.43,2.4394,2.4984,2.4168,2.385,2.4743,2.4465,2.4159,2.4046,2.4593,2.4547,2.3519,2.4115,2.4919,2.5747,2.5902,2.6316,2.7109,2.723,2.7609,2.8247,2.7609,2.7937,2.9213,2.9213,2.892,2.8403,2.8299,2.8713,2.9541,3.0231,3.0786,3.128,3.2364,3.3045,3.3419,3.3707,3.386,3.4079,3.5725,3.698,3.7978,2.6255,2.6456,2.72,2.9194,2.7527,2.6458,2.8049,2.6518,2.5215,2.5255,2.4873,2.4599,2.4668,2.5053,2.534,2.5404,2.5448,2.5485,2.5554,2.559,2.5835,2.6353,2.5874,2.5801,2.6214,2.5669,2.5341,2.5233,2.5125,2.498,2.4802,2.4723,2.511,2.5813,2.5541,2.5611,2.5893,2.56,2.512,2.4543,2.4682,2.4636,2.4512,2.4626,2.4704,2.4764,2.4837,2.4874,2.4902,2.494,2.4985,2.5012,2.4972,2.4985,2.498,2.4893,2.4837,2.4794,2.4794,2.4779,2.4783,2.4783,2.4884,2.4934,2.4893,2.4727,2.4587,2.4522,2.4815,2.5057,2.5,2.4585,2.4322,2.4548,2.4832,2.4931,2.4705,2.4737,2.4716,2.4604,2.4826,2.499,2.4901,2.5269,2.5332,2.4866,2.4923,2.5333,2.6074,2.654,2.6937,2.7282,2.7696,2.7868,2.7782,2.7868,2.8454,2.9506,2.9955,3.0213,3.0282,2.9868,3.03,3.1403,3.1424,3.1686,3.2212,3.3133,3.3615,3.3815,3.3845,3.4215,3.4892,3.6102,3.7126,3.8024]},{"header":{"parameterUnit":"m.s-1","parameterCategory":1,"la1":30.6,"la2":28.766,"lo1":-90.7593,"lo2":-88.6598,"dy":0.0162,"dx":0.0183,"nx":116,"ny":114,"refTime":"2023-08-22T06:00:00:Z","depth":0,"parameterNumber":3,"parameterNumberName":"V-component_of_WINDS"},"data":[0.0,0.0,0.0,0.0,0.0,0.0,0.0,0.0,0.0,0.0,0.0,0.0,0.0,0.0,0.0,0.0,0.0,0.0,0.0,0.0,0.0,0.0,0.0,0.0,0.0,0.0,0.0,0.0,0.0,0.0,0.0,0.0,0.0,0.0,0.0,0.0,0.0,0.0,0.0,0.0,0.0,0.0,0.0,0.0,0.0,0.0,0.0,0.0,0.0,0.0,0.0,0.0,0.0,0.0,0.0,0.0,0.0,0.0,0.0,0.0,0.0,0.0,0.0,0.0,0.0,0.0,0.0,0.0,0.0,0.0,0.0,0.0,0.0,0.0,0.0,0.0,0.0,0.0,0.0,0.0,0.0,0.0,0.0,0.0,0.0,0.0,0.0,0.0,0.0,0.0,0.0,0.0,0.0,0.0,0.0,0.0,0.0,0.0,0.0,0.0,0.0,0.0,0.0,0.0,0.0,0.0,0.0,0.0,0.0,0.0,0.0,0.0,0.0,0.0,0.0,0.0,0.0,0.0,0.0,0.0,0.0,0.0,0.0,0.0,0.0,0.0,0.0,0.0,0.0,0.0,0.0,0.0,0.0,0.0,0.0,0.0,0.0,0.0,0.0,0.0,0.0,0.0,0.0,0.0,0.0,0.0,0.0,0.0,0.0,0.0,0.0,0.0,0.0,0.0,0.0,0.0,0.0,0.0,0.0,0.0,0.0,0.0,0.0,0.0,0.0,0.0,0.0,0.0,0.0,0.0,0.0,0.0,0.0,0.0,0.0,0.0,0.0,0.0,0.0,0.0,0.0,0.0,0.0,0.0,0.0,0.0,0.0,0.0,0.0,0.0,0.0,0.0,0.0,0.0,0.0,0.0,0.0,0.0,0.0,0.0,0.0,0.0,0.0,0.0,0.0,0.0,0.0,0.0,0.0,0.0,0.0,0.0,0.0,0.0,0.0,0.0,0.0,0.0,0.0,0.0,0.0,0.0,0.0,0.0,0.0,0.0,0.0,0.0,0.0,0.0,0.0,0.0,0.0,0.0,0.0,0.0,0.0,0.0,0.0,0.0,0.0,0.0,0.0,0.0,0.0,0.0,0.0,0.0,0.0,0.0,0.0,0.0,0.0,0.0,0.0,0.0,0.0,0.0,0.0,0.0,0.0,0.0,0.0,0.0,0.0,0.0,0.0,0.0,0.0,0.0,0.0,0.0,0.0,0.0,0.0,0.0,0.0,0.0,0.0,0.0,0.0,0.0,0.0,0.0,0.0,0.0,0.0,0.0,0.0,0.0,0.0,0.0,0.0,0.0,0.0,0.0,0.0,0.0,0.0,0.0,0.0,0.0,0.0,0.0,0.0,0.0,0.0,0.0,0.0,0.0,0.0,0.0,0.0,0.0,0.0,0.0,0.0,0.0,0.0,0.0,0.0,0.0,0.0,0.0,0.0,0.0,0.0,0.0,0.0,0.0,0.0,0.0,0.0,0.0,0.0,0.0,0.0,0.0,0.0,0.0,0.0,0.0,0.0,0.0,0.0,0.0,0.0,0.0,0.0,0.0,0.0,0.0,0.0,0.0,0.0,0.0,0.0,0.0,0.0,0.0,0.0,0.0,0.0,0.0,0.0,0.0,0.0,0.0,0.0,0.0,0.0,0.0,0.0,0.0,0.0,0.0,0.0,0.0,0.0,0.0,0.0,0.0,0.0,0.0,0.0,0.0,0.0,0.0,0.0,0.0,0.0,0.0,0.0,0.0,0.0,0.0,0.0,0.0,0.0,0.0,0.0,0.0,0.0,0.0,0.0,0.0,0.0,0.0,0.0,0.0,0.0,0.0,0.0,0.0,0.0,0.0,0.0,0.0,0.0,0.0,0.0,0.0,0.0,0.0,0.0,0.0,0.0,0.0,0.0,0.0,0.0,0.0,0.0,0.0,0.0,0.0,0.0,0.0,0.0,0.0,0.0,0.0,0.0,0.0,0.0,0.0,0.0,0.0,0.0,0.0,0.0,0.0,0.0,0.0,0.0,0.0,0.0,0.0,0.0,0.0,0.0,0.0,0.0,0.0,0.0,0.0,0.0,0.0,0.0,0.0,0.0,0.0,0.0,0.0,0.0,0.0,0.0,0.0,0.0,0.0,0.0,0.0,0.0,0.0,0.0,0.0,0.0,0.0,0.0,0.0,0.0,0.0,0.0,0.0,0.0,0.0,0.0,0.0,0.0,0.0,0.0,0.0,0.0,0.0,0.0,0.0,0.0,0.0,0.0,0.0,0.0,0.0,0.0,0.0,0.0,0.0,0.0,0.0,0.0,0.0,0.0,0.0,0.0,0.0,0.0,0.0,0.0,0.0,0.0,0.0,0.0,0.0,0.0,0.0,0.0,0.0,0.0,0.0,0.0,0.0,0.0,0.0,0.0,0.0,0.0,0.0,0.0,0.0,0.0,0.0,0.0,0.0,0.0,0.0,0.0,0.0,0.0,0.0,0.0,0.0,0.0,0.0,0.0,0.0,0.0,0.0,0.0,0.0,0.0,0.0,0.0,0.0,0.0,0.0,0.0,0.0,0.0,0.0,0.0,0.0,0.0,0.0,0.0,0.0,0.0,0.0,0.0,0.0,0.0,0.0,0.0,0.0,0.0,0.0,0.0,0.0,0.0,0.0,0.0,0.0,0.0,0.0,0.0,0.0,0.0,0.0,0.0,0.0,0.0,0.0,0.0,0.0,0.0,0.0,0.0,0.0,0.0,0.0,0.0,0.0,0.0,0.0,0.0,0.0,0.0,0.0,0.0,0.0,0.0,0.0,0.0,0.0,0.0,0.0,0.0,0.0,0.0,0.0,0.0,0.0,0.0,0.0,0.0,0.0,0.0,0.0,0.0,0.0,0.0,0.0,0.0,0.0,0.0,0.0,0.0,0.0,0.0,0.0,0.0,0.0,0.0,0.0,0.0,0.0,0.0,0.0,0.0,0.0,0.0,0.0,0.0,0.0,0.0,0.0,0.0,0.0,0.0,0.0,0.0,0.0,0.0,0.0,0.0,0.0,0.0,0.0,0.0,0.0,0.0,0.0,0.0,0.0,0.0,0.0,0.0,0.0,0.0,0.0,0.0,0.0,0.0,0.0,0.0,0.0,0.0,0.0,0.0,0.0,0.0,0.0,0.0,0.0,0.0,0.0,0.0,0.0,0.0,0.0,0.0,0.0,0.0,0.0,0.0,0.0,0.0,0.0,0.0,0.0,0.0,0.0,0.0,0.0,0.0,0.0,0.0,0.0,0.0,0.0,0.0,0.0,0.0,0.0,0.0,0.0,0.0,0.0,0.0,0.0,0.0,0.0,0.0,0.0,0.0,0.0,0.0,0.0,0.0,0.0,0.0,0.0,0.0,0.0,0.0,0.0,0.0,0.0,0.0,0.0,0.0,0.0,0.0,0.0,0.0,0.0,0.0,0.0,0.0,0.0,0.0,0.0,0.0,0.0,0.0,0.0,0.0,0.0,0.0,0.0,0.0,0.0,0.0,0.0,0.0,0.0,0.0,0.0,0.0,0.0,0.0,0.0,0.0,0.0,0.0,0.0,0.0,0.0,0.0,0.0,0.0,0.0,0.0,0.0,0.0,0.0,0.0,0.0,0.0,0.0,0.0,0.0,0.0,0.0,0.0,0.0,0.0,0.0,0.0,0.0,0.0,0.0,0.0,0.0,0.0,0.0,0.0,0.0,0.0,0.0,0.0,0.0,0.0,0.0,0.0,0.0,0.0,0.0,0.0,0.0,0.0,0.0,0.0,0.0,0.0,0.0,0.0,0.0,0.0,0.0,0.0,0.0,0.0,0.0,0.0,0.0,0.0,0.0,0.0,0.0,0.0,0.0,0.0,0.0,0.0,0.0,0.0,0.0,0.0,0.0,0.0,0.0,0.0,0.0,0.0,0.0,0.0,0.0,0.0,0.0,0.0,0.0,0.0,0.0,0.0,0.0,0.0,0.0,0.0,0.0,0.0,0.0,0.0,0.0,0.0,0.0,0.0,0.0,0.0,0.0,0.0,0.0,0.0,0.0,0.0,0.0,0.0,0.0,0.0,0.0,0.0,0.0,0.0,0.0,0.0,0.0,0.0,0.0,0.0,0.0,0.0,0.0,0.0,0.0,0.0,0.0,0.0,0.0,0.0,0.0,0.0,0.0,0.0,0.0,0.0,0.0,0.0,0.0,0.0,0.0,0.0,0.0,0.0,0.0,0.0,0.0,0.0,0.0,0.0,0.0,0.0,0.0,0.0,0.0,0.0,0.0,0.0,0.0,0.0,0.0,0.0,0.0,0.0,0.0,0.0,0.0,0.0,0.0,0.0,0.0,0.0,0.0,0.0,0.0,0.0,0.0,0.0,0.0,0.0,0.0,0.0,0.0,0.0,0.0,0.0,0.0,0.0,0.0,0.0,0.0,0.0,0.0,0.0,0.0,0.0,0.0,0.0,0.0,0.0,0.0,0.0,0.0,0.0,0.0,0.0,0.0,0.0,0.0,0.0,0.0,0.0,0.0,0.0,0.0,0.0,0.0,0.0,0.0,0.0,0.0,0.0,0.0,0.0,0.0,0.0,0.0,0.0,0.0,0.0,0.0,0.0,0.0,0.0,0.0,0.0,0.0,0.0,0.0,0.0,0.0,0.0,0.0,0.0,0.0,0.0,0.0,0.0,0.0,0.0,0.0,0.0,0.0,0.0,0.0,0.0,0.0,0.0,0.0,0.0,0.0,0.0,0.0,0.0,0.0,0.0,0.0,0.0,0.0,0.0,0.0,0.0,0.0,0.0,0.0,0.0,0.0,0.0,0.0,0.0,0.0,0.0,0.0,0.0,0.0,0.0,0.0,0.0,0.0,0.0,0.0,0.0,0.0,0.0,0.0,0.0,0.0,0.0,0.0,0.0,0.0,0.0,0.0,0.0,0.0,0.0,0.0,0.0,0.0,0.0,0.0,0.0,0.0,0.0,0.0,0.0,0.0,0.0,0.0,0.0,0.0,0.0,0.0,0.0,0.0,0.0,0.0,0.0,0.0,0.0,0.0,0.0,0.0,0.0,0.0,0.0,0.0,0.0,0.0,0.0,0.0,0.0,0.0,0.0,0.0,0.0,0.0,0.0,0.0,0.0,0.0,0.0,0.0,0.0,0.0,0.0,0.0,0.0,0.0,0.0,0.0,0.0,0.0,0.0,0.0,0.0,0.0,0.0,0.0,0.0,0.0,0.0,0.0,0.0,0.0,0.0,0.0,0.0,0.0,0.0,0.0,0.0,0.0,0.0,0.0,0.0,0.0,0.0,0.0,0.0,0.0,0.0,0.0,0.0,0.0,0.0,0.0,0.0,0.0,0.0,0.0,0.0,0.0,0.0,0.0,0.0,0.0,0.0,0.0,0.0,0.0,0.0,0.0,0.0,0.0,0.0,0.0,0.0,0.0,0.0,0.0,0.0,0.0,0.0,0.0,0.0,0.0,0.0,0.0,0.0,0.0,0.0,0.0,0.0,0.0,0.0,0.0,0.0,0.0,0.0,0.0,0.0,0.0,0.0,0.0,0.0,0.0,0.0,0.0,0.0,0.0,0.0,0.0,0.0,0.0,0.0,0.0,0.0,0.0,0.0,0.0,0.0,0.0,0.0,0.0,0.0,0.0,0.0,0.0,0.0,0.0,0.0,0.0,0.0,0.0,0.0,0.0,0.0,0.0,0.0,0.0,0.0,0.0,0.0,0.0,0.0,0.0,0.0,0.0,0.0,0.0,0.0,0.0,0.0,0.0,0.0,0.0,0.0,0.0,0.0,0.0,0.0,0.0,0.0,0.0,0.0,0.0,0.0,0.0,0.0,0.0,0.0,0.0,0.0,0.0,0.0,0.0,0.0,0.0,0.0,0.0,0.0,0.0,0.0,0.0,0.0,0.0,0.0,0.0,0.0,0.0,0.0,0.0,0.0,0.0,0.0,0.0,0.0,0.0,0.0,0.0,0.0,0.0,0.0,0.0,0.0,0.0,0.0,0.0,0.0,0.0,0.0,0.0,0.0,0.0,0.0,0.0,0.0,0.0,0.0,0.0,0.0,0.0,0.0,0.0,0.0,0.0,0.0,0.0,0.0,0.0,0.0,0.0,2.1566,0.0,0.0,0.0,0.0,0.0,0.0,0.0,0.0,0.0,0.0,0.0,0.0,0.0,0.0,0.0,0.0,0.0,0.0,0.0,0.0,0.0,0.0,0.0,0.0,0.0,0.0,0.0,0.0,0.0,0.0,0.0,0.0,0.0,0.0,0.0,0.0,0.0,0.0,3.3328,3.2688,3.0366,2.6495,2.7231,3.1186,3.7727,0.0,0.0,0.0,0.0,0.0,0.0,0.0,0.0,0.0,0.0,0.0,0.0,0.0,0.0,0.0,0.0,0.0,0.0,0.0,0.0,0.0,0.0,0.0,0.0,0.0,0.0,0.0,0.0,0.0,0.0,0.0,0.0,0.0,0.0,0.0,0.0,0.0,0.0,0.0,0.0,0.0,0.0,0.0,0.0,0.0,0.0,0.0,0.0,0.0,0.0,0.0,0.0,0.0,0.0,0.0,0.0,0.0,0.0,0.0,0.0,0.0,0.0,0.0,0.0,0.0,0.0,0.0,0.0,0.0,0.0,0.0,1.6683,0.0,0.0,0.0,0.0,0.0,0.0,0.0,0.0,0.0,0.0,0.0,0.0,0.0,0.0,0.0,0.0,0.0,0.0,0.0,0.0,0.0,0.0,0.0,3.2286,3.3327,3.529,3.5601,3.5697,0.0,0.0,0.0,0.0,0.0,0.0,0.0,3.366,3.3896,3.3587,2.983,2.5061,1.9449,1.7303,2.2059,3.2438,3.4842,0.0,0.0,0.0,0.0,0.0,0.0,0.0,0.0,0.0,0.0,0.0,0.0,0.0,0.0,0.0,0.0,0.0,0.0,0.0,0.0,0.0,0.0,0.0,0.0,0.0,0.0,0.0,0.0,0.0,0.0,0.0,0.0,0.0,0.0,0.0,0.0,0.0,0.0,0.0,0.0,0.0,0.0,0.0,0.0,0.0,0.0,0.0,0.0,0.0,0.0,0.0,0.0,0.0,0.0,0.0,0.0,0.0,0.0,0.0,0.0,0.0,0.0,0.0,1.238,1.1066,1.0252,0.9126,0.7663,0.6066,0.7376,0.9723,1.2694,0.0,0.0,0.0,0.0,0.0,0.0,0.0,0.0,0.0,0.0,0.0,0.0,0.0,0.0,0.0,0.0,0.0,0.0,0.0,0.0,0.0,0.0,3.243,3.3721,3.628,3.5966,3.5907,3.6576,0.0,0.0,0.0,0.0,0.0,3.3768,3.4079,3.3363,3.1488,2.3496,1.8029,1.5019,1.2743,1.2256,1.3447,1.6369,1.7152,1.6797,0.0,0.0,0.0,0.0,0.0,0.0,0.0,0.0,0.0,0.0,0.0,0.0,0.0,0.0,0.0,0.0,0.0,0.0,0.0,0.0,0.0,0.0,0.0,0.0,0.0,0.0,0.0,0.0,0.0,0.0,0.0,0.0,0.0,0.0,0.0,0.0,0.0,0.0,0.0,0.0,0.0,2.9242,2.856,0.0,0.0,0.0,0.0,0.0,0.0,0.0,0.0,0.0,0.0,0.0,0.0,0.0,1.5681,1.3907,1.3453,1.2546,1.1039,0.9869,0.8689,0.7497,0.5424,0.4216,0.3886,0.3094,0.0,0.7247,0.8924,0.0,0.0,0.0,0.0,0.0,0.0,0.0,0.0,0.0,0.0,0.0,0.0,0.0,0.0,0.0,0.0,0.0,0.0,0.0,0.0,0.0,3.2168,3.324,3.5857,3.5172,3.5028,3.6065,3.5542,0.0,0.0,0.0,3.5014,3.4132,3.3219,2.9272,2.2204,1.5489,0.9317,0.3728,0.0076,-0.2717,-0.4658,-0.4323,0.1252,1.0677,1.4119,0.0,0.0,0.0,0.0,0.0,0.0,0.0,0.0,0.0,0.0,0.0,0.0,0.0,0.0,0.0,0.0,0.0,0.0,0.0,0.0,0.0,0.0,0.0,0.0,0.0,0.0,0.0,0.0,0.0,0.0,0.0,0.0,0.0,0.0,0.0,0.0,0.0,0.0,0.0,2.8383,2.6043,2.4173,2.4017,2.3877,0.0,0.0,0.0,0.0,0.0,0.0,0.0,0.0,0.0,1.5557,1.4826,1.3717,1.205,1.1836,1.1059,0.9809,0.8578,0.7418,0.613,0.44,0.3275,0.2575,0.1998,0.2848,0.4847,0.6956,0.9823,1.3375,0.0,0.0,0.0,0.0,2.3229,2.3644,0.0,0.0,0.0,0.0,0.0,0.0,0.0,0.0,0.0,0.0,0.0,0.0,3.1555,3.1597,3.2261,3.4227,3.3146,3.2746,3.3728,3.3436,3.3415,3.3848,3.4478,3.4395,3.3477,2.9948,2.3201,1.3275,0.7921,0.1645,-0.5628,-1.0001,-1.3497,-1.6229,-1.7997,-1.1207,0.1732,0.3042,0.7566,1.4013,0.0,0.0,0.0,0.0,0.0,0.0,0.0,0.0,0.0,0.0,0.0,0.0,0.0,0.0,0.0,0.0,0.0,0.0,0.0,0.0,0.0,0.0,0.0,0.0,0.0,0.0,0.0,0.0,0.0,0.0,0.0,0.0,0.0,0.0,0.0,0.0,0.0,2.6046,2.3665,2.0762,2.1327,2.1438,0.0,0.0,0.0,0.0,0.0,0.0,1.753,1.6769,1.5512,1.3247,1.3103,1.2297,1.0767,1.0512,0.9709,0.8351,0.7376,0.6051,0.4414,0.3582,0.2686,0.177,0.1748,0.2405,0.364,0.5856,0.8628,1.1937,1.4844,1.789,2.0815,2.0696,2.1071,2.177,0.0,0.0,0.0,0.0,0.0,0.0,0.0,0.0,0.0,0.0,0.0,2.9471,3.0471,3.0576,3.0705,3.1107,2.9431,2.8508,2.8843,2.887,2.9493,3.0772,3.2541,3.276,3.12,2.3103,1.523,0.7668,0.1841,-0.3751,-0.8897,-1.2451,-1.5007,-1.6944,-1.8905,-1.9041,-1.7261,-0.9302,-0.5491,-0.4182,0.3565,0.0,0.0,0.0,0.0,0.0,0.0,0.0,0.0,0.0,0.0,0.0,0.0,0.0,0.0,0.0,0.0,0.0,0.0,0.0,0.0,0.0,0.0,0.0,0.0,0.0,0.0,0.0,0.0,0.0,0.0,0.0,0.0,0.0,0.0,0.0,0.0,0.0,0.0,2.0462,1.9959,0.0,0.0,0.0,0.0,1.9348,1.8525,1.7612,1.6625,1.487,1.3277,1.1996,1.15,1.0774,0.9916,0.9483,0.8124,0.5954,0.555,0.4118,0.1922,0.1817,0.1817,0.1709,0.1707,0.2346,0.3413,0.4996,0.7778,1.1256,1.3636,1.6095,1.8452,1.9416,1.9805,2.0103,0.0,0.0,0.0,0.0,0.0,0.0,0.0,0.0,2.7387,2.8142,2.8667,2.9074,2.9317,2.9148,2.94,3.0369,2.783,2.7107,2.9326,2.823,2.8554,3.0946,3.1199,2.9259,2.4908,1.8566,1.1269,0.3064,-0.1781,-0.674,-1.1786,-1.524,-1.7808,-1.9639,-2.1366,-2.211,-2.1787,-1.8572,-1.3712,-0.7863,-0.4108,0.1953,0.0,0.0,0.0,0.0,0.0,0.0,0.0,0.0,0.0,0.0,0.0,0.0,0.0,0.0,0.0,0.0,0.0,0.0,0.0,0.0,0.0,0.0,0.0,0.0,0.0,0.0,0.0,0.0,0.0,0.0,0.0,0.0,0.0,0.0,0.0,0.0,0.0,1.9403,1.9502,0.0,1.6924,1.764,1.7771,1.6632,1.5855,1.5027,1.3881,1.2892,1.1737,1.0425,1.0153,0.9845,0.9391,0.9042,0.8094,0.6654,0.5638,0.4384,0.2875,0.2023,0.1704,0.1703,0.2419,0.3472,0.4876,0.6889,0.8987,1.1097,1.3017,1.5645,1.8284,1.7881,1.8138,1.8728,0.0,0.0,0.0,0.0,0.0,0.0,0.0,0.0,2.7457,2.8291,2.8576,2.8601,2.8324,2.7964,2.7783,2.7859,2.5005,2.4156,2.6392,2.5358,2.6108,2.936,2.8629,2.5435,1.9666,1.409,0.7265,-0.0774,-0.4865,-0.9077,-1.3475,-1.6491,-1.8815,-2.06,-2.1959,-2.284,-2.321,-2.2838,-1.9111,-1.3421,-1.2639,-0.7338,0.0539,0.0,0.0,0.0,0.0,0.0,0.0,0.0,0.0,0.0,0.0,0.0,0.0,0.0,0.0,0.0,0.0,0.0,0.0,0.0,0.0,0.0,0.0,0.0,0.0,0.0,0.0,0.0,0.0,0.0,0.0,0.0,0.0,0.0,0.0,0.0,2.1574,1.876,1.9098,1.872,1.6754,1.6829,1.6627,1.5658,1.4421,1.331,1.2436,1.1504,1.0669,0.9576,0.9259,0.9106,0.9005,0.8331,0.7422,0.6363,0.5108,0.3919,0.2773,0.2068,0.1654,0.1746,0.2854,0.4091,0.5565,0.7849,0.9723,1.1245,1.3105,1.5376,1.7476,1.6701,1.6891,1.7623,0.0,0.0,0.0,0.0,0.0,0.0,0.0,2.8539,2.8427,2.8721,2.8496,2.8076,2.7501,2.7046,2.5827,2.3533,2.1033,1.9653,1.9826,2.0096,2.193,2.5744,2.4761,2.1537,1.5881,0.9542,0.302,-0.3708,-0.7522,-1.0918,-1.3929,-1.6073,-1.7986,-1.9651,-2.04,-2.1419,-2.2446,-2.2187,-2.1905,-2.1667,-2.1912,-1.9294,-1.4673,0.0,0.0,0.0,0.0,0.0,0.0,0.0,0.0,0.0,0.0,0.0,0.0,0.0,0.0,0.0,0.0,0.0,0.0,0.0,0.0,0.0,0.0,0.0,0.0,0.0,0.0,0.0,0.0,0.0,0.0,0.0,0.0,0.0,2.3287,2.2042,2.0434,1.8445,1.8576,1.8577,1.7695,1.7258,1.6822,1.6564,1.4244,1.2767,1.2566,1.0735,0.9749,0.9578,0.8955,0.8693,0.8682,0.7313,0.6014,0.5012,0.3944,0.2714,0.1524,0.1555,0.1552,0.162,0.2909,0.4098,0.5352,0.7594,0.967,1.1702,1.375,1.5061,1.5772,1.5785,1.6144,1.6847,0.0,0.0,0.0,0.0,0.0,0.0,0.0,2.8878,2.8589,2.8204,2.8279,2.7719,2.602,2.5797,2.543,2.4524,2.2469,2.1828,2.3139,2.2063,2.2072,2.3678,2.2083,1.869,1.3317,0.7328,0.1297,-0.4773,-0.8221,-1.1397,-1.4365,-1.5805,-1.7631,-1.9552,-2.019,-2.0772,-2.1295,-2.1613,-2.1361,-2.0807,-2.0893,-1.9566,-1.7417,0.0,0.0,0.0,0.0,0.0,0.0,0.0,0.0,0.0,0.0,0.0,0.0,0.0,0.0,0.0,0.0,0.0,0.0,0.0,0.0,0.0,0.0,0.0,0.0,0.0,0.0,0.0,0.0,0.0,0.0,0.0,0.0,2.1825,2.1046,2.0656,1.9945,1.8555,1.8655,1.8394,1.7041,1.6758,1.5873,1.3953,1.2979,1.1854,1.066,1.0101,0.9435,0.8941,0.8744,0.8487,0.8058,0.6851,0.5746,0.4631,0.3626,0.2545,0.1461,0.1492,0.1582,0.1826,0.3572,0.4676,0.5491,0.824,1.0008,1.1251,1.3041,1.4082,1.4589,1.4803,1.549,1.6445,0.0,0.0,0.0,0.0,0.0,0.0,0.0,2.896,2.8623,2.7532,2.785,2.7469,2.5721,2.5483,2.5231,2.4652,2.3005,2.2541,2.3798,2.3176,2.2652,2.2385,1.9847,1.6032,1.0946,0.5051,-0.0603,-0.5933,-0.9258,-1.2024,-1.4251,-1.5842,-1.74,-1.8809,-1.9329,-1.9918,-2.051,-2.0721,-2.0554,-2.0138,-2.0221,-1.9686,-1.8606,-1.733,-1.5658,-1.4026,-1.3539,-1.2039,-1.0126,-0.9368,0.0,0.0,0.0,0.0,0.0,0.0,0.0,0.0,0.0,0.0,0.0,0.0,0.0,0.0,0.0,0.0,0.0,0.0,0.0,0.0,0.0,0.0,0.0,0.0,2.1612,1.9973,1.8952,1.8912,1.8791,1.8043,1.8076,1.7932,1.7104,1.6005,1.4744,1.3214,1.2018,1.0894,0.9804,0.9564,0.9209,0.8682,0.8409,0.8062,0.7722,0.6042,0.4956,0.4401,0.2953,0.203,0.138,0.1398,0.1649,0.0,0.3888,0.5045,0.5907,0.8896,1.0216,0.0,0.0,0.0,0.0,0.0,1.518,1.5567,0.0,0.0,0.0,0.0,0.0,0.0,0.0,2.9015,2.8736,2.7055,2.7398,2.7315,2.6016,2.5608,2.5118,2.4322,2.3147,2.2612,2.3027,2.3667,2.3276,2.1625,1.7955,1.3645,0.8699,0.278,-0.2525,-0.731,-1.0643,-1.2859,-1.4024,-1.6011,-1.7259,-1.7752,-1.8223,-1.897,-1.989,-1.9719,-1.9645,-1.9667,-1.9916,-1.9489,-1.8629,-1.8202,-1.7409,-1.6558,-1.6826,-1.6519,-1.5983,-1.5272,0.0,0.0,0.0,0.0,0.0,0.0,0.0,0.0,0.0,0.0,0.0,0.0,0.0,0.0,0.0,0.0,0.0,0.0,0.0,0.0,0.0,0.0,0.0,0.0,2.0408,1.8188,1.7177,1.7221,1.7301,1.7074,1.7054,1.7134,1.7361,1.5231,1.3735,1.3494,1.1536,1.0155,0.9498,0.0,0.0,0.0,0.0,0.7596,0.7428,0.5109,0.4036,0.4089,0.2225,0.1294,0.1287,0.1371,0.1909,0.2722,0.4133,0.5276,0.6339,0.9162,1.0163,1.0169,1.1724,1.2676,1.3358,1.4927,1.5038,1.4695,0.0,0.0,0.0,0.0,0.0,0.0,0.0,2.9922,2.9574,2.7896,2.7748,2.7111,2.5309,2.5018,2.4843,2.4627,2.4547,2.4367,2.4053,2.3759,2.2685,2.0645,1.6585,1.191,0.6653,0.0353,-0.4869,-0.8993,-1.2301,-1.4355,-1.5188,-1.6304,-1.6936,-1.7162,-1.77,-1.8188,-1.8572,-1.8956,-1.9422,-1.9905,-1.9414,-1.8768,-1.8308,-1.9638,-1.893,-1.7488,-1.9277,-1.8648,-1.7154,-1.7431,-1.6693,-1.5334,-1.31,-0.979,0.0,0.0,0.0,0.0,0.0,0.0,0.0,0.0,0.0,0.0,0.0,0.0,0.0,0.0,0.0,0.0,0.0,0.0,0.0,2.0509,1.9529,1.8401,1.6366,1.6132,1.6233,1.642,1.644,1.6373,1.6186,1.5517,1.437,1.2598,1.1852,1.0643,0.8652,0.869,0.0,0.7897,0.7729,0.7384,0.6941,0.4994,0.393,0.3797,0.0,0.0,0.1268,0.1974,0.2416,0.2875,0.4533,0.5448,0.5969,0.7724,0.9155,1.0272,1.123,1.2172,1.3028,1.3747,1.4234,1.4838,0.0,0.0,0.0,0.0,0.0,0.0,0.0,2.9677,2.9513,2.7726,2.7412,2.6814,2.5397,2.4745,2.4428,2.4493,2.4846,2.4941,2.4714,2.3958,2.2788,2.1214,1.6147,1.0794,0.5259,-0.1068,-0.6716,-1.1608,-1.3931,-1.5395,-1.5957,-1.6798,-1.6901,-1.6428,-1.7323,-1.7743,-1.7823,-1.8377,-1.897,-1.9474,-1.9385,-1.8965,-1.8427,-1.9394,-1.9189,-1.8468,-1.9534,-1.9112,-1.8155,-1.8568,-1.8362,-1.7571,-1.6149,-1.346,-1.017,0.0,0.0,0.0,0.0,0.0,0.0,0.0,0.0,0.0,0.0,0.0,0.0,0.0,0.0,2.4847,0.0,0.0,2.1325,2.0069,1.8915,1.7404,1.5382,1.5487,1.5743,1.5658,1.5484,1.5337,1.519,1.4449,1.3447,1.2307,1.1541,1.0485,0.925,0.9155,0.8779,0.8013,0.7778,0.7348,0.6721,0.5101,0.4275,0.4218,0.2906,0.2123,0.1714,0.2636,0.3109,0.3348,0.4801,0.5892,0.6806,0.826,0.9769,1.1115,1.1049,1.166,1.2799,1.3765,1.4309,1.4843,0.0,0.0,0.0,0.0,0.0,0.0,0.0,2.923,2.9141,2.7261,2.6895,2.6378,2.5311,2.4398,2.4014,2.4271,2.4673,2.4972,2.5074,2.4156,2.3186,2.2192,1.6555,1.0401,0.389,-0.2029,-0.8179,-1.4582,-1.594,-1.6637,-1.6748,-1.7495,-1.7205,-1.6082,-1.7038,-1.7569,-1.779,-1.8016,-1.8581,-1.9368,-1.9674,-1.9528,-1.9179,-1.9235,-1.9147,-1.9069,-1.9379,-1.9193,-1.8708,-1.9136,-1.9325,-1.9336,-1.8558,-1.6452,-1.3593,-0.9775,-0.4314,0.0,0.0,0.0,0.0,0.0,0.0,0.0,0.0,0.0,2.5594,2.5829,2.5335,2.4759,2.4323,2.1916,1.9942,1.9678,1.8164,1.6512,1.5054,1.5384,1.5619,1.5168,1.4792,1.4569,1.443,1.3432,1.2655,1.2258,1.1073,1.022,0.9821,0.9637,0.9158,0.8481,0.7961,0.7436,0.6749,0.5384,0.4648,0.4716,0.3747,0.298,0.2495,0.3385,0.3816,0.4018,0.5264,0.6679,0.8115,0.9247,1.0568,1.1847,1.1213,1.1668,1.2836,1.3819,1.4386,1.4866,0.0,0.0,0.0,0.0,0.0,0.0,0.0,0.0,2.8858,2.6898,2.6541,2.5774,2.3917,2.3566,2.3694,2.4258,2.4509,2.4739,2.5009,2.4397,2.364,2.2759,1.8282,1.1432,0.2027,-0.2788,-0.9285,-1.7678,-1.8884,-1.8871,-1.7856,-1.852,-1.8159,-1.6963,-1.6964,-1.7745,-1.9003,-1.8207,-1.8906,-2.0557,-2.021,-2.0356,-2.087,-2.0957,-1.9901,-1.8524,-2.0135,-1.9806,-1.8699,-1.9054,-1.9545,-1.9833,-1.9468,-1.8035,-1.5803,-1.2589,-0.6679,0.0159,0.6228,1.3945,2.0514,2.1445,2.245,2.3647,0.0,0.0,2.534,2.5695,2.5611,2.4619,2.1829,2.0881,1.982,1.7775,1.6921,1.6473,1.634,1.6166,1.5945,1.5391,1.5042,1.4628,1.4117,1.4052,1.3386,1.1913,1.107,1.022,0.9177,0.9069,0.9048,0.8951,0.8108,0.7601,0.7422,0.5669,0.4714,0.4622,0.3645,0.3232,0.3368,0.4289,0.4749,0.502,0.6622,0.8072,0.9303,0.9496,1.0327,1.1597,1.2104,1.2981,1.3917,1.3055,1.3761,1.5234,0.0,0.0,0.0,0.0,0.0,0.0,0.0,0.0,0.0,2.7669,2.6428,2.5333,2.4519,2.364,2.3305,2.3792,2.423,2.4574,2.481,2.47,2.4296,2.3525,1.9555,1.3811,0.6194,0.1182,-0.5725,-1.4649,-1.5787,-1.7089,-1.8483,-1.874,-1.8261,-1.713,-1.8068,-1.854,-1.8749,-1.943,-2.0173,-2.0887,-2.1076,-2.1505,-2.2062,-2.2196,-2.1719,-2.0978,-2.0653,-1.961,0.0,-1.9312,-1.9811,-1.9985,-1.9438,-1.8029,-1.5769,-1.1261,-0.5448,0.1444,1.0425,1.6246,2.0234,2.2164,2.3045,2.3835,2.5161,2.5334,2.5288,2.5543,2.4851,2.3452,2.1207,2.0112,1.8754,0.0,1.6569,1.6458,1.5381,1.6016,1.6237,1.5343,1.6129,1.6169,1.4812,1.4641,1.4175,1.339,1.2922,1.2299,1.1389,1.0771,1.0418,1.0457,0.9302,0.8594,0.8472,0.7291,0.6544,0.6301,0.5905,0.5467,0.5001,0.5884,0.6266,0.625,0.7331,0.8419,0.95,0.9952,1.1087,1.2712,1.2862,1.3657,1.4746,1.4264,1.4914,1.6063,0.0,0.0,0.0,0.0,0.0,0.0,0.0,0.0,0.0,0.0,2.6367,2.5276,2.4982,2.4036,2.3571,2.3958,2.4292,2.4564,2.4826,2.4769,2.4488,2.3941,2.0474,1.5493,0.8921,0.4161,-0.2559,-1.1412,-1.2519,-1.4335,-1.67,-1.6971,-1.6584,-1.5756,-1.717,-1.769,-1.7681,-1.9565,-2.0677,-2.1227,-2.2251,-2.2962,-2.3468,-2.3702,-2.2855,-2.1519,-2.1235,-1.9687,-1.7823,-1.8301,-1.7175,-1.5526,-1.5032,-1.299,-0.999,-0.5986,-0.0543,0.6113,1.4788,1.8269,2.0042,2.2264,2.3177,2.3784,2.4573,2.4767,2.4856,2.4921,2.4223,2.2979,2.1461,2.0201,1.8922,1.7338,1.7388,1.7232,1.6227,1.6915,1.7296,1.674,1.8055,1.8544,1.7421,1.6408,1.5666,1.5343,1.4772,1.417,1.3543,1.2631,1.2181,1.215,1.0836,1.005,0.9843,0.8908,0.8178,0.7716,0.7878,0.7536,0.6607,0.7274,0.756,0.7486,0.8149,0.8973,1.0008,1.0629,1.1902,1.3479,1.3658,1.4389,1.5435,1.5808,1.6217,1.6642,0.0,0.0,0.0,0.0,0.0,0.0,0.0,0.0,0.0,0.0,0.0,0.0,0.0,2.4624,2.4809,2.5215,2.4839,2.4769,2.5171,2.4518,2.4011,2.3725,2.098,1.5685,0.7647,0.4304,-0.1385,-0.9683,-1.0754,-1.133,-1.1453,-1.235,-1.2548,-1.2188,-1.2896,-1.4129,-1.58,-1.7683,-1.9769,-2.1931,-2.3774,-2.4863,-2.5451,-2.5848,-2.2574,-1.8253,-2.2049,-2.0233,-1.5988,-1.5361,-1.0185,-0.407,-0.435,-0.0817,0.3571,0.4155,0.9176,1.51,1.7738,1.9587,2.0921,2.129,2.2111,2.2972,2.3454,2.3762,2.3835,2.3584,2.3903,2.3833,2.2289,2.1691,2.1227,2.0801,1.975,1.9264,2.0297,1.9792,1.968,2.0536,2.1108,2.1707,0.0,1.9964,1.7952,1.7431,1.6141,1.5198,1.4742,1.4182,1.3853,1.3844,1.2731,1.19,1.1521,1.0184,0.9067,0.8176,0.8926,0.8868,0.8159,0.827,0.8405,0.8563,0.9182,1.005,1.1092,1.1648,1.2529,1.3612,1.4557,1.5277,1.5939,1.7377,1.7341,1.666,0.0,0.0,0.0,0.0,0.0,0.0,0.0,0.0,0.0,0.0,0.0,0.0,0.0,0.0,0.0,0.0,2.5085,2.5234,2.5445,2.4725,2.4073,2.3578,2.0954,1.7486,1.3141,0.9747,0.4599,-0.2366,-0.3887,-0.7058,-1.1646,-1.0752,-1.0635,-1.117,-1.2027,-1.2896,-1.3816,-1.5215,-1.6307,-1.7162,-1.812,-1.9609,-2.0896,-1.7708,-1.5559,-1.3948,0.0,-0.9083,-0.7051,-0.5792,-0.2523,0.1005,0.0921,0.2958,0.6226,1.057,1.4035,1.7219,2.0921,2.1626,2.1698,2.3245,2.3461,2.3262,2.2936,2.3174,2.337,2.2853,2.2132,2.1738,2.2329,2.1858,2.1307,2.111,2.1529,2.1546,2.0654,2.104,2.1609,2.2171,2.3234,0.0,0.0,0.0,0.0,2.0624,1.9804,1.8992,1.8078,1.7156,1.6689,1.6682,1.5435,1.47,1.4603,1.3127,1.244,1.2503,1.2575,1.2045,1.0927,1.0986,1.0537,0.9805,1.0019,1.0997,1.2436,1.2913,1.4024,1.5618,1.6732,1.7374,1.7785,1.8865,1.9154,1.8917,0.0,0.0,0.0,0.0,0.0,0.0,0.0,0.0,0.0,0.0,0.0,0.0,0.0,0.0,0.0,0.0,0.0,2.5642,2.5562,2.4793,2.3895,2.2878,2.099,1.8807,1.6205,1.3557,0.9685,0.4547,0.2793,-0.0874,-0.6183,-0.5512,-0.5749,-0.6825,-0.8023,-0.8791,-0.933,-1.1236,-1.2118,-1.2293,-1.3043,-1.4272,-1.5212,-1.0908,-0.82,0.0,-0.0718,0.3348,0.5895,0.3652,0.5822,0.9503,0.9591,1.0931,1.3346,1.7735,1.9142,1.998,2.3156,2.2999,2.2315,2.3928,2.3628,2.2805,2.2343,2.2592,2.2893,2.2733,2.2243,2.2201,2.3559,2.3459,2.3153,2.3169,2.3939,2.406,2.2789,2.3111,2.3677,2.4277,2.5566,2.6706,0.0,0.0,0.0,2.3529,2.2929,2.2264,2.1307,2.0328,1.9745,1.9538,1.8539,1.7785,1.7357,1.6191,1.5768,1.6145,1.5507,1.4825,1.4147,1.3839,1.3227,1.2387,1.259,1.3409,1.473,1.5211,1.6203,1.7575,1.8754,1.9204,1.9325,2.0452,2.0711,2.0397,0.0,0.0,0.0,0.0,0.0,0.0,0.0,0.0,0.0,0.0,0.0,0.0,0.0,0.0,0.0,0.0,0.0,0.0,2.5559,2.4706,2.3489,2.1768,2.1188,1.9575,1.6795,1.56,1.3573,1.0615,0.8848,0.6838,0.4502,0.3118,0.1922,0.0855,-0.0871,-0.1835,-0.2381,-0.5539,-0.6893,-0.7101,-0.8262,-0.8613,-0.8121,-0.5213,-0.0242,0.5689,0.9634,1.6149,2.1531,1.277,1.4762,2.0911,2.0975,2.2415,2.4268,2.5124,2.4374,2.3429,2.4381,2.3692,2.2834,2.3453,2.2713,2.182,2.1808,2.2153,2.2664,2.3267,2.41,2.5039,0.0,0.0,2.6555,2.6942,2.7038,2.6953,2.6674,2.6,2.5911,0.0,0.0,0.0,0.0,0.0,0.0,2.6133,0.0,2.4934,2.4228,2.3515,2.2863,2.229,2.1811,2.0986,1.9756,1.9258,1.8981,1.8918,1.7702,1.7319,1.7627,1.6824,1.6296,1.6121,1.6607,1.7143,1.7691,1.8367,1.8913,1.9445,2.0523,2.0734,2.0648,2.2139,2.2013,2.1084,0.0,0.0,0.0,0.0,0.0,0.0,0.0,0.0,0.0,0.0,0.0,0.0,0.0,0.0,0.0,0.0,0.0,0.0,2.6133,2.5246,2.4256,2.3213,2.1609,2.0102,1.8623,1.7208,1.5529,1.358,1.2767,1.1583,1.0208,0.8995,0.8704,0.9241,0.693,0.5498,0.4783,0.3816,0.3507,0.3633,0.3225,0.4198,0.6168,0.8435,1.4068,2.0825,2.1296,2.4115,2.6988,2.2611,2.2867,2.4834,2.3918,2.3847,2.4273,2.5147,2.4638,2.4002,2.4942,2.4656,2.4075,2.3847,2.3635,2.3432,2.3595,2.431,2.4971,2.5164,2.574,2.6645,0.0,0.0,0.0,3.1065,3.1793,0.0,2.9837,2.9313,0.0,2.8969,0.0,2.9947,3.0491,3.1321,0.0,0.0,2.8353,2.7754,2.6729,2.6277,2.5477,2.4295,2.406,2.3261,2.192,2.1783,2.1358,2.0678,2.097,2.0704,1.9875,1.9656,1.9158,1.8531,1.8639,1.9164,1.992,2.0389,2.0897,2.1452,2.2275,2.2652,2.283,2.3472,2.3217,2.2554,0.0,0.0,0.0,0.0,0.0,0.0,0.0,0.0,0.0,0.0,0.0,0.0,0.0,0.0,0.0,0.0,0.0,0.0,0.0,2.6276,2.5282,2.3703,2.2876,2.1716,2.0139,1.9307,1.8151,1.669,1.6233,1.5469,1.4322,1.3562,1.3585,1.4153,1.2232,1.137,1.1255,1.1015,1.1108,0.0,0.0,1.3252,1.4832,1.7806,2.2126,2.6627,2.7346,2.8729,2.9997,2.8134,2.7556,2.7434,2.6252,2.5582,2.5355,2.5893,2.5472,2.4993,2.5734,2.5519,2.5026,2.4982,2.4786,2.4537,2.4506,2.5438,2.6337,2.6429,2.72,0.0,2.9704,0.0,0.0,0.0,0.0,0.0,3.2407,3.1694,3.107,0.0,3.0689,0.0,3.0845,3.1569,3.1566,0.0,3.0021,2.9477,2.8614,2.7979,2.7142,2.6098,2.5581,2.4785,2.3629,2.361,2.3331,2.2808,2.3082,2.2879,2.222,2.2029,2.1734,2.1425,0.0,2.1729,2.2263,2.2566,2.2853,2.3158,2.3656,2.3965,2.4109,2.4009,2.3501,2.2886,0.0,0.0,0.0,0.0,0.0,0.0,0.0,0.0,0.0,0.0,0.0,0.0,0.0,0.0,0.0,0.0,0.0,0.0,0.0,0.0,2.6202,2.3952,2.4437,2.3747,2.1666,2.1653,2.1078,1.9829,1.9528,1.8818,1.7835,1.7571,1.7481,1.7459,1.6457,1.6534,1.7323,1.6931,1.7017,1.7594,1.8988,1.979,2.0466,0.0,2.6327,2.7498,3.0039,3.126,3.1576,3.0855,2.994,2.8922,2.7835,2.7145,2.676,2.694,2.6525,2.6143,2.6671,2.633,2.5958,2.6343,2.6034,2.5533,2.5385,2.6419,2.7431,2.7541,0.0,3.0101,3.088,3.2533,3.384,3.3978,0.0,3.5341,3.4837,3.3659,3.2506,3.1495,3.1715,3.1708,3.1042,3.1641,3.1719,3.087,3.0625,3.0337,2.9882,2.8805,2.7898,2.7227,2.6241,2.5408,2.4727,2.4746,2.4707,2.4648,2.4261,2.4144,2.4247,2.3845,2.3796,2.4043,0.0,0.0,2.4227,2.445,2.45,2.4463,2.4651,2.4741,2.4725,2.4023,2.3261,2.2597,0.0,0.0,0.0,0.0,0.0,0.0,0.0,0.0,0.0,0.0,2.7581,2.7542,0.0,0.0,0.0,0.0,0.0,0.0,0.0,0.0,0.0,2.5214,2.538,2.4976,2.3774,2.3774,2.3462,2.2786,2.2698,2.2576,2.2376,2.229,2.2293,2.2328,2.2379,2.2489,2.2668,2.2427,2.2903,2.3897,2.3864,2.4898,2.6708,2.8587,0.0,0.0,3.2445,3.3187,3.3123,3.2493,3.0864,2.889,2.7776,2.7157,2.6935,2.7285,2.7127,2.689,2.7192,2.7262,2.7168,2.6816,2.6831,2.7211,2.8149,2.8954,0.0,0.0,3.1171,3.2276,3.2222,3.3907,3.5937,3.7851,0.0,0.0,0.0,0.0,3.4446,0.0,0.0,0.0,0.0,0.0,0.0,0.0,0.0,3.0138,3.0212,2.8588,2.7172,2.6189,2.4989,2.4341,2.4302,2.4407,2.445,2.4359,2.4521,2.4597,2.4606,2.453,2.4394,2.4269,2.4487,0.0,2.4304,2.4562,2.4684,2.4725,2.4772,2.4794,2.472,2.3914,2.3151,2.2424,0.0,0.0,0.0,0.0,0.0,0.0,0.0,3.0437,3.0106,2.9223,2.8783,2.863,2.8858,2.9284,2.9697,0.0,0.0,0.0,0.0,0.0,0.0,0.0,0.0,0.0,2.4894,2.4623,0.0,0.0,0.0,2.4184,2.4184,2.4323,2.4526,2.4768,2.4711,2.4937,2.5315,2.5521,2.5941,2.662,2.7321,2.8103,2.9041,0.0,0.0,0.0,0.0,3.4093,3.3827,3.3268,3.1803,3.009,2.9201,2.866,2.8476,2.9076,2.876,2.8329,2.8952,2.8724,2.8305,2.8222,2.8272,2.839,2.8585,0.0,0.0,0.0,3.1416,3.2736,3.3053,3.4841,0.0,3.7804,0.0,0.0,0.0,0.0,0.0,0.0,0.0,0.0,0.0,0.0,0.0,0.0,0.0,2.9036,2.9452,2.7943,2.6526,2.5366,2.4374,2.3878,2.3953,2.4005,2.4191,2.4505,2.4645,2.4897,2.5276,2.5274,2.4986,2.4504,2.4233,0.0,2.388,2.3294,2.3479,2.4105,2.3361,2.3305,2.3457,2.2265,2.1695,2.14,0.0,0.0,0.0,0.0,0.0,0.0,0.0,3.0992,3.0773,3.0251,2.9761,2.9714,3.0363,3.0664,3.1018,0.0,0.0,0.0,0.0,0.0,0.0,0.0,0.0,0.0,0.0,0.0,0.0,0.0,0.0,0.0,0.0,0.0,0.0,0.0,0.0,2.6023,2.6518,2.7238,2.761,0.0,0.0,3.0277,0.0,0.0,0.0,0.0,0.0,3.4807,3.4567,3.4069,3.3045,3.1821,3.1179,3.0521,3.0124,3.0614,3.0221,2.9783,3.0372,2.9854,2.9252,2.9674,2.9531,2.9154,2.8734,2.9207,0.0,2.9662,3.1205,3.275,3.3374,3.5035,3.6458,0.0,3.723,3.7662,0.0,0.0,0.0,0.0,0.0,0.0,0.0,0.0,0.0,0.0,0.0,0.0,2.7778,2.6912,2.58,2.4476,2.392,2.366,2.3736,2.3876,2.4208,2.4724,2.4813,2.5094,2.5551,2.5551,2.5098,2.4242,2.3731,0.0,0.0,2.1947,2.2128,2.3013,2.1807,2.1661,2.1962,2.0589,2.0234,2.0323,0.0,0.0,0.0,0.0,0.0,0.0,0.0,3.119,3.1015,3.0518,2.9935,3.0068,3.1418,3.0529,3.0225,0.0,0.0,0.0,0.0,0.0,0.0,0.0,0.0,0.0,0.0,0.0,0.0,0.0,0.0,0.0,0.0,0.0,0.0,0.0,0.0,0.0,0.0,2.7817,0.0,0.0,0.0,0.0,0.0,0.0,0.0,0.0,0.0,0.0,3.6048,3.5689,0.0,3.3923,3.3312,3.2167,3.0957,3.0426,0.0,0.0,3.0111,2.9805,2.9801,3.0506,2.9935,2.9353,2.9893,0.0,3.0095,2.9898,3.1611,3.3063,3.2834,3.3892,3.526,3.6656,3.6493,3.6896,0.0,0.0,0.0,0.0,0.0,0.0,0.0,0.0,0.0,0.0,0.0,0.0,2.491,2.5241,2.4757,2.3312,2.3377,2.3556,2.3786,2.4462,2.4815,2.4884,2.5118,2.509,2.4781,2.4781,2.4108,2.2892,2.3059,0.0,0.0,2.154,2.1503,2.1555,2.1057,2.0902,2.0862,1.9976,1.9781,1.9847,0.0,0.0,0.0,0.0,0.0,0.0,3.1055,3.0509,3.0159,3.0452,2.9561,2.9355,3.0687,3.1164,3.1641,3.2272,0.0,0.0,0.0,0.0,0.0,0.0,0.0,0.0,0.0,0.0,0.0,0.0,0.0,0.0,0.0,0.0,0.0,0.0,0.0,0.0,0.0,0.0,0.0,0.0,0.0,0.0,0.0,0.0,0.0,0.0,0.0,0.0,3.6721,0.0,0.0,0.0,3.4039,3.3336,0.0,0.0,3.1816,3.1665,3.1901,3.1411,3.0898,3.1049,3.0278,2.9502,2.9531,0.0,2.9707,3.0225,3.155,3.2773,3.3445,3.4128,3.4988,3.6092,3.6408,0.0,3.8201,0.0,0.0,0.0,0.0,0.0,0.0,0.0,0.0,0.0,0.0,0.0,2.3779,2.4808,2.4582,2.2757,2.3106,2.3192,2.2886,2.3601,2.4149,2.4597,2.4295,2.4295,2.4564,2.4165,2.3438,2.2507,2.2174,0.0,0.0,1.9777,1.9634,1.997,1.8917,1.8877,1.9318,1.8546,1.8517,1.8778,0.0,0.0,0.0,0.0,0.0,3.0871,3.0797,3.0087,2.9675,2.9913,2.9283,2.9041,2.9703,3.1539,3.2825,3.3092,3.3307,0.0,0.0,0.0,0.0,0.0,0.0,0.0,0.0,0.0,2.9244,3.0027,2.946,0.0,0.0,0.0,0.0,0.0,0.0,0.0,0.0,0.0,0.0,0.0,0.0,0.0,0.0,0.0,0.0,0.0,0.0,0.0,0.0,0.0,0.0,3.5569,3.5064,3.4458,3.3778,3.2919,3.2657,3.2711,3.2895,3.236,3.1763,3.1774,3.0495,2.926,0.0,0.0,2.9294,2.9864,3.1312,3.2666,3.3379,3.3956,3.4539,3.5165,3.5758,3.6369,3.7036,3.7204,0.0,0.0,0.0,0.0,0.0,0.0,0.0,0.0,0.0,0.0,0.0,2.3896,2.3836,2.2135,2.2718,2.2797,2.2296,2.2957,2.3571,2.4035,2.3571,2.3552,2.3931,2.3433,2.2769,2.1945,0.0,0.0,0.0,1.8722,1.8475,1.8881,1.7517,1.7411,1.7988,1.7542,1.7602,1.7876,0.0,0.0,0.0,0.0,0.0,0.0,3.0351,3.0293,2.9935,2.8873,2.9214,2.9404,2.8873,3.1362,3.3177,3.3366,3.3832,0.0,0.0,0.0,0.0,0.0,0.0,0.0,0.0,0.0,3.0281,3.0995,2.9539,2.925,3.0083,0.0,0.0,0.0,0.0,0.0,0.0,0.0,0.0,0.0,0.0,0.0,0.0,0.0,0.0,0.0,0.0,0.0,0.0,0.0,0.0,0.0,0.0,3.5642,3.3911,3.1975,3.2625,3.3714,3.2456,3.211,3.2234,3.2757,3.0474,2.8425,2.9533,2.9459,2.9076,2.8603,3.0893,3.2816,3.222,3.2984,3.3726,3.3807,3.4262,3.4915,3.5696,0.0,0.0,0.0,0.0,0.0,0.0,0.0,0.0,0.0,0.0,0.0,0.0,2.205,2.2236,2.1356,2.2021,2.2345,2.2214,2.3007,2.3329,2.3208,2.3192,2.2996,2.2613,2.2613,2.2034,0.0,0.0,0.0,0.0,1.8905,1.8482,1.8416,1.7385,1.6968,1.6952,1.7288,1.7361,1.7368,0.0,0.0,0.0,0.0,0.0,0.0,0.0,2.9198,2.8476,2.867,2.8633,2.8861,2.9552,3.2459,3.433,3.4183,3.4804,0.0,0.0,0.0,0.0,0.0,0.0,0.0,0.0,0.0,3.1166,3.1313,3.0792,3.0845,3.1427,3.0583,3.0826,0.0,0.0,0.0,0.0,0.0,0.0,0.0,0.0,0.0,0.0,0.0,0.0,0.0,0.0,0.0,0.0,0.0,0.0,0.0,0.0,0.0,0.0,3.3239,3.3063,3.3046,3.2406,3.2062,3.1795,3.1651,3.0277,2.8982,2.9033,2.9208,2.9437,2.9799,3.1319,3.2709,3.3071,3.3451,3.4008,3.4939,3.5248,3.5872,0.0,0.0,0.0,0.0,0.0,0.0,0.0,0.0,0.0,0.0,0.0,0.0,0.0,2.1286,2.1178,2.0441,2.1528,2.1879,2.1399,2.2081,2.2406,2.2368,2.1904,2.1651,2.1504,2.1029,0.0,0.0,0.0,0.0,0.0,1.848,1.79,1.7394,1.6614,1.6421,1.6554,1.6686,1.6942,1.7264,0.0,0.0,0.0,0.0,0.0,0.0,0.0,2.8604,2.7984,2.8258,2.8419,2.8697,2.9169,3.2217,3.4244,3.4317,3.5163,0.0,0.0,0.0,0.0,0.0,0.0,0.0,3.1928,3.2517,3.25,3.181,3.1774,3.1826,3.2002,3.1478,3.2191,3.3909,3.3165,0.0,0.0,0.0,0.0,0.0,0.0,0.0,3.8178,0.0,0.0,0.0,0.0,0.0,0.0,0.0,0.0,0.0,0.0,0.0,0.0,0.0,3.3546,3.2963,3.2661,3.2448,3.2122,3.1274,3.0044,0.0,2.8865,2.9062,2.938,2.979,3.1203,3.2497,3.2834,3.3538,3.4331,3.51,3.5843,3.6595,0.0,0.0,0.0,0.0,0.0,0.0,0.0,0.0,0.0,0.0,0.0,0.0,0.0,2.0451,2.0307,1.9899,2.0773,2.1,2.054,2.0948,2.116,2.1122,2.0699,2.0503,2.0488,2.008,0.0,0.0,0.0,0.0,0.0,1.8301,1.7832,1.7575,1.6438,1.6248,1.6558,1.6153,1.6263,1.6589,0.0,0.0,0.0,0.0,0.0,0.0,0.0,2.8559,2.8238,2.766,2.8568,2.8931,2.815,3.0994,3.3269,3.4022,0.0,0.0,0.0,0.0,0.0,0.0,0.0,0.0,3.3403,3.4368,3.4038,3.2294,3.2508,3.2442,3.2045,3.2206,3.3321,3.5214,3.4868,3.5128,0.0,0.0,0.0,0.0,0.0,0.0,0.0,0.0,0.0,0.0,0.0,0.0,0.0,0.0,0.0,0.0,0.0,0.0,0.0,0.0,0.0,0.0,0.0,3.3119,3.284,3.1486,2.9782,2.8582,2.898,2.9122,0.0,2.8982,3.0733,3.2258,3.2084,3.3485,3.4661,3.4691,3.6114,0.0,0.0,0.0,0.0,0.0,0.0,0.0,0.0,0.0,0.0,0.0,0.0,0.0,0.0,1.969,1.969,1.969,1.9848,1.9884,1.9762,1.9762,1.9726,1.9654,1.969,1.969,1.9654,1.969,0.0,0.0,0.0,0.0,0.0,1.8245,1.8065,1.8489,1.6697,1.6334,1.6713,1.5779,1.5512,1.559,0.0,0.0,0.0,0.0,0.0,0.0,0.0,0.0,0.0,0.0,2.8302,2.9094,2.9349,3.1419,3.3307,0.0,0.0,0.0,0.0,0.0,0.0,0.0,0.0,0.0,3.3251,3.4228,3.4006,3.2436,3.3387,3.3745,3.3499,3.3845,3.488,3.637,3.6021,3.6004,0.0,0.0,0.0,0.0,0.0,0.0,0.0,0.0,0.0,0.0,3.7009,3.6273,0.0,0.0,0.0,0.0,0.0,0.0,0.0,0.0,3.4144,3.4427,3.3125,0.0,3.1742,3.0624,2.9642,2.9102,0.0,2.9739,2.9786,3.0376,3.1458,3.2753,3.4199,3.4379,3.4993,3.7038,3.7069,0.0,0.0,0.0,0.0,0.0,0.0,0.0,0.0,0.0,0.0,0.0,0.0,0.0,0.0,1.9487,1.9487,1.9487,1.9523,1.945,1.9288,1.925,1.925,1.925,1.953,1.9545,1.925,1.9581,0.0,0.0,0.0,0.0,1.8837,1.7294,1.6882,1.7101,1.6203,1.5917,1.6023,1.5777,1.5863,1.6033,0.0,0.0,0.0,0.0,0.0,0.0,0.0,0.0,0.0,0.0,0.0,0.0,0.0,0.0,0.0,0.0,0.0,0.0,0.0,0.0,0.0,0.0,0.0,3.4818,3.4301,3.5185,3.5038,3.3727,3.4539,3.4669,3.4216,3.4312,3.5301,3.7023,3.7232,3.7014,0.0,0.0,0.0,0.0,3.7609,0.0,0.0,0.0,0.0,0.0,3.6588,3.5746,0.0,3.402,3.3512,3.3262,0.0,0.0,0.0,0.0,3.435,3.4812,3.3556,3.2907,3.2347,3.1227,3.0306,2.9752,3.0352,2.9934,2.9761,3.0807,0.0,3.2335,3.4331,3.4965,3.5757,3.7415,3.8174,0.0,0.0,0.0,0.0,0.0,0.0,0.0,0.0,0.0,0.0,0.0,0.0,0.0,0.0,1.8986,1.8986,1.8986,1.879,1.8848,1.9213,1.9228,1.9228,1.9228,1.9472,1.9362,1.8974,1.9089,1.8833,0.0,0.0,0.0,1.7841,1.6811,1.664,1.699,1.6025,1.5861,1.6084,1.5502,1.5473,1.5656,0.0,0.0,0.0,0.0,0.0,0.0,0.0,0.0,0.0,0.0,0.0,0.0,0.0,0.0,0.0,0.0,0.0,0.0,0.0,0.0,0.0,0.0,3.5953,3.5877,3.5525,3.6374,3.627,3.5111,3.5583,3.5419,3.4687,3.4326,3.5255,3.7186,3.7936,3.7768,0.0,0.0,0.0,0.0,3.8246,0.0,0.0,0.0,0.0,0.0,0.0,0.0,0.0,3.3512,3.327,3.3265,3.282,0.0,0.0,0.0,0.0,0.0,3.3969,3.3877,3.3752,3.2343,3.1117,3.0307,3.08,2.998,0.0,0.0,0.0,0.0,0.0,3.5597,0.0,0.0,0.0,0.0,0.0,0.0,0.0,0.0,0.0,0.0,0.0,0.0,0.0,0.0,0.0,0.0,0.0,1.8429,1.8379,1.8481,1.8108,1.8329,1.925,1.9302,1.9302,1.9302,1.9302,1.9043,1.8589,1.8441,1.7928,0.0,0.0,0.0,1.6896,1.6439,1.664,1.7069,1.5949,1.5876,1.6292,1.5223,1.4986,1.5084,0.0,0.0,0.0,0.0,0.0,0.0,0.0,0.0,0.0,0.0,0.0,0.0,0.0,0.0,0.0,0.0,0.0,0.0,0.0,0.0,0.0,3.6235,3.5874,3.5504,3.517,3.6295,3.615,3.4679,3.6059,3.63,3.5527,3.5101,3.5446,3.6417,3.6896,3.7366,3.7715,0.0,0.0,0.0,0.0,0.0,0.0,0.0,0.0,0.0,0.0,0.0,0.0,3.4562,3.3847,3.3521,3.2834,0.0,0.0,0.0,0.0,0.0,3.3642,3.4358,3.4784,3.252,3.1053,3.0323,3.0725,2.995,2.9377,0.0,0.0,0.0,0.0,3.6832,0.0,0.0,0.0,0.0,0.0,0.0,0.0,0.0,0.0,0.0,0.0,0.0,0.0,0.0,0.0,0.0,0.0,1.8141,1.7899,1.846,1.8436,1.8493,1.863,1.8822,1.8898,1.8898,1.8898,1.8423,1.7539,1.7782,1.7419,0.0,0.0,1.6358,1.652,1.5599,1.5458,1.5802,1.5595,1.5566,1.564,1.5433,1.5389,1.5403,0.0,0.0,0.0,0.0,0.0,0.0,0.0,0.0,0.0,0.0,0.0,0.0,0.0,0.0,0.0,0.0,0.0,0.0,0.0,0.0,3.6273,3.6751,3.6378,3.6094,3.6075,3.6606,3.6682,3.6255,3.6068,3.5891,3.5745,3.5618,3.5877,3.646,3.7572,3.8091,3.8234,3.8533,3.8986,3.9495,0.0,0.0,0.0,0.0,0.0,0.0,0.0,0.0,0.0,0.0,3.3318,3.2581,3.2036,0.0,0.0,0.0,0.0,0.0,3.3847,3.4523,3.4899,3.3151,3.1949,3.1289,3.1749,3.051,0.0,0.0,0.0,0.0,0.0,0.0,0.0,0.0,0.0,0.0,0.0,0.0,0.0,0.0,0.0,0.0,0.0,0.0,0.0,0.0,0.0,0.0,0.0,0.0,1.6916,1.7353,1.7046,1.6945,1.7102,1.719,1.7632,1.8461,1.8101,1.7541,1.6798,1.6866,1.6382,1.5535,0.0,1.5564,1.5504,1.5248,1.5254,1.5388,1.5388,1.5403,1.5448,1.5477,1.5507,1.5507,0.0,0.0,0.0,0.0,0.0,0.0,0.0,0.0,0.0,0.0,0.0,0.0,0.0,0.0,0.0,0.0,0.0,0.0,0.0,3.5284,3.6105,3.6928,3.6738,3.6579,3.645,3.6664,3.6821,3.6879,3.5574,3.4949,3.5004,3.5576,3.5957,3.6381,3.8145,3.8916,3.8858,3.9289,3.9692,4.002,0.0,0.0,0.0,0.0,0.0,0.0,0.0,0.0,0.0,0.0,0.0,0.0,0.0,0.0,0.0,3.2479,3.3187,3.4022,3.3805,3.4215,3.448,3.3626,0.0,3.2134,3.2619,3.1134,0.0,0.0,0.0,0.0,0.0,0.0,0.0,0.0,0.0,0.0,0.0,0.0,0.0,0.0,0.0,0.0,0.0,0.0,0.0,0.0,0.0,0.0,0.0,0.0,1.6036,1.6374,1.5945,1.5764,1.5878,1.5816,1.6421,1.7655,1.7036,1.6453,1.5935,1.5769,1.5243,1.4501,1.48,1.4763,1.4574,1.4856,1.5041,1.5102,1.5102,1.5224,1.5359,1.5433,1.5433,1.5433,0.0,0.0,0.0,0.0,0.0,0.0,0.0,0.0,0.0,0.0,0.0,0.0,0.0,0.0,0.0,0.0,0.0,0.0,0.0,3.4391,3.5287,3.614,3.652,3.6164,3.5084,3.5954,3.5774,3.4461,3.4281,3.3625,3.2604,3.4401,3.5289,3.541,3.776,3.916,3.9868,4.0497,4.0802,4.0802,4.0832,0.0,0.0,0.0,0.0,0.0,0.0,0.0,0.0,0.0,0.0,0.0,0.0,0.0,3.144,3.1483,3.2145,3.284,3.2934,3.3225,3.3516,3.3423,3.2707,3.2187,3.2724,3.1586,0.0,3.2583,0.0,0.0,0.0,0.0,0.0,0.0,0.0,0.0,0.0,0.0,0.0,0.0,0.0,0.0,0.0,0.0,0.0,0.0,0.0,0.0,0.0,0.0,0.0,1.6289,1.6275,1.6095,1.5808,1.5612,1.5696,1.6055,1.5583,1.5073,1.4556,1.4482,1.4101,1.3599,1.3947,1.4052,1.4052,1.4098,1.4278,1.4564,1.4564,1.4842,1.5208,1.5283,1.5283,1.5208,0.0,0.0,0.0,0.0,0.0,0.0,0.0,0.0,0.0,0.0,0.0,0.0,0.0,0.0,0.0,0.0,0.0,0.0,0.0,3.4093,3.5081,3.5881,3.6419,3.6277,3.5294,3.5895,3.5812,3.4963,3.4332,3.3557,3.2604,3.4558,3.5832,3.6685,3.8766,3.9816,4.012,4.0772,4.1088,4.1088,4.0965,4.0579,0.0,0.0,0.0,0.0,0.0,0.0,0.0,0.0,3.256,3.1107,3.0824,3.0982,3.1295,3.1317,3.1809,3.2312,3.2125,3.3265,3.4301,3.3567,3.3326,0.0,0.0,3.2199,3.2107,3.2058,3.4043,0.0,0.0,0.0,0.0,0.0,0.0,0.0,0.0,0.0,0.0,0.0,0.0,0.0,0.0,0.0,0.0,0.0,0.0,0.0,0.0,0.0,0.0,1.5599,1.5257,1.4897,1.4506,1.4351,1.4235,1.4223,1.4363,1.4327,1.4096,1.4062,1.3877,1.3648,1.3835,1.3934,1.3934,1.4,1.4052,1.4181,1.4181,1.4406,1.478,1.4797,1.4935,1.5088,0.0,0.0,0.0,0.0,0.0,0.0,0.0,0.0,0.0,0.0,0.0,0.0,0.0,0.0,0.0,0.0,0.0,0.0,3.2443,3.379,3.4882,3.5583,3.6239,3.6116,3.5131,3.5443,3.5331,3.4762,3.3629,3.2747,3.2091,3.4123,3.5598,3.6715,3.869,3.9665,3.9825,4.0631,4.0906,4.0833,4.0955,4.0747,0.0,0.0,0.0,0.0,0.0,0.0,0.0,0.0,3.231,3.0874,3.0874,3.1022,3.1291,3.1528,3.1871,3.2221,3.2273,3.3357,3.4362,3.3855,0.0,0.0,3.3178,3.2934,3.2841,3.2461,3.4238,0.0,0.0,0.0,0.0,0.0,0.0,0.0,0.0,0.0,0.0,0.0,0.0,0.0,0.0,0.0,0.0,0.0,0.0,0.0,0.0,0.0,0.0,0.0,1.4438,1.398,1.3568,1.3467,1.3297,1.3091,1.3467,1.3555,1.3454,1.3421,1.3399,1.3331,1.3421,1.3454,1.3454,1.3522,1.3589,1.3656,1.3822,1.4006,1.4232,1.4264,1.4487,1.4752,0.0,0.0,0.0,0.0,0.0,0.0,0.0,0.0,0.0,0.0,0.0,0.0,0.0,0.0,0.0,0.0,0.0,0.0,3.1775,3.3326,3.4472,3.5156,3.5904,3.5659,3.437,3.4504,3.4176,3.328,3.1883,3.099,3.0651,3.2852,3.4252,3.5035,3.7262,3.8463,3.8868,3.9948,4.0272,4.0137,4.0896,4.1071,4.0832,0.0,0.0,0.0,0.0,0.0,0.0,0.0,3.2829,3.1593,3.1576,3.1399,3.1292,3.2066,3.236,3.2621,3.3539,3.3515,3.3422,0.0,0.0,0.0,3.5147,3.3719,3.2854,3.4241,0.0,3.5005,0.0,0.0,0.0,0.0,0.0,0.0,0.0,0.0,0.0,0.0,0.0,0.0,0.0,0.0,0.0,0.0,0.0,0.0,0.0,0.0,0.0,0.0,1.4046,1.3689,1.3319,1.3319,1.3126,1.2803,1.2803,1.2685,1.2508,1.2437,1.2437,1.2508,1.2508,1.2508,1.2508,1.2508,1.265,1.2931,1.3408,1.3596,1.3596,1.3729,1.396,1.4214,0.0,0.0,0.0,0.0,0.0,0.0,0.0,0.0,0.0,0.0,0.0,0.0,0.0,0.0,0.0,0.0,0.0,0.0,3.0907,3.2044,3.3177,3.4438,3.5137,3.5583,3.5693,3.5255,3.3965,3.1823,3.1698,3.1506,3.1325,3.3405,3.4742,3.5497,3.7377,3.8237,3.8283,3.8767,3.9093,3.9286,3.975,4.0077,4.029,0.0,0.0,0.0,0.0,0.0,0.0,0.0,0.0,0.0,3.1785,3.2254,3.2823,3.2033,3.2593,3.3466,3.3235,3.3923,0.0,3.5133,0.0,0.0,0.0,3.4579,0.0,0.0,0.0,0.0,0.0,0.0,0.0,0.0,0.0,0.0,0.0,0.0,0.0,0.0,0.0,0.0,0.0,0.0,0.0,0.0,0.0,0.0,0.0,0.0,0.0,0.0,1.4222,1.4046,1.3735,1.3568,1.331,1.2873,1.2685,1.2615,1.2685,1.2484,1.2413,1.2437,1.2437,1.2437,1.2437,1.2437,1.2484,1.2544,1.2708,1.2918,1.3126,1.316,1.3387,1.3643,0.0,0.0,0.0,0.0,0.0,0.0,0.0,0.0,0.0,0.0,2.8204,2.7989,0.0,0.0,0.0,0.0,0.0,0.0,0.0,3.1292,3.2488,3.3998,3.4819,3.5469,3.6099,3.5215,3.3968,3.2308,3.1958,3.1709,3.154,3.2744,3.371,3.448,3.5868,3.6473,3.6473,3.6999,3.7396,3.7785,3.8345,3.8797,3.9147,0.0,0.0,0.0,0.0,0.0,0.0,0.0,0.0,0.0,3.2524,3.2833,3.3243,3.2663,3.3172,3.3881,3.3822,3.4468,0.0,3.5753,3.6235,3.6091,3.4161,0.0,0.0,0.0,0.0,0.0,0.0,0.0,0.0,0.0,0.0,0.0,0.0,0.0,0.0,0.0,0.0,0.0,0.0,0.0,0.0,0.0,0.0,0.0,0.0,0.0,0.0,0.0,1.396,1.3782,1.3622,1.3399,1.3104,1.2756,1.2508,1.2389,1.2425,1.2258,1.2186,1.221,1.2113,1.2066,1.2066,1.2029,1.2041,1.2041,1.2041,1.2174,1.2354,1.2461,1.2731,1.3045,0.0,0.0,0.0,0.0,0.0,0.0,0.0,0.0,0.0,0.0,2.8904,2.8301,0.0,0.0,0.0,0.0,0.0,0.0,0.0,3.0929,3.2244,3.3768,3.4702,3.5307,3.563,3.4653,3.4093,3.3968,3.2577,3.1766,3.1457,3.1483,3.1909,3.261,3.3482,3.3888,3.4002,3.4812,3.5339,3.5744,3.6614,3.7165,3.7509,3.7595,0.0,0.0,0.0,0.0,0.0,0.0,0.0,0.0,3.3801,3.3482,3.3193,3.3723,3.3938,3.4184,3.4958,0.0,0.0,3.6279,3.6312,0.0,3.3834,0.0,0.0,0.0,0.0,0.0,0.0,0.0,0.0,0.0,0.0,0.0,0.0,0.0,0.0,0.0,0.0,0.0,0.0,0.0,0.0,0.0,0.0,0.0,0.0,0.0,0.0,0.0,1.3412,1.3216,1.3195,1.2896,1.2662,0.0,1.2246,1.2018,1.1872,1.1811,1.1811,1.1836,1.1689,1.1579,1.1579,1.1542,1.1516,1.1516,1.1516,1.1516,1.1516,1.1763,1.209,1.2425,0.0,0.0,0.0,0.0,0.0,0.0,0.0,0.0,0.0,0.0,0.0,0.0,0.0,0.0,0.0,0.0,0.0,0.0,0.0,3.075,3.1962,3.343,3.4337,3.4665,3.4323,3.4477,3.435,3.3837,3.3154,3.248,3.1892,3.2256,3.24,3.2388,3.3192,3.3271,3.285,3.3044,3.309,3.3233,3.4722,3.5525,3.5975,3.6885,3.717,0.0,0.0,0.0,0.0,0.0,0.0,0.0,3.5152,3.5531,3.5811,3.4805,3.4969,3.5562,3.5776,3.5809,0.0,0.0,3.5512,3.3696,3.278,0.0,0.0,0.0,0.0,0.0,0.0,0.0,0.0,0.0,0.0,0.0,0.0,0.0,0.0,0.0,0.0,0.0,0.0,0.0,0.0,0.0,0.0,0.0,0.0,0.0,0.0,1.356,1.348,1.3344,1.3116,1.2756,1.2437,0.0,1.1811,1.1627,1.159,1.159,1.159,1.159,1.1553,1.1516,1.1516,1.1516,1.1516,1.1516,1.1516,1.1516,1.1516,1.1542,1.1627,1.1726,0.0,0.0,0.0,0.0,0.0,0.0,0.0,0.0,0.0,0.0,0.0,0.0,0.0,0.0,0.0,0.0,0.0,0.0,0.0,0.0,3.1647,3.3106,3.4316,3.4891,3.4797,3.5099,3.5059,3.4727,3.3763,3.2924,3.2256,3.2161,3.1969,3.1685,3.1892,3.1807,3.1419,3.1209,3.1238,3.1505,3.2364,3.3104,3.3872,3.4742,3.5399,3.5762,3.5051,0.0,0.0,0.0,0.0,0.0,0.0,0.0,3.604,3.502,3.502,3.5365,3.5479,0.0,0.0,3.5877,0.0,3.3047,3.1829,0.0,0.0,0.0,0.0,0.0,0.0,0.0,0.0,0.0,0.0,0.0,0.0,0.0,0.0,0.0,0.0,0.0,0.0,0.0,0.0,0.0,0.0,0.0,0.0,1.348,1.348,1.348,1.3425,1.3232,1.2955,1.2544,1.2174,1.1811,1.1431,1.1207,1.1067,1.1266,1.1314,1.1201,1.1201,1.1201,1.1201,1.1201,1.1201,1.1201,1.1201,1.1201,1.1239,1.1314,1.1351,1.1389,0.0,0.0,0.0,0.0,0.0,0.0,0.0,0.0,0.0,0.0,0.0,0.0,0.0,0.0,0.0,0.0,0.0,0.0,0.0,0.0,0.0,3.2907,3.4271,3.5174,3.5528,3.5469,3.5381,3.53,3.4073,3.3136,3.2436,3.1794,3.1312,3.1015,3.0658,3.0368,3.0103,2.9633,2.9667,3.0022,3.0085,3.0672,3.1598,3.2368,3.3323,3.4219,3.4202,3.4641,3.5131,3.4542,0.0,0.0,0.0,0.0,3.548,3.4972,3.4741,3.4724,3.4952,0.0,3.4775,3.4578,3.3795,0.0,3.1039,0.0,0.0,0.0,0.0,0.0,0.0,0.0,0.0,0.0,0.0,0.0,0.0,0.0,0.0,0.0,0.0,0.0,0.0,0.0,0.0,0.0,0.0,0.0,1.3425,1.3412,1.3391,1.3391,1.3185,1.2943,1.2733,1.2246,1.1836,1.1442,1.1094,1.0802,1.0621,1.0947,1.0995,1.0843,1.0843,1.0843,1.0843,1.0843,1.0843,1.0843,1.0843,1.0843,1.0881,1.1033,1.1109,1.1109,0.0,0.0,0.0,0.0,0.0,0.0,0.0,0.0,0.0,0.0,3.1603,3.193,0.0,0.0,0.0,0.0,0.0,0.0,3.0788,0.0,0.0,3.3149,3.389,3.4341,3.4422,3.4189,3.396,3.3722,3.3547,3.3055,3.2213,3.1726,3.1368,3.1151,3.0699,3.0267,2.9793,2.8996,2.8462,2.8206,2.8773,2.925,2.9716,3.1192,3.232,3.3177,3.3623,3.4064,3.4528,3.5065,3.5207,0.0,0.0,0.0,3.541,3.5312,3.4955,3.4677,0.0,0.0,3.533,0.0,3.3253,3.1549,0.0,0.0,0.0,0.0,0.0,0.0,0.0,0.0,0.0,0.0,0.0,0.0,0.0,0.0,0.0,0.0,0.0,0.0,0.0,0.0,0.0,0.0,0.0,0.0,1.3129,1.3047,1.2965,1.2965,1.2685,1.2484,1.2449,1.17,1.1292,1.1255,1.084,1.0611,1.0582,1.0659,1.0659,1.0631,1.0631,1.0631,1.0631,1.0631,1.0631,1.0631,1.0631,1.0631,1.0621,1.0659,1.0659,1.072,0.0,0.0,0.0,0.0,0.0,0.0,0.0,0.0,0.0,0.0,0.0,3.1996,0.0,0.0,0.0,3.1605,3.1585,3.1565,3.1582,3.2332,3.2756,3.2827,3.3528,3.3987,3.4094,3.3969,3.39,3.389,3.3278,3.2737,3.2179,3.1748,3.1428,3.1151,3.0435,3.0011,2.9705,2.8606,2.8171,2.8312,2.8308,2.8591,2.9225,3.0692,3.1493,3.2077,3.3329,3.3949,3.4149,3.4608,3.4998,3.5272,3.514,0.0,0.0,0.0,3.461,3.4464,3.4791,3.4872,3.4706,0.0,3.2898,3.1584,0.0,0.0,0.0,0.0,0.0,0.0,0.0,0.0,0.0,0.0,0.0,0.0,0.0,0.0,0.0,0.0,0.0,0.0,0.0,0.0,0.0,0.0,0.0,1.299,1.299,1.2931,1.2791,1.2627,1.2389,1.2102,1.1737,1.1282,1.0954,1.0697,1.0505,1.0361,1.0244,1.0244,1.04,1.0582,1.0582,1.0582,1.0582,1.0582,1.0582,1.0582,1.0582,1.0582,1.0582,1.0582,1.0733,1.0965,0.0,0.0,0.0,0.0,0.0,0.0,0.0,0.0,0.0,0.0,0.0,0.0,0.0,0.0,0.0,0.0,3.1987,3.1812,3.2003,3.2433,3.2745,3.2924,3.3539,3.4064,3.4378,3.4199,3.4189,3.4416,3.3259,3.2521,3.2231,3.186,3.1524,3.1151,3.0368,2.9881,2.9617,2.8415,2.8101,2.8427,2.7735,2.7983,2.8937,2.9873,3.0472,3.1087,3.293,3.3652,0.0,0.0,0.0,3.5017,3.4379,3.4524,0.0,0.0,0.0,0.0,0.0,0.0,3.3882,3.3266,3.2484,3.1498,0.0,0.0,0.0,0.0,0.0,0.0,0.0,0.0,0.0,0.0,0.0,0.0,0.0,0.0,0.0,0.0,0.0,0.0,0.0,0.0,0.0,0.0,0.0,1.2873,1.2873,1.2873,1.2685,1.233,1.2138,1.1726,1.1142,1.0905,1.0572,1.0205,1.0205,1.0137,0.998,0.998,1.0166,1.0428,1.0428,1.0428,1.0428,1.0428,1.0428,1.0428,1.0428,1.0428,1.0448,1.0557,1.0795,1.1061,0.0,0.0,0.0,0.0,0.0,0.0,0.0,0.0,0.0,0.0,0.0,0.0,3.2036,3.2649,3.2993,3.2884,3.2143,3.1667,3.1551,3.2514,3.3378,3.4089,3.433,0.0,3.5497,3.4776,3.4491,3.4679,3.345,3.2719,3.2385,3.2109,3.1694,3.119,3.0699,3.0081,2.9361,2.8449,2.8041,2.7852,2.6666,2.7083,2.8439,2.8326,2.9123,3.0354,3.2135,0.0,0.0,0.0,0.0,0.0,0.0,0.0,0.0,0.0,0.0,0.0,0.0,3.3346,0.0,3.2911,3.1774,0.0,0.0,0.0,0.0,0.0,0.0,0.0,0.0,0.0,0.0,0.0,0.0,0.0,0.0,0.0,0.0,0.0,0.0,0.0,0.0,0.0,0.0,0.0,0.0,1.2803,1.2803,1.2745,1.252,1.215,1.1737,1.133,1.0916,1.039,1.0088,1.0019,1.0019,1.0019,0.998,0.998,1.0019,1.0019,1.0019,1.0019,1.0019,1.0019,1.0019,1.0019,1.0019,1.0019,1.0067,1.0457,1.0609,1.0742,0.0,0.0,0.0,0.0,0.0,0.0,0.0,0.0,0.0,0.0,0.0,0.0,0.0,3.3212,3.3256,3.3244,3.2097,3.1546,3.1928,3.2464,3.2857,3.3031,3.3608,3.4036,3.4256,3.3984,3.3869,3.3927,3.2805,3.2335,3.2504,3.1638,3.1082,3.0804,3.0518,3.0428,3.0425,2.8602,2.8538,2.952,2.7602,2.7551,2.8524,2.8553,2.8876,0.0,0.0,0.0,0.0,0.0,0.0,0.0,0.0,0.0,0.0,0.0,0.0,0.0,0.0,0.0,0.0,3.2656,3.132,0.0,0.0,0.0,0.0,0.0,0.0,0.0,0.0,0.0,0.0,0.0,0.0,0.0,0.0,0.0,0.0,0.0,0.0,0.0,0.0,0.0,0.0,0.0,0.0,0.0,1.2745,1.2627,1.2401,1.1993,1.1553,1.0992,1.0322,1.0127,0.998,0.9862,0.9862,0.9872,0.9793,0.9793,0.9793,0.9793,0.9793,0.9872,0.998,0.998,0.998,0.998,0.998,1.0141,1.0387,1.0539,1.0937,1.1393,0.0,0.0,0.0,0.0,0.0,0.0,0.0,0.0,0.0,3.1599,0.0,0.0,0.0,0.0,3.3552,3.3348,3.2471,3.2096,3.2551,3.3037,3.3179,3.2981,3.3503,3.3734,3.352,3.352,3.3393,3.312,3.22,3.1769,3.1792,3.0716,3.0091,2.9892,2.9707,2.9901,3.0261,2.8618,2.8671,2.9719,2.8274,2.8181,2.8871,2.9103,0.0,0.0,0.0,0.0,0.0,0.0,0.0,0.0,0.0,0.0,0.0,0.0,0.0,0.0,3.2638,0.0,0.0,0.0,0.0,0.0,0.0,0.0,0.0,0.0,0.0,0.0,0.0,0.0,0.0,0.0,0.0,0.0,0.0,0.0,0.0,0.0,0.0,0.0,0.0,0.0,0.0,0.0,0.0,0.0,1.2603,1.2508,1.2282,1.1884,1.1282,1.0736,1.0127,1.0019,0.9862,0.9713,0.9744,0.9713,0.9643,0.9643,0.9643,0.9643,0.9594,0.9704,0.9911,0.9911,0.9911,0.992,1.0061,1.0277,1.055,1.0789,1.1238,1.1734,0.0,0.0,0.0,0.0,0.0,0.0,0.0,0.0,3.3512,3.1903,0.0,0.0,0.0,0.0,0.0,3.3308,3.3254,3.3294,3.3296,3.4166,3.4492,3.4091,3.4176,3.4018,3.3615,3.3587,3.3222,3.242,3.1828,3.108,3.0203,2.9472,2.8887,2.8477,2.8285,2.8349,2.8654,2.8369,2.8208,2.8189,0.0,2.8857,2.9448,0.0,0.0,0.0,3.0966,3.1656,0.0,3.4365,0.0,0.0,0.0,0.0,0.0,0.0,0.0,0.0,0.0,0.0,0.0,0.0,0.0,0.0,0.0,0.0,0.0,0.0,0.0,0.0,0.0,0.0,0.0,0.0,0.0,0.0,0.0,0.0,0.0,0.0,0.0,0.0,0.0,0.0,0.0,0.0,0.0,1.288,1.2437,1.2413,1.2222,1.1811,1.1029,1.0544,1.038,1.001,0.9704,0.9524,0.9643,0.9643,0.9484,0.9484,0.9484,0.9475,0.9368,0.9457,0.9683,0.9683,0.9683,0.972,1.0155,1.0321,1.0431,1.1196,1.1498,1.1553,0.0,0.0,0.0,0.0,0.0,0.0,3.3802,3.3695,3.3742,0.0,0.0,0.0,3.5034,3.4804,3.4482,3.4295,3.3336,3.2918,3.3412,3.3771,3.3885,3.3672,3.402,3.4104,3.3873,3.3707,3.3468,3.3193,3.2306,3.1643,3.1178,2.9967,2.9017,2.8345,2.801,2.7753,2.769,2.7565,0.0,2.9699,2.844,2.8581,0.0,0.0,0.0,0.0,0.0,3.1588,3.2793,0.0,3.4513,3.4881,0.0,0.0,0.0,0.0,0.0,0.0,3.1106,0.0,0.0,0.0,0.0,0.0,0.0,0.0,0.0,0.0,0.0,0.0,0.0,0.0,0.0,0.0,0.0,0.0,0.0,0.0,0.0,0.0,0.0,0.0,0.0,0.0,0.0,0.0,1.2755,1.253,1.2413,1.2294,1.2066,1.159,1.1067,1.0659,1.0312,0.9941,0.9643,0.9524,0.9643,0.9594,0.9368,0.9475,0.9426,0.9368,0.9319,0.9328,0.9408,0.9515,0.9506,0.9453,1.0063,1.0401,1.0667,1.1297,1.1673,1.1929,0.0,0.0,0.0,0.0,0.0,3.5413,3.5503,3.5608,3.5757,0.0,0.0,0.0,3.627,3.5509,3.4986,3.5059,3.3941,3.3646,3.464,3.4769,3.4698,3.4427,3.4752,3.4769,3.4434,3.4015,3.3716,3.3549,3.2206,3.1368,3.108,2.9682,2.8629,2.7827,2.7591,2.7169,2.6734,0.0,0.0,0.0,2.8755,0.0,0.0,2.9828,2.9929,0.0,0.0,0.0,3.236,3.3323,3.4339,0.0,0.0,0.0,0.0,0.0,0.0,0.0,0.0,0.0,0.0,0.0,0.0,0.0,2.8102,2.745,0.0,0.0,0.0,0.0,0.0,0.0,0.0,0.0,0.0,0.0,0.0,0.0,0.0,0.0,0.0,0.0,0.0,0.0,0.0,1.312,1.2881,1.26,1.2173,1.1993,1.1763,1.1431,1.0954,1.0495,1.0118,0.9734,0.9466,0.9395,0.9466,0.9417,0.9248,0.9346,0.9346,0.9248,0.9208,0.9168,0.9168,0.9306,0.9337,0.9372,1.0119,1.048,1.0705,1.1327,1.1728,1.1927,0.0,0.0,3.276,3.4139,3.5762,3.7003,3.7375,3.8087,3.843,0.0,3.7842,3.7522,3.6927,3.5929,3.5418,3.5678,3.4924,3.5023,3.6419,3.642,3.6179,3.5762,3.58,3.5548,3.4962,3.4363,3.3917,3.3643,3.201,3.0988,3.0498,2.9274,2.822,2.7354,2.721,0.0,2.6153,0.0,0.0,2.7484,2.9175,2.9461,0.0,0.0,3.1202,3.0526,3.0526,3.0749,3.1258,3.2747,3.3756,0.0,0.0,0.0,0.0,0.0,2.9206,0.0,0.0,0.0,0.0,0.0,0.0,0.0,2.7555,2.7325,2.6998,0.0,0.0,0.0,0.0,0.0,0.0,0.0,0.0,0.0,0.0,0.0,0.0,0.0,0.0,0.0,0.0,1.5441,1.4971,1.314,1.3132,1.2832,1.1912,1.168,1.1497,1.1282,1.071,1.0234,0.9922,0.9518,0.9288,0.9217,0.9288,0.9248,0.9177,0.9177,0.9177,0.9177,0.9056,0.9016,0.9024,0.9136,0.9217,0.9359,1.0144,1.0454,1.0587,1.1332,1.1642,1.1728,0.0,3.1996,3.3507,3.4585,3.5871,3.7212,3.8598,3.7927,3.7957,3.9846,3.8974,3.8084,3.7841,3.6453,3.574,3.6205,3.608,3.6304,3.7069,3.6519,3.6121,3.602,3.5233,3.4749,3.4695,3.4142,3.3884,3.3924,3.3405,3.2542,3.1364,3.0914,2.9936,2.8434,2.7627,2.746,2.7734,0.0,0.0,2.8311,2.9305,0.0,2.9896,3.0505,3.0465,3.0002,2.9871,2.9935,3.0342,3.1716,3.2399,3.2471,0.0,0.0,0.0,0.0,0.0,0.0,0.0,0.0,0.0,0.0,0.0,0.0,2.787,2.7148,2.6236,0.0,0.0,0.0,0.0,0.0,0.0,0.0,0.0,0.0,0.0,0.0,0.0,0.0,0.0,0.0,0.0,1.5177,1.4301,1.3531,1.3148,1.2772,1.2204,1.2163,1.1851,1.1166,1.0721,1.0293,0.9883,0.9518,0.9288,0.9217,0.9288,0.9208,0.9056,0.9136,0.9136,0.9016,0.9016,0.9016,0.9016,0.9024,0.9056,0.9139,0.9776,1.0136,1.0416,1.0992,1.1412,1.1722,3.1035,3.221,3.3542,3.5,3.6474,3.8045,3.9779,3.9427,3.9399,4.0676,3.9792,3.8682,3.7761,3.7221,3.6845,3.6613,3.6859,3.7298,3.79,3.7516,3.7227,3.7203,3.6389,3.587,3.5702,3.4713,3.4315,3.4607,3.3488,3.2752,3.2335,3.1643,3.068,2.9485,2.8949,2.8553,2.8176,0.0,2.8021,2.8652,2.9377,0.0,2.9803,3.0081,2.9983,2.9625,2.9259,2.9292,2.9619,3.0467,3.07,0.0,0.0,2.9327,2.7671,0.0,2.6874,2.5965,0.0,0.0,0.0,2.9232,0.0,0.0,0.0,2.6823,2.5909,2.3787,0.0,0.0,0.0,0.0,0.0,0.0,0.0,0.0,0.0,0.0,0.0,0.0,0.0,0.0,0.0,1.5818,1.4953,1.3871,1.2955,1.235,1.2179,1.1877,1.1498,1.1031,1.0699,1.0301,0.9762,0.9547,0.9327,0.9096,0.9136,0.9088,0.9016,0.9065,0.9056,0.9016,0.9016,0.9016,0.9016,0.9016,0.9136,0.9332,0.9648,0.9952,1.0271,1.0724,1.1155,1.153,3.1973,3.2791,3.3944,3.5789,3.7298,3.8793,4.0418,4.0725,4.0703,4.0518,3.9934,3.9006,3.757,3.7941,3.8025,3.732,3.7704,3.8244,3.8858,3.8641,3.8458,3.8384,3.7764,3.7168,3.6689,3.5439,3.4853,3.4998,3.3305,3.2669,3.305,3.2129,3.1253,3.0435,3.0299,2.9632,2.8574,0.0,0.0,2.9013,0.0,2.9623,2.94,2.973,2.9562,2.9065,2.8373,2.8448,2.8822,2.88,2.8785,2.8766,2.9088,2.7738,0.0,0.0,0.0,0.0,0.0,0.0,0.0,0.0,0.0,2.9559,0.0,0.0,0.0,2.3462,0.0,0.0,0.0,0.0,0.0,0.0,0.0,0.0,0.0,0.0,0.0,0.0,0.0,0.0,0.0,1.6559,1.5753,1.4062,1.3181,1.2498,1.2014,1.1579,1.1214,1.0858,1.0678,1.0303,0.9615,0.9606,0.941,0.9016,0.9016,0.9016,0.9016,0.9016,0.9016,0.9016,0.9016,0.9016,0.9024,0.9101,0.9315,0.9606,0.9606,0.9872,1.0245,1.0561,1.0959,1.1336,3.3945,3.4778,3.5922,3.7605,3.8163,3.87,3.9697,3.9881,3.9639,3.8799,3.8662,3.8536,3.8216,3.8248,3.848,3.8897,0.0,0.0,3.9883,0.0,3.8781,3.8651,3.7851,3.7032,3.6207,3.5716,3.5056,3.4204,3.3742,3.3306,3.2898,3.2795,3.2194,3.1244,3.0649,3.0241,0.0,0.0,2.9391,0.0,3.0098,2.9796,0.0,2.9661,2.9205,2.8169,2.674,2.6863,2.7519,0.0,2.6394,2.6987,0.0,2.5606,2.4554,0.0,0.0,0.0,0.0,0.0,0.0,0.0,2.859,0.0,0.0,0.0,2.5355,2.4034,0.0,0.0,0.0,0.0,0.0,0.0,0.0,0.0,0.0,0.0,0.0,0.0,0.0,0.0,0.0,0.0,1.5656,1.3861,1.4666,1.4272,1.2012,1.2108,1.1772,1.0772,1.0699,1.0363,0.9615,0.9606,0.941,0.9016,0.9016,0.9016,0.9016,0.9016,0.9016,0.9016,0.9016,0.9016,0.905,0.9392,0.9564,0.9606,0.9606,1.0035,1.066,1.0663,1.0959,1.1379,3.442,3.4753,3.5521,3.716,3.7528,3.8033,3.9385,3.9669,3.9429,3.8519,3.8892,3.9009,0.0,0.0,0.0,0.0,0.0,4.0052,0.0,0.0,3.9926,4.0414,0.0,0.0,3.8442,3.7441,3.644,3.5425,3.4415,3.3844,3.3691,3.3048,3.2454,3.1914,3.1619,0.0,3.0804,0.0,3.031,0.0,0.0,0.0,0.0,2.9171,2.8308,2.6769,2.5749,2.5614,2.5772,0.0,2.5204,0.0,0.0,0.0,0.0,0.0,0.0,0.0,0.0,0.0,0.0,0.0,0.0,0.0,2.6382,0.0,2.5521,0.0,0.0,0.0,0.0,0.0,0.0,0.0,0.0,0.0,0.0,0.0,0.0,0.0,0.0,0.0,0.0,0.0,0.0,0.0,0.0,1.4449,1.2326,1.2308,1.2069,1.1336,1.1319,1.0961,1.0266,1.0257,0.9958,0.9358,0.9358,0.9238,0.9016,0.9016,0.9016,0.8975,0.8886,0.8805,0.8822,0.8865,0.9136,0.9505,0.9505,0.9964,1.068,1.068,1.0959,1.143,3.5178,3.5215,3.5693,3.7346,3.7666,3.8033,3.9015,3.8987,3.8658,3.8104,0.0,0.0,3.8611,3.9219,0.0,0.0,3.9981,4.0325,0.0,0.0,4.101,0.0,0.0,0.0,0.0,0.0,3.7615,3.6203,3.4878,3.4221,3.4207,3.3176,3.2539,3.2283,3.2283,3.1949,3.1338,0.0,3.0982,3.0821,3.0352,2.9394,2.8228,2.8135,2.7126,2.5666,2.4826,2.441,2.4214,2.387,2.3576,0.0,2.3206,0.0,0.0,0.0,0.0,0.0,2.3063,0.0,0.0,0.0,0.0,0.0,0.0,0.0,0.0,0.0,0.0,0.0,0.0,0.0,0.0,0.0,0.0,0.0,0.0,0.0,0.0,0.0,0.0,0.0,0.0,0.0,0.0,1.4923,1.5166,1.4517,1.252,1.2503,1.2338,1.1805,1.1788,1.143,1.0689,1.068,1.0351,0.9606,0.9606,0.9401,0.9016,0.9016,0.8975,0.8895,0.8765,0.8683,0.8618,0.8656,0.8945,0.9414,0.9612,1.01,1.063,1.063,1.0847,1.1175,3.6778,3.7008,3.7469,0.0,0.0,0.0,0.0,0.0,0.0,0.0,0.0,0.0,0.0,0.0,0.0,0.0,0.0,3.9894,4.075,0.0,4.1754,0.0,0.0,4.1574,0.0,0.0,3.8145,3.5729,3.4883,3.4366,3.4079,3.3259,3.2672,3.2283,3.2283,3.1986,3.1476,3.1206,3.1162,3.115,2.9932,2.8461,2.6977,0.0,2.5676,2.5029,2.3719,0.0,0.0,2.1617,2.1136,0.0,0.0,0.0,0.0,0.0,0.0,0.0,0.0,0.0,0.0,2.556,0.0,0.0,0.0,0.0,2.5502,0.0,0.0,0.0,0.0,0.0,0.0,0.0,0.0,0.0,0.0,0.0,0.0,0.0,0.0,0.0,0.0,0.0,0.0,1.5817,1.5965,1.5043,1.253,1.2749,1.262,1.1814,1.1788,1.143,1.0689,1.068,1.0351,0.9606,0.9606,0.9401,0.9016,0.9016,0.8895,0.8724,0.8716,0.8602,0.847,0.9088,0.9374,0.9461,1.021,1.049,1.0506,1.0506,1.0514,1.0617,3.7558,3.7987,3.8332,0.0,0.0,0.0,0.0,3.7576,0.0,0.0,0.0,0.0,0.0,3.9715,3.9902,0.0,0.0,3.9962,3.983,4.0682,0.0,0.0,0.0,4.1928,0.0,0.0,3.95,3.8423,3.619,3.5047,3.4947,3.3541,3.282,3.2705,3.2705,3.2454,0.0,0.0,0.0,0.0,0.0,2.7981,2.6961,0.0,0.0,2.3961,2.2967,2.2217,0.0,2.0886,2.0455,2.0111,1.9984,1.9703,1.941,1.9713,2.033,0.0,0.0,0.0,2.2537,2.3661,0.0,0.0,0.0,0.0,0.0,0.0,0.0,0.0,0.0,0.0,0.0,0.0,0.0,0.0,0.0,0.0,0.0,0.0,0.0,0.0,0.0,0.0,0.0,1.5273,1.5432,1.4728,0.0,1.2833,1.2643,1.1979,1.1719,1.1369,1.0845,1.0661,1.0181,0.9457,0.9457,0.9147,0.8618,0.8618,0.8578,0.8488,0.8316,0.8185,0.8126,0.8238,0.855,0.898,0.9207,0.9562,0.9932,1.036,1.0522,1.0617,3.748,0.0,0.0,0.0,0.0,0.0,0.0,0.0,0.0,0.0,3.8438,0.0,3.9461,0.0,3.9509,0.0,3.9489,3.9454,3.9721,4.0002,0.0,4.0409,4.1295,0.0,0.0,0.0,0.0,3.8755,3.6411,3.5153,3.4942,3.2997,3.213,3.2261,3.2278,3.2181,3.1982,3.2057,3.1731,0.0,0.0,2.7543,0.0,0.0,2.4356,2.3065,0.0,2.1502,2.0719,2.027,1.9732,1.9217,1.9159,1.8929,1.8691,1.8748,1.9376,2.0041,2.0089,2.0229,0.0,2.2139,2.2615,0.0,2.4436,0.0,0.0,0.0,0.0,0.0,0.0,0.0,0.0,0.0,0.0,0.0,0.0,1.8352,0.0,0.0,0.0,0.0,0.0,0.0,1.7843,1.6114,1.5947,1.5121,0.0,0.0,1.2992,1.2043,1.167,1.1328,1.0879,1.0637,1.0105,0.9398,0.9398,0.9032,0.8414,0.8414,0.8332,0.8242,0.8062,0.7938,0.7885,0.8003,0.8304,0.8707,0.8933,0.9336,0.9842,1.0219,1.0485,1.0755,0.0,0.0,0.0,0.0,4.0857,0.0,0.0,0.0,3.8732,0.0,3.8211,3.8226,3.9089,3.8652,3.8603,3.9368,3.8302,0.0,4.0191,3.9587,0.0,0.0,4.0809,4.0345,3.7947,0.0,0.0,0.0,3.5506,3.4602,3.409,3.1733,3.0838,3.1177,3.1228,0.0,3.1462,3.1969,3.193,3.1333,2.8903,2.7163,2.593,2.4621,2.3465,2.236,2.1799,2.1091,2.0271,1.9565,1.8881,1.8213,1.7929,1.7743,1.7521,1.7311,1.7955,1.8744,1.8703,1.8698,1.9177,2.0853,0.0,0.0,0.0,0.0,2.1589,0.0,0.0,0.0,0.0,0.0,0.0,0.0,0.0,0.0,0.0,0.0,0.0,0.0,0.0,0.0,0.0,1.9695,1.8909,1.8183,1.7432,1.6233,0.0,0.0,1.3554,1.215,1.171,1.1296,1.0902,1.0617,1.0137,0.9375,0.936,0.9004,0.8397,0.8381,0.8242,0.7979,0.7979,0.7863,0.7763,0.8399,0.867,0.8751,0.9358,0.9811,1.0126,1.0126,1.0521,1.1055,3.7242,3.8541,3.9554,0.0,4.0227,4.0229,0.0,0.0,0.0,0.0,3.6463,3.6091,3.6406,3.6581,3.6822,3.7203,3.7257,0.0,0.0,0.0,0.0,3.8422,3.9189,3.9471,3.9212,3.8634,0.0,3.7099,0.0,3.3733,3.3654,3.188,3.1369,3.1968,3.2019,3.1917,3.1795,3.1933,3.1562,3.0794,2.9058,2.7737,0.0,0.0,2.3703,2.1852,2.169,2.0832,1.9708,1.8963,1.8147,1.7423,1.7068,1.6483,1.6006,1.6421,1.6609,1.6778,1.7127,1.694,1.6946,1.8143,1.8507,1.8922,0.0,0.0,0.0,0.0,0.0,0.0,0.0,0.0,0.0,0.0,0.0,0.0,0.0,0.0,0.0,1.9922,0.0,0.0,0.0,1.868,1.8011,1.8094,1.7638,0.0,0.0,0.0,0.0,1.3048,1.1835,1.1025,1.0696,1.0359,0.9874,0.9231,0.8984,0.8648,0.8237,0.7997,0.7836,0.7795,0.7795,0.7753,0.7748,0.8158,0.8473,0.8729,0.9131,0.9768,1.0463,1.0463,1.0565,1.0748,3.6763,0.0,0.0,3.8672,0.0,0.0,3.8741,0.0,0.0,3.6916,3.6304,0.0,3.6059,3.6289,3.6504,3.6646,3.678,0.0,3.7335,0.0,0.0,3.7928,3.7859,3.7943,3.8266,3.7316,0.0,3.6146,0.0,0.0,3.2992,3.1089,3.062,3.1339,3.1427,3.1445,3.1336,3.1479,3.1179,3.051,2.8575,0.0,0.0,2.5226,2.3377,2.1771,2.1677,2.072,1.9371,1.8541,1.7653,1.6809,1.601,1.5392,1.5009,1.4945,1.5212,1.5534,1.548,1.5437,1.5612,1.6369,1.6508,1.6872,1.8464,1.8293,1.8081,0.0,0.0,0.0,0.0,0.0,0.0,0.0,0.0,0.0,0.0,0.0,0.0,0.0,1.9497,0.0,0.0,0.0,1.8005,1.8692,0.0,0.0,0.0,0.0,0.0,1.323,1.246,1.1676,1.0773,1.0468,0.9982,0.9365,0.9082,0.8655,0.8194,0.8012,0.7851,0.7712,0.7712,0.7712,0.7748,0.8224,0.8524,0.8758,0.9504,1.0119,1.0624,1.0909,1.1011,1.1041,0.0,0.0,0.0,0.0,0.0,0.0,0.0,3.7485,0.0,3.7,0.0,3.6287,3.6435,3.65,3.6569,3.6682,0.0,3.6686,3.7756,3.6248,3.5944,3.736,3.6524,3.6011,3.5888,3.5451,0.0,0.0,0.0,0.0,3.2298,3.0201,2.9591,3.0272,3.0512,0.0,0.0,3.0903,3.0855,3.0452,2.8025,2.7067,2.6862,2.4587,2.2978,2.188,2.171,2.0604,1.908,1.8132,1.719,1.6192,1.486,1.4443,1.4297,1.3433,1.3919,1.4656,1.4003,1.4185,1.4697,1.5099,1.4748,1.4793,1.6797,1.6329,1.5938,1.7437,1.7158,1.6658,0.0,0.0,0.0,0.0,0.0,0.0,0.0,0.0,0.0,0.0,0.0,0.0,0.0,0.0,0.0,0.0,0.0,0.0,0.0,0.0,0.0,1.3459,1.3367,0.0,1.1261,0.0,1.032,0.9684,0.9361,0.8853,0.826,0.8224,0.8026,0.7712,0.7712,0.7741,0.7821,0.8436,0.8736,0.8926,1.0119,1.0587,1.0667,1.1319,1.1498,1.156,0.0,0.0,0.0,0.0,0.0,3.7132,3.6385,3.6029,3.5683,3.5244,3.4376,3.3842,3.4,3.4356,3.4755,3.5143,3.5314,0.0,0.0,0.0,0.0,3.4851,3.4363,3.3834,3.3296,3.2891,3.2804,0.0,0.0,0.0,3.1962,3.112,3.0892,3.1172,3.1543,0.0,3.1014,3.0828,0.0,3.0149,2.8542,2.7553,2.6909,2.5134,2.3325,2.171,2.1554,2.0132,1.8187,1.7422,1.6481,1.5365,1.3942,1.3595,1.3569,1.3024,1.3008,1.3165,1.331,1.3389,1.3508,1.349,1.3671,1.3919,1.4214,1.4314,1.4493,1.477,1.4916,1.5011,1.4968,0.0,0.0,0.0,0.0,0.0,0.0,0.0,0.0,0.0,0.0,0.0,0.0,0.0,0.0,0.0,0.0,0.0,0.0,0.0,0.0,0.0,1.4461,0.0,0.0,0.0,1.0423,0.9982,0.9475,0.897,0.8597,0.8326,0.8026,0.7712,0.7712,0.7865,0.8143,0.8531,0.8992,0.9526,1.012,1.0351,1.043,1.0951,1.1185,1.1247,0.0,0.0,0.0,0.0,0.0,0.0,0.0,3.3859,0.0,3.4478,3.381,3.3575,3.4463,3.4614,3.4802,3.5085,3.5222,3.5133,3.4749,3.4287,3.4025,3.4039,3.3281,0.0,3.2701,3.1544,3.1213,3.1721,0.0,0.0,0.0,3.1857,3.2076,3.2817,0.0,3.2097,0.0,0.0,0.0,3.0133,2.8329,2.7391,2.6893,2.4817,2.3045,2.1513,2.1117,1.92,1.691,1.6564,1.5676,1.4541,1.3208,1.2763,1.2683,1.2317,1.2215,1.2274,1.2559,1.2638,1.2745,1.292,1.3135,1.3342,1.3457,1.3662,1.3877,1.4038,1.4243,1.447,1.4811,1.5348,0.0,0.0,0.0,0.0,0.0,0.0,0.0,0.0,0.0,0.0,0.0,0.0,0.0,0.0,0.0,0.0,0.0,0.0,0.0,0.0,0.0,0.0,0.0,0.0,0.0,1.0015,0.96,0.9153,0.8685,0.8524,0.8187,0.7726,0.7895,0.8055,0.8238,0.8736,0.9256,0.9807,1.0284,1.0509,1.06,1.1008,1.1284,1.1468,0.0,3.5539,0.0,0.0,3.4907,0.0,3.3174,3.2143,3.2143,3.3856,3.3409,3.3481,3.5007,3.4878,3.4749,3.4866,3.4832,3.4489,3.3743,3.1692,3.1195,3.2723,2.8689,2.8015,3.1473,2.8249,2.7855,0.0,0.0,0.0,0.0,0.0,0.0,0.0,0.0,0.0,0.0,0.0,3.0551,2.9828,2.7854,2.6909,2.6428,2.4234,2.2503,2.1179,2.0562,1.843,1.5886,1.5574,1.4795,1.3751,1.2594,1.223,1.2086,1.1696,1.1619,1.1728,1.1927,1.2116,1.2314,1.2774,1.2832,1.2812,1.314,1.3116,1.309,1.3351,1.344,1.3734,1.4499,1.4805,0.0,0.0,0.0,0.0,0.0,0.0,0.0,0.0,0.0,0.0,0.0,0.0,0.0,0.0,0.0,0.0,0.0,0.0,0.0,0.0,0.0,1.5652,1.3826,0.0,1.1318,0.0,0.9941,0.9392,0.8692,0.8758,0.8436,0.7836,0.8165,0.8341,0.8398,0.898,0.9496,0.9921,1.0293,1.0551,1.0746,1.1064,1.1376,1.1551,0.0,0.0,0.0,0.0,0.0,0.0,0.0,3.2072,3.1618,3.2638,3.2138,3.2219,3.3644,3.3333,3.3052,3.3122,3.297,3.2624,3.2051,2.5145,2.3501,2.8951,1.5253,1.3684,2.7056,1.9559,1.994,0.0,0.0,0.0,0.0,0.0,0.0,0.0,0.0,0.0,0.0,3.1334,3.0329,2.8656,2.7418,2.6224,2.5026,2.3644,2.2019,2.0462,2.0147,1.8264,1.5722,1.4581,1.368,1.2908,1.2304,1.2273,1.2277,1.1421,1.1326,1.1569,1.1728,1.1927,1.2224,1.2783,1.2529,1.2184,1.2221,1.1813,1.1411,1.1319,1.1341,1.1691,1.2715,1.2562,1.2715,0.0,0.0,0.0,0.0,0.0,0.0,0.0,0.0,0.0,0.0,0.0,0.0,0.0,0.0,0.0,0.0,0.0,0.0,1.9503,0.0,1.6994,1.6766,1.3911,0.0,1.1646,1.074,0.9749,0.8699,0.8999,0.8773,0.8173,0.8502,0.8699,0.8876,0.9227,0.9525,0.9708,0.9902,1.0148,1.039,1.0573,1.087,1.1055,0.0,0.0,0.0,0.0,0.0,0.0,0.0,3.1392,3.0806,3.1652,3.1561,3.1726,3.2451,3.2365,3.2241,3.2182,2.816,2.5498,2.5212,1.7587,1.4084,1.6362,0.8828,0.9675,2.0555,1.6306,1.8572,0.0,0.0,0.0,0.0,0.0,0.0,0.0,0.0,3.3053,3.1685,3.0852,2.9792,2.8585,2.6809,2.5455,2.4313,2.2747,2.1007,1.9272,1.8584,1.6871,1.4812,1.3481,1.2859,1.246,1.1663,1.1379,1.1362,1.0963,1.0718,1.071,1.1124,1.1167,1.1217,1.1769,1.171,1.156,1.156,1.1292,1.1074,1.1015,1.1118,1.1299,1.1736,1.1978,1.2305,0.0,0.0,0.0,0.0,0.0,0.0,0.0,0.0,0.0,0.0,0.0,0.0,0.0,0.0,0.0,0.0,0.0,0.0,2.0162,0.0,1.7007,1.6751,1.4427,1.2808,1.1868,1.1475,1.0653,0.95,0.964,0.9361,0.8794,0.8808,0.899,0.9183,0.9259,0.9505,0.9854,0.9971,1.0258,1.0636,1.0696,1.1043,1.1391,2.798,0.0,3.3999,0.0,3.3032,3.1659,2.9233,2.8073,2.7569,2.7834,2.6718,2.7295,3.0983,3.1237,3.0274,2.8154,2.3253,1.9349,1.7148,0.9509,0.5742,0.7357,0.0999,0.0,1.6092,1.2281,1.5704,2.6997,2.8134,0.0,0.0,0.0,0.0,0.0,3.3932,3.3124,3.1729,3.0504,2.9214,2.7872,2.603,2.4451,2.305,2.1614,1.9925,1.8202,1.7297,1.5823,1.4073,1.2763,1.2209,1.1873,1.0998,1.0659,1.0565,1.0403,1.0146,0.9991,1.0506,1.0446,1.0438,1.099,1.104,1.0897,1.0897,1.0728,1.0517,1.0415,1.0543,1.0632,1.0632,1.1102,1.1642,1.2136,0.0,0.0,0.0,0.0,0.0,0.0,1.5052,1.5648,1.6259,0.0,0.0,0.0,0.0,0.0,0.0,0.0,0.0,0.0,0.0,0.0,0.0,1.5181,1.369,1.2582,1.2299,1.1541,1.0377,1.0075,0.965,0.9206,0.9033,0.9153,0.9397,0.9291,0.9549,0.9982,1.0034,1.0349,1.0744,1.0744,1.1125,1.1567,2.2963,2.7423,3.0845,3.1101,3.0634,2.817,2.1978,2.1305,2.115,2.0174,1.5897,1.7382,2.9132,2.9765,2.6578,1.9767,1.8829,1.5624,0.8502,0.0899,-0.0757,0.0,0.0,-0.8304,1.4789,0.6215,0.9411,2.5743,0.0,0.0,2.8625,0.0,3.3557,3.2945,3.3823,3.3124,3.1261,3.0517,2.8622,2.6045,2.4954,2.3143,2.0976,2.0273,1.895,1.7332,1.673,1.5429,1.3836,1.2609,1.1765,1.1116,1.0415,1.0285,1.03,0.9769,0.9614,0.9666,0.9909,1.002,1.0167,1.0864,1.0618,1.0218,1.0218,0.9814,0.9361,0.9061,0.914,0.9239,0.9239,0.9486,1.0142,1.1318,0.0,0.0,0.0,0.0,0.0,0.0,1.4753,1.538,1.5034,0.0,0.0,0.0,0.0,0.0,0.0,0.0,0.0,1.9837,1.9168,0.0,1.8155,1.6507,1.5148,1.4185,1.3155,1.2238,1.1334,1.0311,0.9607,0.9204,0.9204,0.9272,0.9391,0.9391,0.9687,1.0107,1.0107,1.0294,1.0624,1.0624,1.0929,1.1423,1.4693,1.8081,1.9822,2.0784,1.9987,1.8616,1.6798,1.6129,1.5508,1.4693,1.3599,1.3775,1.6039,1.9865,1.9757,0.0,1.1378,0.7783,0.0,-0.6303,-1.0317,-0.9145,-1.5701,-1.3645,-0.1244,0.0763,0.6892,1.762,0.0,0.0,0.0,3.2371,3.2748,3.2035,3.2634,3.1584,2.937,2.9143,2.7333,2.4539,2.4092,2.2337,2.0014,1.9688,1.8067,1.5846,1.5417,1.4273,1.2842,1.194,1.1225,1.0517,0.9762,0.9465,0.942,0.9361,0.9309,0.9361,0.9413,0.9465,0.9517,0.971,0.9666,0.951,0.951,0.9309,0.9061,0.891,0.8878,0.8945,0.8945,0.9025,0.935,1.0082,1.0492,0.0,0.0,0.0,0.0,0.0,1.3378,1.4014,0.0,1.5346,0.0,0.0,0.0,0.0,0.0,0.0,0.0,0.0,1.9866,0.0,1.852,1.691,1.5615,1.4608,1.4282,1.3453,1.2102,1.105,1.0254,0.971,0.9263,0.9179,0.9398,0.9294,0.9586,1.0114,1.0114,1.0294,1.0624,1.0624,1.0802,1.1156,0.7581,1.1637,1.3921,1.46,1.3875,1.24,0.9982,0.9221,0.8602,0.7738,0.6471,0.5817,0.6334,0.9833,0.0,0.6476,0.45,0.0807,-0.5458,-1.103,-1.4756,-1.6193,-1.8024,-1.5625,-0.8433,0.0,0.0,1.3825,2.3256,2.8655,3.0147,3.1173,3.1185,3.037,3.1028,3.0126,2.8115,2.7727,2.6064,2.3707,2.2773,2.1199,1.9362,1.8685,1.6948,1.4756,1.4446,1.3399,1.2076,1.151,1.0787,1.0012,0.9465,0.8949,0.8639,0.8844,0.8949,0.9008,0.8949,0.8949,0.9001,0.9001,0.9001,0.9001,0.9061,0.8956,0.885,0.8804,0.8752,0.8745,0.8804,0.8804,0.8956,0.951,1.0046,1.0553,1.1132,0.0,0.0,0.0,0.0,0.0,0.0,1.434,0.0,0.0,0.0,0.0,0.0,0.0,0.0,2.1599,2.0107,0.0,1.8428,1.7071,1.5801,1.4719,1.4508,1.3676,1.235,1.1665,1.0844,1.0001,0.9592,0.9515,0.968,0.9566,0.9853,1.0281,1.0281,1.0401,1.0624,1.0624,1.0815,1.1182,0.1307,0.7041,0.0,0.0,1.0648,0.0,0.1941,0.1121,0.085,-0.0176,-0.3993,-0.4864,-0.0343,0.013,-0.0306,-0.1265,0.0,0.0,0.0,-1.3457,-1.48,-1.6914,-1.7841,-1.5221,-0.8732,-0.9266,-0.1935,1.3847,2.26,2.7154,2.7715,2.9017,2.9159,2.8384,2.9212,2.8784,2.7387,2.6294,2.4869,2.3227,2.118,1.9789,1.8796,1.7323,1.5652,1.4093,1.3784,1.2716,1.1418,1.1276,1.049,0.951,0.9406,0.8679,0.7949,0.8262,0.8586,0.8699,0.848,0.8474,0.8573,0.8573,0.8573,0.8633,0.8752,0.8692,0.8633,0.8752,0.8685,0.8633,0.8752,0.8804,0.8956,0.9458,0.9762,1.0123,1.0761,0.0,0.0,0.0,0.0,0.0,0.0,1.365,1.4336,0.0,0.0,0.0,0.0,0.0,2.201,2.0786,2.0063,1.9148,1.8118,1.7046,1.5872,1.459,1.4086,1.3238,1.2219,1.2184,1.1424,1.0188,1.0111,1.0073,1.0114,1.0114,1.0294,1.0624,1.0645,1.0651,1.0658,1.0678,1.0962,1.143,0.0,0.0,-0.2524,-0.192,-0.2344,-0.3176,-0.4223,-0.4514,-0.4852,-0.5571,-0.611,-0.6627,-0.7078,-0.6439,-0.6561,-0.7813,-0.4353,-0.504,-1.2088,-1.3531,-1.4948,-1.6913,-1.7725,-1.7848,-1.7226,-1.1835,-0.139,1.4194,2.2055,2.6428,2.7423,2.8254,2.867,2.8686,2.9051,2.8091,2.6191,2.5438,2.3653,2.1235,2.0421,1.91,1.7468,1.6512,1.4968,1.324,1.2531,1.1584,1.0659,1.0608,0.9976,0.9138,0.8988,0.8408,0.7836,0.8162,0.8374,0.848,0.8427,0.8421,0.8421,0.8421,0.8421,0.8474,0.848,0.848,0.8474,0.848,0.8527,0.8626,0.8633,0.8745,0.8804,0.8837,0.9152,0.9569,0.9976,1.0395,0.0,0.0,1.2043,1.2647,1.3058,1.3369,1.4428,0.0,0.0,0.0,0.0,2.1886,2.2476,2.1975,2.0943,1.9946,1.9145,1.7517,1.6068,1.4877,1.4773,1.4336,1.358,1.2877,1.2079,1.1129,1.0427,1.0073,1.0114,1.0114,1.0294,1.0645,1.0808,1.0895,1.0915,1.1142,1.1309,1.1456,-0.9261,-0.8106,-0.741,-0.7031,-0.7475,-0.7804,-0.767,-0.78,-0.8013,-0.8389,-0.7925,-0.809,-0.9354,-0.9033,-0.9138,-1.0198,-0.7841,-0.8153,-1.2484,-1.3748,-1.517,-1.7122,-1.7458,-1.8277,-1.9698,-1.5725,-0.641,0.8325,1.6927,2.2819,2.6024,2.715,2.7573,2.7371,2.7255,2.6189,2.4358,2.3506,2.1957,2.0036,1.899,1.7744,1.6453,1.5303,1.373,1.2094,1.1589,1.0821,1.0035,1.0035,0.9555,0.8928,0.8626,0.8043,0.7563,0.7735,0.7949,0.815,0.7996,0.8049,0.8103,0.8103,0.8103,0.8215,0.8268,0.8321,0.8321,0.8374,0.8427,0.8474,0.8573,0.8685,0.8692,0.8692,0.9171,0.9681,1.0098,1.0475,0.0,1.1481,1.1935,1.2367,1.2682,1.2939,1.3993,1.6277,0.0,0.0,1.9994,2.0875,2.15,2.1934,2.1089,2.0153,1.9113,1.6995,1.5566,1.4803,1.4606,1.4333,1.3987,1.3476,1.2863,1.2069,1.13,1.088,1.0746,1.0438,1.0414,1.0651,1.0882,1.0995,1.1029,1.1316,1.151,1.165,-0.9908,-0.8633,-0.7966,-0.8184,-0.8442,-0.8751,-0.9197,-0.9309,-0.9361,-0.951,-0.9211,-0.9113,-0.9517,-0.9465,-0.9703,-1.0324,-1.0822,-1.1618,-1.286,-1.3685,-1.5065,-1.6961,-1.693,-1.7494,-1.8915,-1.8017,-1.1345,0.1366,1.0849,1.8598,2.4533,2.5867,2.6194,2.5652,2.5067,2.4083,2.2807,2.147,2.03,1.922,1.7499,1.6298,1.5415,1.3973,1.2387,1.0881,1.0754,1.0218,0.9517,0.9517,0.9249,0.8823,0.8268,0.7729,0.7241,0.7144,0.7348,0.7605,0.7515,0.7568,0.767,0.767,0.7735,0.7901,0.8062,0.8115,0.8109,0.8268,0.8215,0.8215,0.8474,0.8488,0.8593,0.8751,0.9302,0.9883,1.0477,0.0,1.1169,1.1659,1.1882,1.2076,1.2274,1.2569,1.3476,1.5196,1.6025,1.7213,0.0,1.9415,2.0065,2.1139,2.0592,1.97,1.8362,1.6283,1.4935,1.4506,1.4148,1.3974,1.3974,1.391,1.3566,1.2981,1.2204,1.1722,1.1421,1.087,1.0651,1.0719,1.0949,1.1089,1.1162,1.145,1.1717,1.1937,-1.1493,-1.0372,-0.9651,-0.9651,-0.9354,-0.8995,-0.8784,-0.8896,-0.9054,-0.9086,-0.8949,-0.9173,-1.0058,-0.9784,-0.976,-1.027,-1.0489,-1.1017,-1.2022,-1.2726,-1.3838,-1.5477,-1.5947,-1.6645,-1.7639,-1.2044,-0.5425,0.2109,0.9853,1.7388,2.4567,2.4535,2.4959,2.5635,2.4388,2.361,2.3119,2.1288,1.9678,1.8278,1.682,1.5353,1.3884,1.2609,1.1414,1.0383,0.9703,0.9309,0.9106,0.9106,0.889,0.8521,0.7836,0.7408,0.7025,0.6534,0.6426,0.6642,0.73,0.7515,0.7515,0.7515,0.7568,0.7574,0.7628,0.7628,0.7628,0.7628,0.7788,0.7955,0.8008,0.8119,0.832,0.8751,0.8823,0.9152,1.0216,0.0,1.0638,1.1294,1.1963,1.2382,1.2332,1.2793,1.3536,1.46,1.507,1.6226,1.8277,1.885,1.9371,2.0021,1.9343,1.8304,1.6882,1.6337,1.5563,1.4515,1.4442,1.4414,1.4405,1.4047,1.3709,1.3348,1.2368,1.1722,1.1421,1.087,1.0701,1.0955,1.1243,1.151,1.1764,1.2058,1.2198,1.2231,-1.1819,-1.0795,-1.0012,-1.0012,-0.9562,-0.9159,-0.8942,-0.9106,-0.9256,-0.9295,-0.9316,-0.9474,-0.9857,-0.9776,-0.968,-0.9771,-0.9982,-1.0368,-1.0982,-1.1963,-1.338,-1.5311,-1.546,-1.5934,-1.6879,-1.3978,-0.7588,0.2298,0.6167,1.341,2.3742,2.3826,2.4033,2.4363,2.2952,2.192,2.1213,1.9738,1.8249,1.6798,1.5513,1.4057,1.2541,1.1282,1.0297,0.9444,0.8942,0.8791,0.8791,0.8692,0.8633,0.8468,0.767,0.7187,0.6912,0.6372,0.6209,0.6263,0.6701,0.681,0.6864,0.709,0.7198,0.7252,0.7467,0.7521,0.7521,0.7521,0.7681,0.7842,0.7901,0.8057,0.826,0.8622,0.8932,0.0,0.0,1.0703,1.0918,1.1786,1.2181,1.2323,1.2224,1.2764,1.3618,1.4722,1.4989,1.5871,1.7675,1.7906,1.8254,1.8833,1.8377,1.7611,1.6492,1.6026,1.5352,1.4515,1.4515,1.4515,1.4506,1.4313,1.4146,1.4001,1.3143,1.2498,1.1965,1.1358,1.1042,1.1022,1.1316,1.1603,1.1904,1.2191,1.2305,1.2305,-1.1719,-1.0787,-1.0064,-0.9917,-0.9465,-0.9106,-0.9159,-0.9263,-0.9361,-0.9465,-0.9563,-0.9584,-0.9528,-0.9527,-0.943,-0.9181,-0.9458,-0.9758,-1.0169,-1.1151,-1.2712,-1.4948,-1.5045,-1.5487,-1.6405,-1.662,-1.0461,0.2333,0.3195,1.0182,2.2747,2.304,2.3064,2.276,2.1243,2.0112,1.929,1.8167,1.687,1.5499,1.4321,1.2936,1.144,1.0305,0.9406,0.8699,0.848,0.8474,0.8521,0.8421,0.8519,0.8498,0.7634,0.7166,0.6812,0.6277,0.6046,0.5991,0.6154,0.6209,0.6263,0.6657,0.6712,0.6804,0.7074,0.7154,0.723,0.7233,0.7368,0.7568,0.7788,0.7953,0.8178,0.8635,0.0,0.0,0.0,1.0875,1.1133,1.1828,1.2146,1.2224,1.2026,1.2686,1.3545,1.4682,1.4849,1.5493,1.6797,1.6807,1.7014,1.7526,1.7571,1.7157,1.6265,1.569,1.5069,1.4515,1.4414,1.4414,1.4506,1.4414,1.4414,1.4446,1.3821,1.318,1.2569,1.1899,1.1446,1.1216,1.1443,1.171,1.1997,1.2218,1.2305,1.2305,-1.1528,-1.0787,-1.021,-0.971,-0.9159,-0.8857,-0.9008,-0.9008,-0.9061,-0.9211,-0.9054,-0.9012,-0.9195,-0.9081,-0.8906,-0.8769,-0.8943,-0.9283,-0.9785,-1.0105,-1.1182,-1.3288,-1.4614,-1.556,-1.62,-1.6231,-1.0107,0.2495,0.3301,0.9926,2.1877,2.1916,2.1729,2.1292,1.9493,1.8691,1.8586,1.7245,1.6065,1.4937,1.3674,1.225,1.0762,0.9961,0.9197,0.8573,0.8474,0.8421,0.8421,0.8421,0.8594,0.865,0.7751,0.7285,0.6849,0.6046,0.5504,0.5344,0.5991,0.6209,0.6209,0.6263,0.6263,0.6215,0.6134,0.6183,0.6318,0.6447,0.6728,0.709,0.7467,0.7529,0.7862,0.8845,0.0,0.0,1.0166,1.0544,1.0654,1.0561,1.1559,1.2126,1.1778,1.2578,1.3278,1.3662,1.4125,1.4602,1.524,1.5586,1.5875,1.6074,1.6961,1.6821,1.5468,1.541,1.5069,1.4506,1.4112,1.413,1.4497,1.4112,1.4148,1.4446,1.3821,1.3269,1.2941,1.225,1.1896,1.181,1.183,1.2011,1.2271,1.2291,1.2305,1.2305,-1.0939,-1.0226,-0.9614,-0.9361,-0.9001,-0.8685,-0.8738,-0.8903,-0.9008,-0.9061,-0.8945,-0.8778,-0.8676,-0.8468,-0.8283,-0.8087,-0.822,-0.8545,-0.9064,-0.9414,-1.0647,-1.2986,-1.4351,-1.5142,-1.5412,-1.568,-0.9597,0.3166,0.321,0.9465,2.1421,2.0651,1.9964,1.9294,1.7717,1.6828,1.6529,1.5776,1.4767,1.3548,1.257,1.139,1.0064,0.9197,0.8738,0.8574,0.819,0.8293,0.8551,0.8494,0.8561,0.8598,0.7835,0.7538,0.7217,0.6105,0.5391,0.5066,0.5395,0.5563,0.5677,0.5896,0.5855,0.5795,0.5982,0.6025,0.6072,0.5961,0.634,0.6665,0.6676,0.6917,0.7298,0.8025,0.0,0.84,0.9453,0.9731,0.9926,1.0226,1.1189,1.1792,1.1701,1.248,1.3162,1.3573,1.3752,1.3924,1.4109,1.4638,1.5044,1.5204,1.5848,1.5921,1.541,1.502,1.4604,1.4121,1.4222,1.4222,1.4121,1.4231,1.4359,1.4515,1.4198,1.3588,1.2648,1.2406,1.2029,1.1597,1.1597,1.1884,1.2305,1.2305,1.2305,1.2305,-1.0218,-0.9666,-0.9159,-0.9001,-0.8738,-0.8521,-0.8521,-0.8738,-0.881,-0.8716,-0.8655,-0.8449,-0.8136,-0.7874,-0.7766,-0.7787,-0.791,-0.8231,-0.8867,-0.9439,-1.0694,-1.2735,-1.3862,-1.4536,-1.472,-1.4789,-0.8876,0.3239,0.2477,0.8246,2.0012,1.8549,1.7522,1.6904,1.5876,1.5047,1.4416,1.4093,1.3375,1.2307,1.1458,1.0568,0.9562,0.8732,0.8492,0.8571,0.8117,0.823,0.861,0.8416,0.8498,0.8562,0.7942,0.75,0.6956,0.5922,0.5226,0.4791,0.5014,0.5124,0.5238,0.5572,0.5528,0.5466,0.567,0.5704,0.5696,0.5588,0.5848,0.6107,0.6162,0.6423,0.6798,0.7395,0.7494,0.7891,0.879,0.9033,0.9311,0.9758,1.0605,1.1229,1.1416,1.215,1.2871,1.3334,1.3478,1.345,1.3186,1.346,1.3771,1.4154,1.4505,1.4859,1.5128,1.4734,1.4368,1.4084,1.424,1.4231,1.4084,1.424,1.4387,1.4515,1.4515,1.383,1.2679,1.2679,1.2188,1.1563,1.1563,1.187,1.2305,1.2305,1.2305,1.2305,-0.9361,-0.9211,-0.9001,-0.8474,-0.8421,-0.8421,-0.8421,-0.8521,-0.8469,-0.8132,-0.8096,-0.7949,-0.765,-0.7351,-0.7418,-0.793,-0.8066,-0.8427,-0.923,-1.0232,-1.1258,-1.2316,-1.3016,-1.3647,-1.4258,-1.3558,-0.8056,0.2474,0.1103,0.6259,1.7397,1.5424,1.4395,1.4174,1.3975,1.3344,1.2455,1.225,1.1868,1.1332,1.0501,0.9865,0.9309,0.8633,0.8492,0.8571,0.8241,0.8299,0.8475,0.8165,0.8305,0.8422,0.8015,0.702,0.5928,0.5441,0.4952,0.457,0.4846,0.4897,0.4956,0.5242,0.5297,0.5249,0.5125,0.508,0.5126,0.5183,0.5193,0.5394,0.6083,0.618,0.6406,0.7087,0.7285,0.7629,0.8298,0.8561,0.8785,0.8948,0.9833,1.0511,1.075,1.1594,1.2323,1.2881,1.319,1.3121,1.2447,1.1948,1.2002,1.2696,1.3085,1.369,1.4506,1.4515,1.4515,1.4506,1.4084,1.4102,1.4488,1.4075,1.4112,1.4515,1.4515,1.3917,1.2972,1.2972,1.2595,1.1864,1.187,1.2044,1.2305,1.2305,1.2305,1.2305,-0.8797,-0.8527,-0.8215,-0.8055,-0.8162,-0.8268,-0.8268,-0.8368,-0.8371,-0.8094,-0.7804,-0.7646,-0.7562,-0.7386,-0.7417,-0.7749,-0.7916,-0.8098,-0.8423,-0.8884,-0.9256,-0.9519,-1.1182,-1.2355,-1.2793,-1.2027,-0.7749,0.0046,0.1618,0.5957,1.2882,1.3605,1.3502,1.2715,1.2015,1.163,1.1431,1.1199,1.0754,1.0254,0.9909,0.9482,0.8908,0.8451,0.8447,0.8595,0.8017,0.8069,0.8328,0.8189,0.8153,0.8159,0.7998,0.7209,0.6367,0.6258,0.5882,0.5508,0.5226,0.5189,0.5182,0.5152,0.4892,0.4734,0.5012,0.4835,0.4642,0.4681,0.4969,0.5224,0.5358,0.5689,0.6111,0.6446,0.6529,0.68,0.7585,0.7682,0.784,0.8426,0.9361,1.0216,1.0724,1.1594,1.2323,1.2881,1.254,1.2348,1.232,1.2358,1.2604,1.3094,1.3782,1.4268,1.4515,1.4515,1.4368,1.4075,1.424,1.4231,1.4075,1.4249,1.4396,1.4515,1.4515,1.4072,1.3322,1.3131,1.2725,1.2261,1.2002,1.2044,1.2305,1.2305,1.2305,1.2305,-0.8118,-0.797,-0.7817,-0.7817,-0.7929,-0.8005,-0.8063,-0.816,-0.8096,-0.776,-0.7595,-0.7449,-0.7336,-0.7217,-0.7268,-0.7607,-0.7753,-0.7785,-0.7626,-0.7813,-0.7869,-0.7811,-0.8899,-0.9921,-1.0672,-0.9569,-0.6097,-0.0145,0.1659,0.5422,1.0927,1.1423,1.1514,1.1232,1.0602,1.0261,1.021,0.9902,0.9755,0.9614,0.9249,0.8998,0.876,0.8218,0.8153,0.8328,0.7841,0.7948,0.8204,0.7985,0.7885,0.783,0.7683,0.7138,0.6529,0.6534,0.6213,0.5764,0.5412,0.5202,0.5024,0.5015,0.4715,0.4492,0.4794,0.466,0.4506,0.451,0.4788,0.5017,0.4983,0.5335,0.5654,0.5808,0.6061,0.6533,0.7338,0.7365,0.7545,0.827,0.8952,0.9671,1.0501,1.1151,1.1771,1.2426,1.1902,1.1771,1.2197,1.2356,1.27,1.3277,1.3928,1.4341,1.4515,1.4515,1.4387,1.413,1.4387,1.4378,1.4139,1.4396,1.4515,1.4524,1.468,1.4171,1.3318,1.3236,1.2802,1.2172,1.2009,1.2044,1.2318,1.2438,1.2405,1.2331,-0.744,-0.7544,-0.7683,-0.7666,-0.7699,-0.7666,-0.7773,-0.7886,-0.7769,-0.7297,-0.7314,-0.7298,-0.7049,-0.692,-0.6989,-0.7374,-0.7477,-0.7343,-0.6799,-0.6843,-0.6827,-0.6704,-0.6328,-0.662,-0.7727,-0.6528,-0.3614,0.1,0.158,0.4875,1.0557,0.9167,0.9058,0.9903,0.9569,0.9271,0.8996,0.8692,0.8837,0.9256,0.8685,0.8593,0.8705,0.8049,0.7833,0.7886,0.77,0.784,0.7991,0.7716,0.7544,0.7413,0.7311,0.6864,0.6416,0.6436,0.6109,0.5692,0.5514,0.5132,0.4821,0.4819,0.4622,0.4466,0.4515,0.4504,0.4549,0.4614,0.4725,0.4824,0.4931,0.5105,0.5263,0.5326,0.5911,0.6601,0.7451,0.7492,0.7695,0.8444,0.8632,0.9144,1.0183,1.0608,1.1164,1.1865,1.1546,1.1593,1.2199,1.2223,1.258,1.3323,1.3736,1.4121,1.4506,1.4515,1.4515,1.4515,1.4515,1.4515,1.4515,1.4515,1.4515,1.4533,1.4928,1.4327,1.3132,1.3465,1.2998,1.2013,1.1968,1.2064,1.2338,1.2639,1.2572,1.235,-0.7319,-0.7338,-0.7354,-0.7667,-0.7426,-0.7349,-0.7666,-0.7453,-0.7202,-0.6855,-0.6739,-0.6594,-0.6405,-0.6442,-0.658,-0.6797,-0.6509,-0.61,-0.5542,-0.521,-0.4827,-0.4343,-0.3993,-0.3479,-0.2751,-0.3615,-0.2981,-0.0749,0.2523,0.5588,0.8415,0.8712,0.8991,0.9214,0.8551,0.853,0.8948,0.8463,0.8427,0.8633,0.8692,0.867,0.8618,0.8344,0.8106,0.7863,0.751,0.7428,0.7461,0.7291,0.7074,0.6923,0.7085,0.6923,0.6696,0.6864,0.6928,0.681,0.6323,0.5871,0.5474,0.4972,0.4506,0.4168,0.4416,0.4316,0.4216,0.4542,0.477,0.4911,0.5086,0.5307,0.5507,0.575,0.6266,0.6936,0.7788,0.7748,0.7884,0.8584,0.8687,0.9144,1.0183,1.1743,1.2752,1.2811,1.2945,1.3004,1.302,1.3323,1.3571,1.3745,1.4157,1.4414,1.4515,1.4515,1.4515,1.4515,1.4515,1.4515,1.4515,1.4515,1.4515,1.4533,1.4928,1.4577,1.373,1.3854,1.3408,1.2664,1.2335,1.2245,1.2338,1.2418,1.2413,1.2446,-0.6814,-0.691,-0.7082,-0.7421,-0.7135,-0.6989,-0.7344,-0.7141,-0.6797,-0.652,-0.6465,-0.6392,-0.6247,-0.6297,-0.6329,-0.6234,-0.5882,-0.5336,-0.4505,-0.4515,-0.399,-0.2858,-0.2074,-0.1287,-0.0514,-0.0669,-0.044,0.0275,0.361,0.5837,0.7003,0.799,0.8555,0.8664,0.8129,0.8202,0.8608,0.797,0.8111,0.8738,0.8109,0.8189,0.8619,0.7991,0.7649,0.7472,0.7296,0.7198,0.7198,0.6977,0.681,0.6701,0.6869,0.681,0.6756,0.7031,0.7144,0.7122,0.6685,0.6248,0.5822,0.5475,0.4777,0.4267,0.4267,0.426,0.4278,0.4517,0.4767,0.499,0.5025,0.5245,0.554,0.5893,0.6416,0.7078,0.808,0.793,0.8046,0.886,0.8587,0.8769,0.974,1.1425,1.2337,1.2113,1.2406,1.2702,1.2975,1.3387,1.369,1.3873,1.4295,1.4515,1.4515,1.4515,1.4515,1.4515,1.4515,1.4607,1.4781,1.4598,1.4717,1.5084,1.5294,1.5032,1.4518,1.4324,1.3846,1.3164,1.2531,1.2305,1.2338,1.2424,1.2557,1.275,-0.6244,-0.6356,-0.6643,-0.71,-0.6607,-0.6391,-0.6949,-0.6653,-0.6341,-0.622,-0.6287,-0.6262,-0.6113,-0.6043,-0.5919,-0.5597,-0.5281,-0.4677,-0.3685,-0.3913,-0.3337,-0.1625,-0.0452,0.0395,0.0872,0.1863,0.2447,0.2556,0.4714,0.5991,0.6317,0.7283,0.7967,0.8285,0.7958,0.7964,0.8167,0.7448,0.7862,0.8784,0.7509,0.767,0.8508,0.7563,0.7139,0.7085,0.7031,0.6972,0.6918,0.6761,0.6647,0.6647,0.6701,0.6647,0.6647,0.6977,0.7031,0.6988,0.6744,0.6369,0.6061,0.6002,0.5353,0.465,0.4397,0.4378,0.4449,0.4501,0.4793,0.5027,0.4937,0.5169,0.5535,0.6047,0.6649,0.7406,0.8382,0.8222,0.8327,0.9163,0.8743,0.8736,0.9573,1.0871,1.1578,1.1354,1.1601,1.2113,1.289,1.3204,1.358,1.3974,1.4332,1.4543,1.4616,1.4543,1.4579,1.4717,1.4717,1.4845,1.5093,1.4763,1.5001,1.5689,1.5762,1.5587,1.5172,1.4749,1.4171,1.339,1.2592,1.2305,1.2271,1.2407,1.2625,1.2902,-0.6293,-0.5784,-0.562,-0.675,-0.5536,-0.497,-0.6498,-0.5864,-0.5305,-0.5814,-0.5708,-0.5544,-0.5232,-0.5,-0.4827,-0.468,-0.4463,-0.391,-0.2903,-0.2516,-0.1569,0.0169,0.0672,0.1623,0.3098,0.3026,0.3574,0.486,0.5504,0.61,0.6647,0.7025,0.7592,0.8161,0.7614,0.7527,0.7751,0.7324,0.7268,0.7557,0.7444,0.7605,0.7824,0.767,0.7402,0.7085,0.6815,0.6593,0.6372,0.6593,0.6485,0.6317,0.6593,0.6485,0.6317,0.6647,0.6761,0.675,0.672,0.6553,0.6333,0.6357,0.5972,0.5645,0.5703,0.4961,0.4299,0.4449,0.4631,0.4846,0.5042,0.5411,0.5825,0.6425,0.7429,0.8281,0.8847,0.8976,0.9155,0.9498,0.9885,1.0317,1.0959,1.1862,1.244,1.2637,1.289,1.325,1.369,1.3772,1.3992,1.4414,1.4478,1.468,1.5019,1.468,1.4854,1.5533,1.5533,1.5377,1.5102,1.5047,1.5267,1.5707,1.6074,1.5856,1.5172,1.4749,1.4027,1.3164,1.2519,1.2157,1.2068,1.2388,1.2463,1.2431,-0.5163,-0.4725,-0.4552,-0.5279,-0.4606,-0.425,-0.5135,-0.5035,-0.4673,-0.4453,-0.5004,-0.5173,-0.4516,-0.4361,-0.4184,-0.391,-0.3747,-0.3186,-0.1899,-0.1341,-0.0507,0.0863,0.1809,0.2655,0.3335,0.3722,0.4298,0.5191,0.5513,0.6055,0.682,0.7031,0.7378,0.7892,0.7505,0.7404,0.7486,0.716,0.7203,0.7503,0.6961,0.7122,0.767,0.7295,0.7025,0.681,0.6539,0.6317,0.6209,0.6218,0.6114,0.6005,0.6168,0.6114,0.6055,0.6322,0.6539,0.6701,0.6701,0.6756,0.6815,0.6815,0.6436,0.6159,0.6322,0.5766,0.5226,0.5436,0.5558,0.5727,0.5887,0.6187,0.6574,0.7213,0.7889,0.8524,0.8931,0.9126,0.9241,0.926,0.9717,1.0097,1.0314,1.1383,1.2083,1.2195,1.2905,1.347,1.3864,1.4112,1.4323,1.4506,1.4726,1.4818,1.4772,1.4818,1.5129,1.5689,1.5927,1.6065,1.6101,1.5881,1.6111,1.6697,1.6533,1.6495,1.6413,1.5275,1.4529,1.4007,1.2654,1.2032,1.1929,1.2255,1.2332,1.2355]}]]